     2.11           OBSERVATION DATA    G (GPS)             RINEX VERSION / TYPE
teqc 2010Oct21 OPUS Account 20111027 20:58:59UTC            PGM / RUN BY / DATE
P 1526                                                      MARKER NAME
3050                                                        MARKER NUMBER
CSMIDDLETON NGS                                             OBSERVER / AGENCY
0220284361 TRIMBLE 5700 NP 1.22 / SP 1.22                   REC # / TYPE / VERS
12234991 TRM41249.00 NONE                                   ANT # / TYPE
  -751845.9645 -5572231.1763  3000865.6844                  APPROX POSITION XYZ
        2.0000        0.0000        0.0000                  ANTENNA: DELTA H/E/N
     1     1                                                WAVELENGTH FACT L1/2
     5    L1    L2    C1    P1    P2                        # / TYPES OF OBSERV
    15                                                      LEAP SECONDS
  2011     8    20     0     0   30.0000000     GPS         TIME OF FIRST OBS
                                                            END OF HEADER
 11  8 20  0  0 30.0000000  0  7G17G10G09G12G05G02G04
 -33945793.64557 -26435094.99255  22709241.4694                   22709239.6764
 -27880243.05558 -21710682.35356  20885033.4694                   20885031.7734
 -16782712.69157 -13061581.36854  22996313.1484                   22996313.3054
 -19232855.64557 -14971410.00556  21884683.5634                   21884681.0664
 -13885016.53557 -10803695.21655  22591307.9534                   22591307.9844
 -32104507.55158 -25000543.51357  20578469.6564                   20578465.7624
 -34724031.09458 -27040617.80656  21059509.3284                   21059507.8364
 11  8 20  0  1  0.0000000  0  7G17G10G09G12G05G02G04
 -33932109.96547 -26424432.42145  22711845.5394                   22711844.1024
 -27936798.19148 -21754751.26346  20874271.5314                   20874269.7384
 -16747000.00646 -13033753.41244  23003108.8674                   23003110.1414
 -19341082.23848 -15055742.38646  21864088.2114                   21864086.6604
 -14017000.25047 -10906539.58545  22566191.9844                   22566192.3204
 -32149308.15648 -25035453.07547  20569944.6414                   20569940.7194
 -34686918.27748 -27011698.75046  21066571.6644                   21066570.2154
 11  8 20  0  1 30.0000000  0  7G17G10G09G12G05G02G04
 -33918295.53947 -26413668.00345  22714473.9694                   22714473.5944
 -27992755.10548 -21798354.03146  20863623.3754                   20863621.6724
 -16710985.41047 -13005690.09744  23009962.8364                   23009962.7234
 -19448982.02347 -15139820.12046  21843555.4144                   21843553.5514
 -14148795.03947 -11009236.72845  22541112.4384                   22541112.1254
 -32193781.02748 -25070107.24246  20561481.5704                   20561477.5824
 -34649586.30548 -26982608.91846  21073675.6724                   21073674.5984
 11  8 20  0  2  0.0000000  0  7G17G10G09G12G05G02G04
 -33904350.43747 -26402801.72345  22717126.5784                   22717126.2424
 -28048113.34048 -21841490.30346  20853088.9064                   20853087.3094
 -16674673.16447 -12977394.93344  23016872.2734                   23016872.5864
 -19556553.21947 -15223641.79446  21823085.2034                   21823083.3874
 -14280398.75847 -11111784.99145  22516068.6484                   22516068.8094
 -32237927.77048 -25104507.29047  20553081.0004                   20553076.9574
 -34612038.45348 -26953350.85846  21080820.9844                   21080819.6294
 11  8 20  0  2 30.0000000  0  7G17G10G09G12G05G02G04
 -33890275.23447 -26391834.07445  22719806.5634                   22719805.1844
 -28102872.41448 -21884159.69146  20842668.5394                   20842666.8914
 -16638067.42246 -12948871.02244  23023837.5554                   23023839.2624
 -19663794.05548 -15307206.05846  21802677.9614                   21802676.2234
 -14411809.05947 -11214182.54045  22491062.1414                   22491062.2894
 -32281750.24248 -25138654.66447  20544741.5634                   20544737.6174
 -34574277.61748 -26923926.85446  21088006.4774                   21088005.0824
 11  8 20  0  3  0.0000000  0  7G17G10G09G12G05G02G04
 -33876068.93047 -26380764.27645  22722509.5944                   22722507.6174
 -28157031.04748 -21926361.19446  20832362.4614                   20832360.5824
 -16601171.48047 -12920121.02444  23030859.5084                   23030860.1604
 -19770702.03948 -15390510.96346  21782334.0634                   21782332.0354
 -14543023.13747 -11316427.18545  22466093.1334                   22466093.5044
 -32325249.37148 -25172550.08647  20536463.7344                   20536460.0354
 -34536306.09448 -26894338.66746  21095231.9454                   21095230.4494
 11  8 20  0  3 30.0000000  0  7G17G10G09G12G05G02G04
 -33861728.83647 -26369590.21745  22725239.0944                   22725237.9734
 -28210585.80948 -21968092.16546  20822171.1804                   20822169.6484
 -16563986.79347 -12891146.01944  23037935.1484                   23037936.2544
 -19877272.35248 -15473552.72546  21762054.6724                   21762052.8324
 -14674035.80547 -11418514.90645  22441162.1024                   22441162.0204
 -32368423.67248 -25206192.38547  20528248.4304                   20528244.4184
 -34498124.02748 -26864586.42146  21102497.9774                   21102496.9414
 11  8 20  0  4  0.0000000  0  7G17G10G09G12G05G02G04
 -33847253.11347 -26358310.49745  22727992.8914                   22727992.5984
 -28263534.54747 -22009350.89446  20812095.3524                   20812093.9534
 -16526515.73447 -12861947.87244  23045065.8364                   23045067.2304
 -19983501.43448 -15556328.59946  21741839.8284                   21741837.7734
 -14804842.84447 -11520442.36545  22416269.9924                   22416270.3204
 -32411272.93448 -25239581.41447  20520094.2194                   20520090.4104
 -34459732.67648 -26834671.10146  21109804.0634                   21109802.2894
 11  8 20  0  4 30.0000000  0  7G17G10G09G12G05G02G04
 -33832649.85947 -26346931.38845  22730772.8134                   22730769.6914
 -28315884.44548 -22050142.99446  20802133.6254                   20802132.0044
 -16488769.60246 -12832535.38044  23052248.1724                   23052249.2234
 -20089395.19948 -15638843.20146  21721689.0634                   21721686.6884
 -14935449.90647 -11622214.03445  22391416.6804                   22391416.1214
 -32453806.75848 -25272724.65147  20512000.5554                   20511996.4104
 -34421142.56247 -26804600.90146  21117147.3754                   21117145.6524
 11  8 20  0  5  0.0000000  0  7G17G10G09G12G05G02G04
 -32242494.64847 -25107849.42645  23033368.3834                   23033367.9734
 -26792208.50448 -20862863.01846  21092079.4304                   21092078.0204
 -14875329.11746 -11575309.10945  23359276.9924                   23359277.7384
 -18619523.42648 -14493488.53446  22001396.0634                   22001394.1054
 -13490425.12947 -10496220.59745  22666395.2114                   22666395.4774
 -30920600.47748 -24078018.44747  20803759.8594                   20803755.9654
 -32806932.97347 -25546775.26746  21424320.7504                   21424319.8874
 11  8 20  0  5 30.0000000  0  8G17G10G09G12G05G02G04G30
 -32227626.43747 -25096263.85845  23036198.5944                   23036196.6954
 -26843349.35548 -20902713.00646  21082347.7034                   21082346.2974
 -14837036.02347 -11545470.39844  23366564.4614                   23366564.5394
 -18724731.50048 -14575468.82546  21981376.0394                   21981373.9454
 -13620615.48047 -10597667.53945  22641620.8524                   22641620.9304
 -30962498.93448 -24110666.58147  20795786.7974                   20795782.7304
 -32767944.72348 -25516394.82046  21431740.5554                   21431738.6524
   1374170.28557   1083062.59354  24482297.8524                   24482297.7424
 11  8 20  0  6  0.0000000  0  8G17G10G09G12G05G02G04G30
 -32212630.65247 -25084578.85045  23039051.5394                   23039049.9494
 -26893889.80948 -20942095.14146  21072729.9694                   21072728.4064
 -14798480.25047 -11515427.02244  23373900.2584                   23373901.0664
 -18829598.47748 -14657183.31546  21961420.1414                   21961418.2664
 -13750598.80547 -10698953.17245  22616885.5084                   22616885.2974
 -31004086.98448 -24143072.84747  20787873.0944                   20787868.7624
 -32728766.49248 -25485866.34046  21439195.5784                   21439194.1174
   1236444.55147    975743.84843  24456089.8754                   24456089.6484
 11  8 20  0  6 30.0000000  0  8G17G10G09G12G05G02G04G30
 -32197511.44147 -25072797.68245  23041929.2344                   23041927.9694
 -26943833.69948 -20981012.43646  21063225.8204                   21063224.6094
 -14759670.01647 -11485185.34644  23381286.4064                   23381286.6994
 -18934126.45748 -14738633.66046  21941529.1804                   21941527.0274
 -13880377.00047 -10800078.94445  22592189.9614                   22592189.6134
 -31045370.28548 -24175241.63946  20780016.7734                   20780012.8634
 -32689405.48848 -25455195.45446  21446685.9614                   21446684.5204
   1098880.13346    868550.86244  24429911.9774                   24429912.0904
 11  8 20  0  7  0.0000000  0  8G17G10G09G12G05G02G04G30
 -32182266.48847 -25060918.52645  23044829.7894                   23044828.4734
 -26993178.28147 -21019462.74046  21053836.0164                   21053834.2234
 -14720607.16047 -11454746.85344  23388719.8834                   23388720.3594
 -19038311.55948 -14819816.82746  21921703.4064                   21921701.4534
 -14009945.48447 -10901041.32245  22567533.6024                   22567533.4224
 -31086348.19148 -24207172.46746  20772219.0554                   20772215.1054
 -32649861.87947 -25424382.26646  21454211.0164                   21454209.3874
    961481.47346    761486.95844  24403765.9384                   24403765.3594
 11  8 20  0  7 30.0000000  0  8G17G10G09G12G05G02G04G30
 -32166890.46947 -25048937.24845  23047756.3364                   23047754.3914
 -27041917.92648 -21057441.66146  21044561.2344                   21044559.2664
 -14681290.34847 -11424110.45844  23396200.8364                   23396202.0824
 -19142146.66048 -14900727.27146  21901944.2274                   21901942.3164
 -14139296.65647 -11001834.35945  22542918.9144                   22542918.6054
 -31127016.86748 -24238862.34447  20764479.9924                   20764476.2664
 -32610133.43048 -25393425.05046  21461770.5474                   21461769.2114
    824256.03546    654558.17043  24377652.6334                   24377652.1954
 11  8 20  0  8  0.0000000  0  9G17G10G09G12G05G02G04G30G25
 -32151380.59447 -25036851.62945  23050707.1414                   23050706.6294
 -27090049.27048 -21094946.58746  21035402.1174                   21035400.4304
 -14641720.73847 -11393277.06345  23403731.3674                   23403732.0434
 -19245627.00048 -14981361.26346  21882252.8284                   21882250.2774
 -14268425.14847 -11102453.87945  22518346.3984                   22518346.5864
 -31167375.27348 -24270310.44246  20756800.2274                   20756795.6994
 -32570220.43048 -25362324.02946  21469365.9774                   21469364.7974
    687208.60246    547767.95943  24351573.2894                   24351572.6174
   1377415.58656   1085701.91154  24759895.3134                   24759898.5394
 11  8 20  0  8 30.0000000  0  9G17G10G09G12G05G02G04G30G25
 -32135742.18447 -25024665.91545  23053683.4304                   23053681.8914
 -27137577.32848 -21131981.40246  21026357.9304                   21026356.2704
 -14601907.96947 -11362254.23044  23411307.5864                   23411308.2894
 -19348755.80148 -15061721.36146  21862627.7974                   21862625.5944
 -14397334.02347 -11202902.26346  22493816.2424                   22493815.8164
 -31207430.48848 -24301522.27547  20749177.8204                   20749174.0594
 -32530130.61348 -25331085.22446  21476994.6884                   21476993.6844
    550336.10246    441114.12243  24325527.5634                   24325527.1094
   1241574.16446    979851.56244  24734045.6484                   24734048.2894
 11  8 20  0  9  0.0000000  0  9G17G10G09G12G05G02G04G30G25
 -32119978.03947 -25012382.18545  23056683.2424                   23056681.6644
 -27184504.82048 -21168548.27046  21017427.8524                   21017426.1724
 -14561858.63347 -11331047.01344  23418928.7114                   23418929.5434
 -19451534.10248 -15141808.33846  21843069.5944                   21843067.1564
 -14526023.68447 -11303179.84646  22469327.0234                   22469326.9574
 -31247186.89148 -24332501.29246  20741612.4454                   20741608.3634
 -32489869.84448 -25299713.22946  21484656.3594                   21484655.1684
    413637.78946    334596.00543  24299513.8364                   24299513.4144
   1105824.78946    874072.85544  24708213.4774                   24708215.1804
 11  8 20  0  9 30.0000000  0  9G17G10G09G12G05G02G04G30G25
 -32104081.60547 -24999995.38845  23059708.1954                   23059707.0124
 -27230824.77048 -21204641.71846  21008613.8054                   21008611.8164
 -14521569.93447 -11299653.31544  23426595.4614                   23426595.8054
 -19553953.33248 -15221615.49646  21823579.8284                   21823577.6254
 -14654485.28547 -11403279.71446  22444882.0234                   22444881.2154
 -31286639.50848 -24363243.57046  20734104.9144                   20734100.7704
 -32449434.16048 -25268204.92546  21492350.8284                   21492349.1644
    277122.42246    228220.48243  24273536.8364                   24273535.3794
    970175.88346    768372.45944  24682400.0084                   24682402.3484
 11  8 20  0 10  0.0000000  0  9G17G10G09G12G05G02G04G30G25
 -32088049.18047 -24987502.62245  23062758.8054                   23062757.5634
 -27276532.69548 -21240258.27146  20999915.4384                   20999913.8284
 -14481042.31247 -11268073.41444  23434307.7894                   23434308.3134
 -19656007.96948 -15301138.57446  21804159.4224                   21804157.3324
 -14782712.84847 -11503197.22146  22420480.7344                   22420480.7894
 -31325786.25448 -24393747.51747  20726655.4384                   20726651.4614
 -32408822.86748 -25236559.78246  21500079.1174                   21500077.5234
    140795.97745    121992.09442  24247593.9694                   24247593.1994
    834633.18447    662754.84244  24656607.8914                   24656609.2584
 11  8 20  0 10 30.0000000  0  9G17G10G09G12G05G02G04G30G25
 -32071880.68747 -24974903.82845  23065835.7734                   23065835.0124
 -27321629.03148 -21275398.25246  20991334.0164                   20991332.0234
 -14440279.82047 -11236310.50944  23442064.1174                   23442065.0594
 -19757696.45348 -15380376.33346  21784808.8364                   21784807.1024
 -14910704.03947 -11602930.53846  22396124.8594                   22396124.5354
 -31364628.76648 -24424014.39446  20719264.1724                   20719260.1804
 -32368038.97348 -25204780.13946  21507839.8984                   21507838.3094
      4660.36746     15912.47043  24221688.0474                   24221686.7194
    699198.14547    557221.05944  24630835.0704                   24630836.7464
 11  8 20  0 11  0.0000000  0  9G17G10G09G12G05G02G04G30G25
 -32055572.05147 -24962195.82945  23068939.3134                   23068937.8204
 -27366109.22348 -21310058.11746  20982869.5474                   20982867.8284
 -14399282.36747 -11204364.55044  23449865.8674                   23449867.3484
 -19859012.28148 -15459323.71746  21765529.1484                   21765527.1484
 -15038452.35947 -11702474.60646  22371815.0944                   22371815.1724
 -31403164.71948 -24454042.39547  20711930.6804                   20711926.7774
 -32327080.68048 -25172864.60846  21515634.3674                   21515632.9024
   -131278.04746    -90013.55942  24195820.4924                   24195817.7774
    563877.05946    451776.12744  24605084.2504                   24605086.4924
 11  8 20  0 11 30.0000000  0  9G17G10G09G12G05G02G04G30G25
 -32039123.95747 -24949379.14745  23072069.0784                   23072067.6524
 -27409973.72748 -21344238.24846  20974522.5474                   20974521.1844
 -14358054.91847 -11172239.33444  23457711.2034                   23457712.3014
 -19959954.76248 -15537980.17946  21746320.1804                   21746318.0204
 -15165956.23447 -11801828.20146  22347551.4144                   22347551.5984
 -31441396.43048 -24483833.32746  20704655.2504                   20704651.6604
 -32285951.74248 -25140816.09946  21523460.5784                   21523459.0864
   -267017.71146   -195784.70143  24169990.0554                   24169988.0004
    428670.94946    346420.72644  24579355.3284                   24579357.3484
 11  8 20  0 12  0.0000000  0  9G17G10G09G12G05G02G04G30G25
 -32022530.86347 -24936449.47645  23075226.8914                   23075225.6374
 -27453216.60548 -21377933.97446  20966293.5784                   20966292.1094
 -14316595.65647 -11139933.51844  23465601.1564                   23465601.0634
 -20060516.09848 -15616339.64746  21727183.7274                   21727182.1214
 -15293207.72747 -11900985.13546  22323336.3364                   22323336.2344
 -31479319.96148 -24513384.12246  20697438.6334                   20697434.9304
 -32244649.08248 -25108632.23046  21531320.3134                   21531318.7974
   -402550.76246   -301394.77443  24144199.1334                   24144196.9184
    293587.48846    241160.99343  24553650.0704                   24553651.5004
 11  8 20  0 12 30.0000000  0  9G17G10G09G12G05G02G04G30G25
 -32005793.14847 -24923407.14545  23078412.1414                   23078410.7154
 -27495838.32048 -21411145.68646  20958182.6334                   20958181.6054
 -14274909.01647 -11107450.51844  23473533.4384                   23473534.0274
 -20160694.76647 -15694400.92446  21708120.3674                   21708118.2154
 -15420204.31647 -11999943.42346  22299169.9534                   22299169.5744
 -31516937.20748 -24542696.24447  20690280.4844                   20690276.6294
 -32203175.97348 -25076315.53746  21539212.8364                   21539210.9184
   -537875.51646   -406842.54743  24118446.8284                   24118446.1054
    158628.07446    135997.91443  24527967.4924                   24527969.5634
 11  8 20  0 13  0.0000000  0  9G17G10G09G12G05G02G04G30G25
 -31988904.44147 -24910247.17145  23081625.7504                   23081624.3284
 -27537832.48448 -21443868.41446  20950191.8524                   20950190.1914
 -14232992.94547 -11074788.72044  23481510.4694                   23481511.4884
 -20260482.75448 -15772157.79146  21689131.9534                   21689129.9774
 -15546938.00847 -12098696.88046  22275053.4304                   22275052.7234
 -31554243.80148 -24571766.29646  20683181.1174                   20683177.4184
 -32161529.03148 -25043863.39246  21547137.5394                   21547136.3794
   -672983.60946   -512121.56843  24092736.2974                   24092736.7074
     23800.71146     30937.67143  24502310.2894                   24502312.1094
 11  8 20  0 13 30.0000000  0  9G17G10G09G12G05G02G04G30G25
 -31971872.07847 -24896975.26945  23084866.9614                   23084865.6334
 -27579206.13748 -21476107.61646  20942318.5084                   20942316.9884
 -14190858.92247 -11041957.13644  23489528.0474                   23489530.1024
 -20359885.77047 -15849614.67146  21670215.4144                   21670213.9104
 -15673414.12147 -12197249.61846  22250985.5004                   22250984.7114
 -31591248.81648 -24600601.35247  20676139.5234                   20676135.1254
 -32119718.25048 -25011283.57646  21555093.9304                   21555092.9734
   -807880.18447   -617235.71943  24067067.4064                   24067066.7304
   -110899.95346    -74023.80643  24476677.6174                   24476679.1254
 11  8 20  0 14  0.0000000  0  9G17G10G09G12G05G02G04G30G25
 -31954695.18047 -24883590.67645  23088135.8204                   23088134.3404
 -27619958.47348 -21507862.65946  20934563.5004                   20934561.9534
 -14148509.69547 -11008957.80244  23497587.4144                   23497587.7854
 -20458900.75848 -15926769.19346  21651374.1254                   21651371.7934
 -15799628.96147 -12295598.77246  22226967.0164                   22226967.2584
 -31627952.75448 -24629201.80747  20669154.8754                   20669150.9494
 -32077745.40248 -24978577.47246  21563080.9304                   21563079.7664
   -942561.94947   -722182.41744  24041437.6334                   24041437.9224
   -245470.98446   -178884.36843  24451069.8914                   24451070.7624
 11  8 20  0 14 30.0000000  0  9G17G10G09G12G05G02G04G30G25
 -31937368.05947 -24870089.06345  23091432.3054                   23091431.4654
 -27660083.98048 -21539129.29446  20926928.0164                   20926926.4884
 -14105943.58247 -10975789.48244  23505686.7034                   23505687.8834
 -20557520.24647 -16003615.53446  21632606.8984                   21632605.1644
 -15925573.83647 -12393737.56146  22203001.1644                   22203000.5594
 -31664351.67248 -24657564.58847  20662228.2114                   20662224.3594
 -32035607.55148 -24945742.79746  21571099.8444                   21571098.4264
  -1077021.15246   -826955.77544  24015851.0004                   24015850.7504
   -379904.68046   -283637.78243  24425488.2814                   24425488.4614
 11  8 20  0 15  0.0000000  0  9G17G10G09G12G05G02G04G30G25
 -31919891.01247 -24856470.63845  23094758.3594                   23094757.2704
 -27699582.76647 -21569907.57046  20919411.8914                   20919409.8914
 -14063165.02747 -10942455.63744  23513827.4454                   23513828.4264
 -20655742.70347 -16080152.49546  21613916.0314                   21613914.4184
 -16051247.70747 -12491665.17146  22179086.2034                   22179085.5664
 -31700447.71148 -24685691.36547  20655359.7194                   20655355.5044
 -31993307.77748 -24912781.95745  21579148.9064                   21579147.9104
  -1211255.88747   -931554.18944  23990306.6644                   23990306.4064
   -514199.67647   -388283.25043  24399932.9304                   24399934.4574
 11  8 20  0 15 30.0000000  0  9G17G10G09G12G05G02G04G30G25
 -31902264.57447 -24842735.79044  23098112.1644                   23098111.2304
 -27738455.30148 -21600197.84946  20912014.4534                   20912012.6054
 -14020178.33247 -10908959.61044  23522007.6804                   23522008.7344
 -20753566.64847 -16156378.93246  21595300.9774                   21595298.7304
 -16176648.80147 -12589380.24746  22155223.3054                   22155222.5314
 -31736242.95348 -24713583.74646  20648547.9844                   20648543.9104
 -31950849.13348 -24879697.30345  21587228.5004                   21587227.1294
  -1345264.38346  -1035976.31444  23964805.6334                   23964805.5514
   -648354.33647   -492819.22944  24374403.7344                   24374405.5204
 11  8 20  0 16  0.0000000  0  9G17G10G09G12G05G02G04G30G25
 -31884484.59847 -24828881.28744  23101496.5864                   23101495.0664
 -27776697.83648 -21629997.22446  20904736.9774                   20904735.3094
 -13976983.99247 -10875301.76644  23530227.2974                   23530228.3984
 -20850986.45347 -16232290.44946  21576762.2894                   21576760.6054
 -16301770.42247 -12686877.54946  22131412.8984                   22131412.4184
 -31771735.21547 -24741240.04946  20641794.0004                   20641789.9494
 -31908230.42248 -24846487.94345  21595338.6174                   21595337.7584
  -1479040.65246  -1140217.49743  23939349.4534                   23939348.4344
   -782362.88747   -597241.43144  24348902.9614                   24348904.9734
 11  8 20  0 16 30.0000000  0  9G17G10G09G12G05G02G04G30G25
 -31866555.98047 -24814910.98544  23104907.3594                   23104907.1414
 -27814315.10547 -21659309.36346  20897578.5554                   20897577.1174
 -13933590.79346 -10841488.95444  23538485.3284                   23538486.2734
 -20948005.30947 -16307889.54446  21558300.5164                   21558298.9224
 -16426615.40247 -12784159.26746  22107655.7894                   22107654.9104
 -31806930.93747 -24768665.27847  20635096.6254                   20635092.7154
 -31865459.49247 -24813159.95445  21603477.7344                   21603476.3554
  -1612587.23446  -1244279.68243  23913936.4774                   23913935.1374
   -916228.35247   -701552.11144  24323429.2344                   24323431.4454
 11  8 20  0 17  0.0000000  0  9G17G10G09G12G05G02G04G30G25
 -31848475.92247 -24800822.69144  23108348.8054                   23108347.5474
 -27851304.43747 -21688132.22346  20890539.8364                   20890537.9024
 -13889999.20747 -10807521.54844  23546780.4534                   23546781.2504
 -21044618.25047 -16383172.33746  21539915.6804                   21539913.8134
 -16551178.11347 -12881221.05046  22083952.3364                   22083951.4304
 -31841828.89147 -24795858.47846  20628455.4454                   20628451.6914
 -31822535.38748 -24779712.63246  21611645.9844                   21611644.8714
  -1745898.71946  -1348158.73444  23888567.8204                   23888566.2664
  -1049945.45747   -805747.21844  24297983.7194                   24297985.8524
 11  8 20  0 17 30.0000000  0  9G17G10G09G12G05G02G04G30G25
 -31830242.55147 -24786614.91844  23111817.9144                   23111816.7934
 -27887664.18048 -21716464.49146  20883620.9454                   20883619.3204
 -13846211.99647 -10773401.74444  23555112.6484                   23555114.0474
 -21140821.65248 -16458136.00546  21521608.8284                   21521606.5434
 -16675454.41847 -12978059.65546  22060303.2114                   22060302.4104
 -31876428.89547 -24822819.50647  20621871.3364                   20621867.7194
 -31779459.41848 -24746146.96945  21619843.0704                   21619841.7624
  -1878971.24646  -1451851.48143  23863245.2274                   23863243.4654
  -1183510.53547   -909823.82244  24272566.4224                   24272568.6334
 11  8 20  0 18  0.0000000  0  9G17G10G09G12G05G02G04G30G25
 -31811859.20347 -24772290.28144  23115316.2734                   23115314.8014
 -27923397.61348 -21744308.70346  20876821.2664                   20876819.1174
 -13802236.38747 -10739135.13344  23563481.2424                   23563481.9534
 -21236617.11347 -16532781.81246  21503379.5864                   21503377.4344
 -16799445.57047 -13074676.06546  22036708.0474                   22036707.7034
 -31910736.44148 -24849552.64546  20615342.7584                   20615338.6914
 -31736237.43448 -24712467.51745  21628068.3364                   21628067.1644
  -2011806.00446  -1555359.04443  23837967.1884                   23837965.6174
  -1316925.10947  -1013783.17544  24247179.0234                   24247180.7664
 11  8 20  0 18 30.0000000  0  9G17G10G09G12G05G02G04G30G25
 -31793323.79747 -24757847.16244  23118843.8284                   23118842.2344
 -27958502.91448 -21771663.48046  20870140.8054                   20870139.0044
 -13758074.13347 -10704723.06044  23571884.7424                   23571886.1524
 -21332000.78947 -16607106.73946  21485228.4304                   21485226.8014
 -16923147.11747 -13171066.80946  22013168.6174                   22013167.6374
 -31944750.96547 -24876057.46146  20608870.2194                   20608866.1484
 -31692870.16848 -24678674.86145  21636320.4774                   21636319.3094
  -2144398.69547  -1658678.05343  23812736.1884                   23812733.3324
  -1450185.14847  -1117622.09644  24221820.4144                   24221821.7734
 11  8 20  0 19  0.0000000  0  9G17G10G09G12G05G02G04G30G25
 -31774639.19147 -24743287.74144  23122399.3134                   23122398.0704
 -27992983.27047 -21798531.28046  20863579.6804                   20863577.7504
 -13713732.29747 -10670171.07044  23580323.5314                   23580323.8714
 -21426973.59447 -16681111.49646  21467155.4614                   21467153.6804
 -17046559.75847 -13267232.41646  21989684.2664                   21989683.1374
 -31978476.63347 -24902337.19147  20602452.0084                   20602448.1564
 -31649362.95748 -24644773.17245  21644599.4064                   21644598.7464
  -2276749.78946  -1761808.65843  23787549.5784                   23787548.1294
  -1583291.45347  -1221341.20144  24196490.6884                   24196492.5044
 11  8 20  0 19 30.0000000  0  9G17G10G09G12G05G02G04G30G25
 -31755802.28547 -24728609.68244  23125984.0704                   23125982.4574
 -28026835.94948 -21824909.98946  20857137.3754                   20857135.6134
 -13669211.82047 -10635479.85944  23588795.4384                   23588796.0044
 -21521530.72347 -16754792.35746  21449162.0394                   21449160.0634
 -17169678.00847 -13363168.65346  21966255.3674                   21966254.5744
 -32011912.32047 -24928390.96847  20596089.6334                   20596086.1024
 -31605715.28548 -24610762.02445  21652905.5784                   21652904.5084
  -2408854.09047  -1864747.04943  23762410.8914                   23762409.5274
  -1716238.93747  -1324936.61644  24171191.9924                   24171193.0514
 11  8 20  0 20  0.0000000  0  9G17G10G09G12G05G02G04G30G25
 -31736814.50047 -24713814.04444  23129597.5864                   23129596.5274
 -28060062.44547 -21850800.74846  20850814.6804                   20850812.6954
 -13624517.79347 -10600653.45844  23597300.0234                   23597301.4414
 -21615671.89547 -16828149.09146  21431247.7114                   21431245.7934
 -17292500.83647 -13458874.67246  21942882.9774                   21942882.1604
 -32045061.31647 -24954221.33746  20589781.8524                   20589778.0704
 -31561931.24648 -24576644.61545  21661237.4144                   21661235.9264
  -2540710.52347  -1967492.29343  23737319.6254                   23737318.5664
  -1849026.92647  -1428407.71244  24145922.6484                   24145923.7974
 11  8 20  0 20 30.0000000  0  9G17G10G09G12G05G02G04G30G25
 -31717674.99247 -24698900.20245  23133239.5394                   23133238.1174
 -28092662.25847 -21876203.18446  20844610.9304                   20844609.1174
 -13579653.66847 -10565694.50544  23605836.7424                   23605839.2854
 -21709394.33247 -16901179.53746  21413412.3444                   21413410.9144
 -17415025.26647 -13554348.18546  21919567.2034                   21919566.8364
 -32077924.30547 -24979828.84947  20583527.9064                   20583524.1254
 -31518012.75848 -24542422.45545  21669594.9534                   21669593.7814
  -2672316.26246  -2070042.16443  23712276.1334                   23712275.0274
  -1981652.71547  -1531752.40143  24120684.8054                   24120686.1804
 11  8 20  0 21  0.0000000  0  9G17G10G09G12G05G02G04G30G25
 -31698379.48447 -24683864.76245  23136911.8134                   23136910.6484
 -28124631.82447 -21901114.53746  20838527.2664                   20838525.5824
 -13534619.34446 -10530602.91344  23614407.2034                   23614408.4804
 -21802692.50447 -16973879.39046  21395658.8914                   21395656.5744
 -17537244.68747 -13649584.03446  21896309.3914                   21896308.8794
 -32110499.09847 -25005211.80247  20577329.4774                   20577325.2304
 -31473958.31248 -24508094.35545  21677978.1484                   21677976.7814
  -2803664.99646  -2172391.76943  23687281.1804                   23687279.5044
  -2114110.21546  -1634965.99944  24095478.9694                   24095479.9064
 11  8 20  0 21 30.0000000  0  9G17G10G09G12G05G02G04G30G25
 -31678933.01647 -24668711.71945  23140612.0234                   23140611.0004
 -28155976.18447 -21925538.70746  20832562.7034                   20832561.0434
 -13489423.23446 -10495385.28644  23623008.1174                   23623009.3164
 -21895569.19147 -17046250.81346  21377985.0004                   21377982.5824
 -17659161.86347 -13744584.35246  21873108.9924                   21873108.2774
 -32142792.03547 -25030375.13447  20571184.1254                   20571180.3634
 -31429775.01248 -24473665.83846  21686386.1884                   21686385.1174
  -2934759.13747  -2274542.99943  23662334.2664                   23662333.5394
  -2246402.06647  -1738050.51844  24070304.9454                   24070306.9024
 11  8 20  0 22  0.0000000  0  9G17G10G09G12G05G02G04G30G25
 -31659329.42647 -24653436.22045  23144342.2664                   23144341.3324
 -28186689.43447 -21949471.09446  20826718.0784                   20826716.9144
 -13444063.49647 -10460040.12144  23631639.7344                   23631640.6374
 -21988016.43047 -17118287.59246  21360393.1564                   21360390.3594
 -17780768.12547 -13839342.40546  21849968.3594                   21849967.5944
 -32174798.71547 -25055315.38247  20565093.6174                   20565089.4144
 -31385459.45348 -24439134.25945  21694818.9454                   21694817.7584
  -3065590.29746  -2376489.29743  23637438.3134                   23637436.7194
  -2378520.11347  -1840999.59844  24045164.5314                   24045164.6334
 11  8 20  0 22 30.0000000  0  9G17G10G09G12G05G02G04G30G25
 -31639567.98047 -24638037.73845  23148102.9304                   23148101.8204
 -28216771.10947 -21972911.36646  20820993.9384                   20820992.2584
 -13398542.98446 -10424569.72044  23640301.6334                   23640303.3594
 -22080031.71547 -17189987.81246  21342883.2894                   21342880.4804
 -17902060.64547 -13933855.98746  21826886.8914                   21826886.5354
 -32206519.92647 -25080033.21347  20559057.0474                   20559053.0824
 -31341013.14847 -24404500.81645  21703277.2194                   21703275.6684
  -3196155.23447  -2478228.16044  23612592.8054                   23612591.8444
  -2510461.56247  -1943811.03444  24020056.0634                   24020057.2544
 11  8 20  0 23  0.0000000  0  9G17G10G09G12G05G02G04G30G25
 -31619644.77347 -24622513.20445  23151894.1484                   23151893.4614
 -28246218.19148 -21995857.13746  20815390.2814                   20815388.5434
 -13352862.23446 -10388974.44144  23648994.7974                   23648996.5234
 -22171609.67247 -17261347.23046  21325455.7274                   21325453.4454
 -18023033.14847 -14028120.20846  21803866.5474                   21803865.6564
 -32237953.61748 -25104526.98547  20553075.8134                   20553071.7464
 -31296435.18748 -24369764.77645  21711760.0314                   21711758.5704
  -3326448.17647  -2579755.05544  23587798.4774                   23587797.4844
  -2642220.50447  -2046480.32244  23994983.5704                   23994984.3794
 11  8 20  0 23 30.0000000  0  9G17G10G09G12G05G02G04G30G25
 -31599564.41847 -24606866.21245  23155715.2584                   23155714.1684
 -28275035.73048 -22018312.35746  20809906.3914                   20809905.0354
 -13307029.84847 -10353260.98943  23657716.3674                   23657717.9304
 -22262753.30947 -17332368.22646  21308111.9224                   21308109.6484
 -18143688.24247 -14122137.09646  21780907.0084                   21780906.0784
 -32269106.50847 -25128801.95746  20547147.3834                   20547143.5514
 -31251732.45748 -24334931.51045  21720266.5234                   21720265.3714
  -3456471.51247  -2681071.83944  23563056.6094                   23563054.6524
  -2773799.77347  -2149009.55244  23969944.5084                   23969945.4344
 11  8 20  0 24  0.0000000  0  9G17G10G09G12G05G02G04G30G25
 -31579322.87547 -24591093.62045  23159567.3524                   23159566.6374
 -28303220.16848 -22040274.25646  20804543.2194                   20804541.2504
 -13261045.39146 -10317428.99244  23666467.3364                   23666467.9414
 -22353456.43747 -17403045.96446  21290851.7344                   21290849.2424
 -18264019.07047 -14215901.30546  21758008.7664                   21758007.4304
 -32299975.96947 -25152856.09146  20541273.4224                   20541269.0164
 -31206903.49247 -24299999.88145  21728797.2424                   21728795.6214
  -3586218.58247  -2782173.41143  23538365.6094                   23538365.0824
  -2905192.78547  -2251393.71944  23944941.3984                   23944942.9304
 11  8 20  0 24 30.0000000  0  9G17G10G09G12G05G02G04G30G25
 -31558928.55947 -24575201.97145  23163447.8364                   23163447.2504
 -28330780.33248 -22061749.70446  20799298.5864                   20799297.0004
 -13214921.66847 -10281488.56044  23675244.5084                   23675245.3404
 -22443726.21948 -17473386.03846  21273674.0944                   21273671.8014
 -18384032.43747 -14309418.13746  21735170.6484                   21735170.0824
 -32330572.52747 -25176697.55247  20535450.6334                   20535446.5434
 -31161959.44148 -24264978.57745  21737349.6564                   21737348.4884
  -3715696.00847  -2883064.84244  23513726.8524                   23513725.7114
  -3036406.56647  -2353638.12444  23919972.1094                   23919973.0984
 11  8 20  0 25  0.0000000  0  9G17G10G09G12G05G02G04G30G25
 -31538376.31647 -24559187.30545  23167359.0554                   23167358.2274
 -28357711.37948 -22082734.93446  20794173.7034                   20794171.9454
 -13168656.96546 -10245438.26744  23684048.0314                   23684049.4924
 -22533555.50848 -17543382.87446  21256579.7664                   21256577.7274
 -18503720.48848 -14402681.48846  21712394.8594                   21712393.9804
 -32360892.46948 -25200323.47946  20529681.1334                   20529676.6564
 -31116897.42248 -24229865.33845  21745924.8984                   21745923.7664
  -3844895.98847  -2983740.11844  23489141.3984                   23489139.5704
  -3167433.39847  -2455736.87944  23895038.3914                   23895040.1454
 11  8 20  0 25 30.0000000  0  9G17G10G09G12G05G02G04G30G25
 -31517665.28547 -24543048.88445  23171300.5474                   23171299.1484
 -28384013.65248 -22103230.20946  20789168.6484                   20789166.7854
 -13122254.92647 -10209280.91843  23692878.4454                   23692879.1134
 -22622942.03147 -17613034.68746  21239570.2344                   21239567.8484
 -18623080.49647 -14495689.22046  21689681.4304                   21689680.4734
 -32390936.75847 -25223734.60947  20523963.9694                   20523959.8554
 -31071719.48048 -24194661.76345  21754521.8204                   21754520.0824
  -3973815.72746  -3084196.97144  23464608.4304                   23464607.5204
  -3298270.71547  -2557687.96044  23870141.3134                   23870142.0784
 11  8 20  0 26  0.0000000  0  9G17G10G09G12G05G02G04G30G25
 -31496791.93447 -24526783.99045  23175272.3754                   23175272.4304
 -28409683.75048 -22123232.87846  20784283.6954                   20784282.0784
 -13075715.34847 -10173016.38444  23701734.5784                   23701735.6954
 -22711880.06647 -17682337.04446  21222645.7974                   21222643.3834
 -18742106.35947 -14588436.58846  21667031.2894                   21667030.5984
 -32420703.13747 -25246929.18347  20518299.5864                   20518295.6604
 -31026423.83248 -24159366.49545  21763141.7344                   21763139.9964
  -4102448.85546  -3184430.57143  23440130.2274                   23440128.7814
  -3428912.34847  -2659486.57144  23845280.7274                   23845281.9454
 11  8 20  0 26 30.0000000  0  9G17G10G09G12G05G02G04G30G25
 -31475756.66047 -24510392.91544  23179275.1954                   23179274.8754
 -28434722.59848 -22142743.64846  20779519.0554                   20779517.2704
 -13029042.52747 -10136648.02944  23710616.2894                   23710618.0234
 -22800368.36747 -17751288.95546  21205807.1564                   21205804.9024
 -18860796.16047 -14680922.07346  21644445.5784                   21644444.7624
 -32450193.94547 -25269909.03647  20512687.5944                   20512683.4064
 -30981013.59448 -24123981.90045  21771783.0314                   21771781.4224
  -4230793.73446  -3284439.45944  23415706.8204                   23415706.4534
  -3559356.83247  -2761131.54244  23820457.7734                   23820459.0354
 11  8 20  0 27  0.0000000  0  9G17G10G09G12G05G02G04G30G25
 -31454558.55147 -24493874.94444  23183308.6174                   23183308.5394
 -28459130.10948 -22161762.48546  20774874.7504                   20774872.6914
 -12982239.48047 -10100178.23444  23719523.3284                   23719524.1454
 -22888404.78147 -17819888.74646  21189054.5474                   21189051.8284
 -18979146.77747 -14773143.27646  21621924.0004                   21621923.0864
 -32479410.06647 -25292674.84246  20507127.9534                   20507124.0314
 -30935490.09048 -24088509.06645  21780445.3834                   21780444.6644
  -4358847.19547  -3384221.35044  23391339.0554                   23391338.1844
  -3689601.22747  -2862620.65844  23795672.4844                   23795674.4304
 11  8 20  0 27 30.0000000  0  9G17G10G09G12G05G02G04G30G25
 -31433197.88347 -24477230.31144  23187374.0474                   23187372.9574
 -28482907.77348 -22180290.52546  20770349.5944                   20770347.9264
 -12935310.86347 -10063610.59144  23728452.7424                   23728454.1884
 -22975987.95748 -17888135.36946  21172388.1094                   21172385.6254
 -19097156.61347 -14865098.92846  21599467.3134                   21599466.2774
 -32508353.74247 -25315228.33147  20501620.0314                   20501616.1024
 -30889856.55148 -24052950.48345  21789129.3524                   21789128.1374
  -4486607.45347  -3483774.77944  23367027.2814                   23367026.1094
  -3819644.01247  -2963952.62944  23770926.2274                   23770928.0314
 11  8 20  0 28  0.0000000  0  9G17G10G09G12G05G02G04G30G25
 -31411676.96146 -24460460.83044  23191469.6414                   23191468.8554
 -28506057.80148 -22198329.51146  20765944.6884                   20765942.6564
 -12888262.69547 -10026949.79644  23737405.7114                   23737407.8054
 -23063118.11748 -17956028.99546  21155807.4774                   21155805.4734
 -19214825.28547 -14956788.74246  21577075.9064                   21577074.9924
 -32537028.76247 -25337572.49746  20496163.3914                   20496159.3594
 -30844117.49648 -24017309.68245  21797833.2114                   21797832.2304
  -4614074.20347  -3583099.47344  23342771.0164                   23342770.1334
  -3949485.03547  -3065127.41944  23746218.3444                   23746220.0234
 11  8 20  0 28 30.0000000  0  9G17G10G09G12G05G02G04G30G25
 -31389991.79347 -24443563.34544  23195595.8134                   23195595.1174
 -28528576.83648 -22215876.78946  20761659.1094                   20761657.5434
 -12841094.64147  -9990195.51944  23746381.3914                   23746383.1684
 -23149789.17647 -18023564.88046  21139314.7504                   21139312.5904
 -19332146.46947 -15048207.79246  21554750.2814                   21554749.6174
 -32565432.96947 -25359705.63647  20490758.2274                   20490754.1564
 -30798270.87148 -23981585.05545  21806557.4774                   21806556.3284
  -4741241.02347  -3682190.47644  23318571.7664                   23318570.7114
  -4079117.91447  -3166139.96244  23721550.2194                   23721551.6454
 11  8 20  0 29  0.0000000  0  9G17G10G09G12G05G02G04G30G25
 -31368139.96146 -24426535.97044  23199754.1724                   23199753.0704
 -28550463.49248 -22232931.31846  20757494.1954                   20757492.3204
 -12793808.36747  -9953349.19044  23755380.3134                   23755382.3914
 -23235998.05947 -18090740.64246  21122909.5394                   21122907.3404
 -19449115.53947 -15139352.46046  21532491.6884                   21532491.0164
 -32593565.36747 -25381626.97747  20485404.7344                   20485401.0394
 -30752317.02348 -23945776.88345  21815302.5234                   21815301.1724
  -4868103.34847  -3781044.21044  23294430.8834                   23294429.5474
  -4208538.47747  -3266987.13444  23696922.4614                   23696923.7194
 11  8 20  0 29 30.0000000  0  9G17G10G09G12G05G02G04G30G25
 -29770703.67647 -23181780.49644  23503736.1174                   23503735.2304
 -26996299.65648 -21021894.54546  21053241.6804                   21053239.7234
 -11170990.77746  -8688816.05744  24064192.1414                   24064194.1214
 -21746321.39847 -16929953.63046  21406385.7814                   21406383.2424
 -17990308.05947 -14002619.30846  21810093.5474                   21810092.6994
 -31046008.34848 -24175738.38546  20779895.1954                   20779891.0594
 -29130841.43047 -22682289.42645  22123858.8834                   22123857.9144
  -3419236.20347  -2652056.78144  23570141.1334                   23570139.1604
  -2762321.68047  -2140064.90344  23972127.8054                   23972129.4804
 11  8 20  0 30  0.0000000  0  9G17G10G09G12G05G02G04G30G25
 -29748524.13747 -23164497.79544  23507957.6174                   23507955.9614
 -27016929.98848 -21037970.12546  21049316.2194                   21049314.3014
 -11123485.19147  -8651798.82844  24073232.6724                   24073234.2974
 -21831605.80547 -16996409.00646  21390156.6954                   21390153.9654
 -18106572.36347 -14093214.79946  21787969.0004                   21787968.6134
 -31073608.15648 -24197244.71646  20774642.9614                   20774639.3594
 -29084686.11348 -22646324.26745  22132642.3524                   22132641.4884
  -3545488.47347  -2750435.14044  23546116.2034                   23546114.7934
  -2891316.87547  -2240580.56244  23947581.1804                   23947583.1174
 11  8 20  0 30 30.0000000  0  9G17G10G09G12G05G02G04G30G25
 -29726177.64547 -23147085.00144  23512209.3914                   23512208.3404
 -27036930.01248 -21053554.54346  21045509.6724                   21045508.4774
 -11075872.65647  -8614698.26444  24082292.3834                   24082294.9734
 -21916422.60548 -17062500.02146  21374017.0234                   21374014.4104
 -18222477.86747 -14183530.72546  21765913.0554                   21765912.1054
 -31100941.06247 -24218543.09447  20769441.8594                   20769437.5704
 -29038430.33248 -22610280.81745  22141444.4534                   22141442.9144
  -3671428.98847  -2848570.54244  23522150.1724                   23522149.9574
  -3020092.86347  -2340925.45644  23923075.5944                   23923077.4344
 11  8 20  0 31  0.0000000  0  9G17G10G09G12G05G02G04G30G25
 -29703666.46547 -23129543.87744  23516493.1484                   23516491.9734
 -27056303.06248 -21068650.40446  21041823.4694                   21041822.0084
 -11028159.54746  -8577519.32444  24091371.8834                   24091374.4654
 -22000772.76647 -17128227.41146  21357965.1334                   21357962.9884
 -18338024.91447 -14273567.32546  21743924.9224                   21743924.0984
 -31128011.63348 -24239637.03946  20764290.2194                   20764286.6484
 -28992079.01647 -22574162.91845  22150264.6564                   22150263.3134
  -3797058.07847  -2946463.28444  23498243.5004                   23498243.1254
  -3148650.16047  -2441099.93545  23898611.8834                   23898613.3484
 11  8 20  0 31 30.0000000  0  9G17G10G09G12G05G02G04G30G25
 -29680985.97747 -23111870.81944  23520808.7814                   23520808.6294
 -27075045.20348 -21083254.65746  21038256.7114                   21038255.3554
 -10980344.90646  -8540261.27344  24100471.0004                   24100472.9344
 -22084649.44148 -17193585.85146  21342004.0944                   21342001.7974
 -18453206.06647 -14363318.80846  21722006.7814                   21722005.7114
 -31154816.57048 -24260523.98146  20759189.6024                   20759185.2894
 -28945629.50047 -22537968.50945  22159103.5554                   22159102.2974
  -3922368.44547  -3044107.70344  23474398.4304                   23474397.5664
  -3276981.67247  -2541098.49444  23874191.8674                   23874192.4534
 11  8 20  0 32  0.0000000  0  9G17G10G09G12G05G02G04G30G25
 -29658134.48847 -23094064.48844  23525158.3674                   23525157.1214
 -27093155.64548 -21097366.67746  21034810.7734                   21034809.2154
 -10932430.58646  -8502925.54644  24109588.7194                   24109591.0704
 -22168049.46548 -17258572.87646  21326133.4694                   21326131.2344
 -18568017.58647 -14452782.27646  21700158.8364                   21700158.2234
 -31181355.33248 -24281203.53346  20754139.6484                   20754135.0314
 -28899082.27047 -22501697.96245  22167961.4614                   22167959.8954
  -4047356.01647  -3141500.55644  23450613.5554                   23450612.9964
  -3405083.38347  -2640917.98344  23849814.7814                   23849815.2734
 11  8 20  0 32 30.0000000  0  9G17G10G09G12G05G02G04G30G25
 -29635113.37947 -23076126.01944  23529539.2194                   23529537.7344
 -27110636.84048 -21110988.36946  21031484.3754                   21031482.5664
 -10884421.66846  -8465516.09344  24118724.9384                   24118726.4964
 -22250972.69148 -17323188.36046  21310353.4384                   21310351.3794
 -18682458.37547 -14541956.86646  21678381.5864                   21678380.3324
 -31207631.77048 -24301678.67446  20749139.0944                   20749135.0664
 -28852441.01247 -22465354.13945  22176836.7974                   22176835.5434
  -4172019.84847  -3238641.15744  23426890.5314                   23426889.9734
  -3532954.60247  -2740557.84844  23825481.7114                   23825482.5634
 11  8 20  0 33  0.0000000  0  9G17G10G09G12G05G02G04G30G25
 -29611923.90247 -23058056.37944  23533951.7424                   23533949.8634
 -27127491.30148 -21124121.70546  21028276.8284                   21028275.1684
 -10836323.54347  -8428037.16844  24127877.9304                   24127879.8244
 -22333418.91048 -17387432.15346  21294664.7424                   21294662.5084
 -18796527.89548 -14630842.14246  21656674.7814                   21656673.5124
 -31233648.60248 -24321951.51546  20744188.4064                   20744184.2154
 -28805709.65247 -22428940.13445  22185729.3364                   22185728.8984
  -4296359.15646  -3335528.85844  23403229.9384                   23403229.0044
  -3660594.71147  -2840017.62944  23801192.2974                   23801193.5314
 11  8 20  0 33 30.0000000  0  9G17G10G09G12G05G02G04G30G25
 -29588564.38747 -23039854.23545  23538396.7584                   23538396.1884
 -27143717.83648 -21136765.72446  21025188.9924                   21025187.4224
 -10788138.18747  -8390490.22544  24137047.4844                   24137049.4184
 -22415384.58648 -17451301.49946  21279067.2664                   21279064.9304
 -18910222.15648 -14719435.01646  21635039.6024                   21635038.2114
 -31259405.59848 -24342021.88047  20739287.2814                   20739282.9304
 -28758888.34447 -22392456.00845  22194639.2424                   22194637.8834
  -4420369.76246  -3432160.40844  23379631.6804                   23379630.0554
  -3787999.49647  -2939294.02244  23776947.8444                   23776948.8324
 11  8 20  0 34  0.0000000  0  9G17G10G09G12G05G02G04G30G25
 -29565040.49247 -23021523.96044  23542873.4844                   23542872.6724
 -27159323.02048 -21148925.59346  21022219.5554                   21022217.7344
 -10739875.06646  -8352882.71944  24146230.8594                   24146233.9144
 -22496873.94948 -17514799.70346  21263560.2504                   21263558.0274
 -19023544.32047 -14807737.94946  21613475.1174                   21613473.8484
 -31284910.00448 -24361895.45046  20734434.1094                   20734429.5274
 -28711985.12547 -22355908.06345  22203564.3364                   22203563.6764
  -4544054.90646  -3528538.37244  23356095.0864                   23356093.4774
  -3915172.44547  -3038389.74744  23752747.3444                   23752748.9694
 11  8 20  0 34 30.0000000  0  9G17G10G09G12G05G02G04G30G25
 -29541348.31647 -23003062.59044  23547381.9304                   23547381.2464
 -27174304.62548 -21160599.55046  21019368.7114                   21019366.4534
 -10691534.53146  -8315214.86243  24155430.5634                   24155432.6454
 -22577881.84448 -17577922.72746  21248145.0394                   21248142.9264
 -19136489.13347 -14895746.84646  21591982.0234                   21591980.8754
 -31310160.28548 -24381570.98246  20729628.6724                   20729624.4534
 -28664998.61347 -22319295.24545  22212505.9304                   22212504.7384
  -4667408.78147  -3624658.22044  23332621.5084                   23332620.0004
  -4042107.81647  -3137300.40044  23728592.6414                   23728593.7034
 11  8 20  0 35  0.0000000  0  9G17G10G09G12G05G02G04G30G25
 -29517485.55147 -22984468.28944  23551922.6094                   23551921.8954
 -27188661.41448 -21171786.64346  21016636.5864                   21016634.7544
 -10643118.24246  -8277488.05943  24164643.3444                   24164645.3054
 -22658404.72348 -17640667.80846  21232821.7274                   21232819.6994
 -19249052.23848 -14983458.29346  21570561.9694                   21570561.0234
 -31335156.07848 -24401048.20047  20724872.1414                   20724868.0554
 -28617928.97747 -22282617.61245  22221462.9304                   22221461.6884
  -4790426.94147  -3720516.44344  23309211.7034                   23309211.2074
  -4168801.41447  -3236022.59644  23704483.4384                   23704485.1644
 11  8 20  0 35 30.0000000  0  9G17G10G09G12G05G02G04G30G25
 -29493454.74647 -22965743.04144  23556495.6564                   23556495.2424
 -27202395.89148 -21182488.80446  21014022.7194                   21014021.3094
 -10594631.21446  -8239706.00743  24173870.6484                   24173872.4734
 -22738442.71548 -17703035.07146  21217591.0004                   21217589.1764
 -19361232.49648 -15070871.43246  21549214.8914                   21549213.3054
 -31359900.39548 -24420329.47446  20720163.5084                   20720159.1684
 -28570779.95747 -22245878.16645  22230435.1254                   22230434.5314
  -4913108.54347  -3816112.43544  23285866.2664                   23285864.4344
  -4295252.43747  -3334555.81544  23680420.5084                   23680421.8524
 11  8 20  0 36  0.0000000  0  9G17G10G09G12G05G02G04G30G25
 -29469249.17246 -22946881.61344  23561101.8674                   23561101.0434
 -27215503.16848 -21192702.25046  21011528.6174                   21011526.9384
 -10546071.15646  -8201867.15843  24183111.1334                   24183112.5944
 -22817988.10248 -17765018.47446  21202453.9224                   21202451.8874
 -19473022.22348 -15157980.24446  21527942.1414                   21527940.4454
 -31384388.70748 -24439411.27346  20715503.4614                   20715499.4264
 -28523547.55547 -22209073.70545  22239423.1724                   22239422.2584
  -5035445.27747  -3911439.76244  23262586.5864                   23262585.2504
  -4421452.69147  -3432893.60645  23656405.6334                   23656406.5984
 11  8 20  0 36 30.0000000  0  9G17G10G09G12G05G02G04G30G25
 -29444872.11347 -22927886.57144  23565740.9064                   23565740.0164
 -27227987.85548 -21202430.57446  21009152.7424                   21009151.2194
 -10497445.29746  -8163976.93743  24192365.1174                   24192366.0944
 -22897042.88748 -17826619.60046  21187410.6024                   21187408.1414
 -19584422.46948 -15244785.57746  21506742.7504                   21506741.9494
 -31408626.15648 -24458297.58347  20710891.1954                   20710886.7274
 -28476237.42647 -22172208.70345  22248426.2424                   22248425.0944
  -5157438.22747  -4006499.14644  23239371.6414                   23239370.0514
  -4547403.37147  -3531036.94544  23632437.3674                   23632438.7934
 11  8 20  0 37  0.0000000  0  9G17G10G09G12G05G02G04G30G25
 -29420324.14147 -22908758.39044  23570412.1954                   23570411.6564
 -27239851.06648 -21211674.61746  21006895.3364                   21006893.8954
 -10448757.37146  -8126038.39744  24201630.0234                   24201632.0784
 -22975605.37148 -17887837.10146  21172460.5004                   21172458.2704
 -19695431.18448 -15331285.82146  21485618.6724                   21485617.7424
 -31432614.76248 -24476990.00046  20706326.4064                   20706321.9024
 -28428851.77347 -22135284.83845  22257443.3054                   22257442.5704
  -5279085.07047  -4101288.86844  23216223.4304                   23216222.1524
  -4673102.27347  -3628984.07845  23608518.5704                   23608518.9264
 11  8 20  0 37 30.0000000  0  9G17G10G09G12G05G02G04G30G25
 -29395607.51246 -22889498.72544  23575114.9064                   23575114.7814
 -27251096.29748 -21220437.12246  21004755.5314                   21004753.7034
 -10400013.61347  -8088056.39744  24210905.6644                   24210907.5354
 -23053676.73848 -17948671.92746  21157604.0164                   21157601.9654
 -19806048.93748 -15417481.42446  21464568.9534                   21464567.7384
 -31456358.39548 -24495491.53346  20701807.9614                   20701804.1804
 -28381395.39147 -22098305.87645  22266473.9694                   22266472.5434
  -5400385.99246  -4195809.03544  23193140.4064                   23193139.5904
  -4798549.71547  -3726735.26245  23584646.4384                   23584647.9924
 11  8 20  0 38  0.0000000  0  9G17G10G09G12G05G02G04G30G25
 -29370716.43446 -22870103.17344  23579852.1884                   23579850.9574
 -27261719.18048 -21228714.67646  21002734.1254                   21002732.2384
 -10351211.98846  -8050029.25144  24220193.2504                   24220194.3014
 -23131249.71548 -18009118.40546  21142842.2974                   21142839.9184
 -19916267.60248 -15503366.04346  21443595.1094                   21443593.8794
 -31479852.97348 -24513798.99046  20697337.1174                   20697333.1564
 -28333864.33647 -22061268.71945  22275519.0474                   22275517.7854
  -5521332.92247  -4290053.37944  23170124.5164                   23170123.4184
  -4923737.62947  -3824284.23644  23560823.6254                   23560824.2274
 11  8 20  0 38 30.0000000  0  9G17G10G09G12G05G02G04G30G25
 -29345652.69946 -22850573.05744  23584620.9924                   23584621.7154
 -27271723.03548 -21236509.86946  21000830.2114                   21000828.5594
 -10302358.18046  -8011961.40343  24229488.3204                   24229490.2114
 -23208324.86748 -18069176.95146  21128175.6484                   21128172.9924
 -20026086.83248 -15588939.41946  21422696.9224                   21422696.1564
 -31503101.97748 -24531915.09447  20692912.8524                   20692908.8404
 -28286262.84047 -22024176.67345  22284577.3134                   22284576.4184
  -5641925.30547  -4384021.47544  23147176.8754                   23147174.9614
  -5048665.68447  -3921630.71845  23537050.5704                   23537051.9694
 11  8 20  0 39  0.0000000  0  9G17G10G09G12G05G02G04G30G25
 -29320415.83246 -22830908.01844  23589424.2814                   23589423.4774
 -27281108.43748 -21243823.14946  20999044.1094                   20999042.6764
 -10253455.12146  -7973855.20043  24238794.5084                   24238796.1644
 -23284900.21548 -18128846.04846  21113603.8284                   21113601.4184
 -20135503.88748 -15674199.41046  21401875.7114                   21401874.1994
 -31526106.79348 -24549840.93746  20688535.2344                   20688531.1414
 -28238592.39847 -21987030.89545  22293648.4844                   22293647.3404
  -5762160.26247  -4477710.99444  23124296.7274                   23124295.4844
  -5173331.04347  -4018772.52645  23513327.9224                   23513328.8014
 11  8 20  0 39 30.0000000  0  9G17G10G09G12G05G02G04G30G25
 -29295006.39546 -22811108.50244  23594259.7034                   23594259.1914
 -27289877.25048 -21250655.97546  20997375.4774                   20997373.8054
 -10204507.41047  -7935714.26343  24248108.9694                   24248110.8284
 -23360975.07048 -18188125.16146  21099127.1254                   21099124.7854
 -20244517.26248 -15759144.85246  21381130.8834                   21381129.3634
 -31548869.94148 -24567578.44646  20684203.5704                   20684199.5044
 -28190855.77347 -21949833.56645  22302732.6564                   22302730.9774
  -5882036.34847  -4571120.90144  23101485.4614                   23101484.4614
  -5297732.34847  -4115708.61944  23489654.4384                   23489654.8984
 11  8 20  0 40  0.0000000  0  9G17G10G09G12G05G02G04G30G25
 -29269427.55546 -22791177.02644  23599126.9844                   23599126.4454
 -27298033.74248 -21257011.68046  20995823.6804                   20995821.7664
 -10155521.41047  -7897543.38043  24257431.7034                   24257432.9734
 -23436550.79748 -18247015.33846  21084745.3284                   21084743.2384
 -20353128.26248 -15843776.73846  21360462.6254                   21360461.9144
 -31571395.84448 -24585131.10046  20679917.1954                   20679912.9804
 -28143058.21947 -21912588.74345  22311828.2424                   22311827.3834
  -6001554.10247  -4664251.61044  23078741.1024                   23078739.8094
  -5421870.17647  -4212439.35544  23466032.0234                   23466033.1804
 11  8 20  0 40 30.0000000  0  9G17G10G09G12G05G02G04G30G25
 -29243670.05946 -22771106.29544  23604028.0554                   23604028.0634
 -27305570.14848 -21262884.18146  20994389.1954                   20994387.7424
 -10106491.87547  -7859338.63843  24266761.6334                   24266762.7114
 -23511616.82848 -18305508.34146  21070460.9844                   21070458.5234
 -20461325.60248 -15928086.29546  21339873.3834                   21339872.7154
 -31593676.62548 -24602492.74547  20675677.3364                   20675672.9884
 -28095192.47347 -21875290.78045  22320937.1094                   22320935.6954
  -6120702.19947  -4757094.23844  23056068.2194                   23056068.0274
  -5545733.27047  -4308956.04345  23442462.2114                   23442462.6254
 11  8 20  0 41  0.0000000  0  9G17G10G09G12G05G02G04G30G25
 -29217741.74646 -22750902.44244  23608962.5704                   23608962.0394
 -27312495.23848 -21268280.35446  20993071.4614                   20993069.8754
 -10057430.14147  -7821108.78443  24276097.3674                   24276098.6724
 -23586179.46148 -18363609.09446  21056272.1334                   21056269.7544
 -20569114.50048 -16012077.59746  21319361.9304                   21319361.2344
 -31615721.64548 -24619670.68647  20671482.0944                   20671478.0514
 -28047268.03147 -21837947.08145  22330056.7584                   22330055.4734
  -6239485.49647  -4849652.60744  23033464.7734                   23033463.6214
  -5669326.68747  -4405262.56745  23418942.7814                   23418944.1254
 11  8 20  0 41 30.0000000  0  9G17G10G09G12G05G02G04G30G25
 -29191640.95746 -22730564.23044  23613929.7894                   23613928.8594
 -27318808.95748 -21273200.11946  20991869.9844                   20991868.4224
 -10008338.03547  -7782855.30243  24285439.6414                   24285440.8094
 -23660235.72748 -18421315.27146  21042179.5554                   21042177.2504
 -20676491.59848 -16095748.01546  21298928.6564                   21298927.5354
 -31637531.18448 -24636665.13946  20667332.0004                   20667327.9224
 -27999285.52047 -21800558.13845  22339186.8524                   22339186.3404
  -6357900.63747  -4941924.12044  23010931.7194                   23010930.0084
  -5792646.85947  -4501356.19144  23395475.4384                   23395476.9024
 11  8 20  0 42  0.0000000  0  9G17G10G09G12G05G02G04G30G25
 -29165366.79346 -22710090.89444  23618929.2424                   23618928.6994
 -27324511.88348 -21277643.93946  20990784.7894                   20990783.0434
  -9959218.30946  -7744580.29343  24294786.2814                   24294788.2344
 -23733783.50848 -18478625.22846  21028184.1804                   21028181.5634
 -20783453.54348 -16179094.92346  21278574.6174                   21278573.3324
 -31659106.17648 -24653476.80947  20663226.4384                   20663222.1334
 -27951246.05947 -21763124.81545  22348328.7664                   22348327.9614
  -6475944.12147  -5033906.02544  22988468.4614                   22988467.2074
  -5915690.64847  -4597234.41744  23372060.7974                   23372062.8404
 11  8 20  0 42 30.0000000  0  9G17G10G09G12G05G02G04G30G25
 -29138914.12946 -22689478.47144  23623963.0634                   23623962.8714
 -27329600.14848 -21281608.81846  20989816.4774                   20989814.6374
  -9910069.49246  -7706282.63543  24304138.7734                   24304141.7854
 -23806816.27048 -18535533.87646  21014286.6564                   21014284.0394
 -20889993.50448 -16262113.04046  21258300.5164                   21258299.4964
 -31680442.99248 -24670102.90046  20659166.1724                   20659162.1484
 -27903146.48047 -21725644.64745  22357481.8364                   22357481.3284
  -6593608.60947  -5125592.60044  22966077.4614                   22966076.5784
  -6038450.54747  -4692891.44544  23348700.5394                   23348701.4574
 11  8 20  0 43  0.0000000  0  9G17G10G09G12G05G02G04G30G25
 -29112284.70746 -22668728.32344  23629030.3444                   23629029.8834
 -27334076.55147 -21285096.92446  20988964.6414                   20988963.0864
  -9860897.08246  -7667966.54043  24313496.8204                   24313498.7584
 -23879334.14148 -18592041.29846  21000486.5634                   21000484.0204
 -20996110.78148 -16344801.76846  21238107.2814                   21238105.8134
 -31701544.98848 -24686546.02146  20655150.5394                   20655146.3754
 -27854990.44947 -21688120.51445  22366646.1484                   22366644.6804
  -6710893.33247  -5216983.22044  22943758.4924                   22943757.5354
  -6160925.95347  -4788326.75144  23325393.9534                   23325395.8834
 11  8 20  0 43 30.0000000  0  9G17G10G09G12G05G02G04G30G25
 -29085484.16046 -22647844.81444  23634130.5004                   23634130.0204
 -27337948.52048 -21288114.02746  20988227.9384                   20988226.3874
  -9811709.94946  -7629639.01943  24322855.9454                   24322859.4574
 -23951341.61348 -18648151.01746  20986783.9144                   20986781.4734
 -21101809.30548 -16427164.20346  21217993.2664                   21217992.1054
 -31722418.96948 -24702811.44446  20651178.1884                   20651174.2624
 -27806785.70347 -21650558.38945  22375818.8914                   22375817.5704
  -6827801.84847  -5308080.74444  22921511.7894                   22921510.9924
  -6283120.35547  -4883543.13944  23302141.0394                   23302141.9614
 11  8 20  0 44  0.0000000  0  9G17G10G09G12G05G02G04G30G25
 -29058508.91846 -22626825.17944  23639263.3204                   23639263.0314
 -27341214.01248 -21290658.55746  20987606.6484                   20987605.1254
  -9762507.93746  -7591299.99643  24332219.9224                   24332222.5744
 -24022833.90248 -18703859.27646  20973179.5634                   20973176.9144
 -21207083.39548 -16509195.91546  21197960.4924                   21197959.4024
 -31743063.21148 -24718897.85646  20647250.0944                   20647246.0314
 -27758530.53947 -21612956.96445  22385001.8524                   22385000.2584
  -6944328.13747  -5398880.37144  22899337.3984                   22899336.8754
  -6405027.81247  -4978535.93545  23278942.8984                   23278944.7194
 11  8 20  0 44 30.0000000  0  9G17G10G09G12G05G02G04G30G25
 -29031356.52046 -22605667.54244  23644431.5554                   23644430.6484
 -27343871.64148 -21292729.42746  20987100.7974                   20987098.8874
  -9713292.53946  -7552950.42144  24341585.1644                   24341588.1844
 -24093807.31648 -18759163.23446  20959674.1334                   20959671.5864
 -21311928.68448 -16590893.50446  21178008.5634                   21178007.8364
 -31763476.96548 -24734804.67446  20643365.0864                   20643361.1524
 -27710224.17647 -21575315.67045  22394193.9534                   22394192.7854
  -7060467.35947  -5489378.42845  22877237.0554                   22877235.7814
  -6526643.60947  -5073301.43245  23255800.6954                   23255801.4734
 11  8 20  0 45  0.0000000  0  9G17G10G09G12G05G02G04G30G25
 -29004027.30146 -22584372.07244  23649631.2974                   23649630.8524
 -27345923.68747 -21294328.43146  20986710.2504                   20986708.5474
  -9664067.64146  -7514593.48444  24350952.5084                   24350955.0124
 -24164260.68748 -18814061.95046  20946266.8674                   20946264.3714
 -21416343.38348 -16672255.55146  21158139.3364                   21158137.9384
 -31783661.96148 -24750533.23446  20639524.3284                   20639520.1604
 -27661869.16847 -21537636.46345  22403395.7584                   22403394.9844
  -7176217.63347  -5579573.37545  22855210.2894                   22855209.4104
  -6647965.78547  -5167838.12145  23232713.5474                   23232714.4104
 11  8 20  0 45 30.0000000  0  9G17G10G09G12G05G02G04G30G25
 -28976520.00846 -22562937.87344  23654865.4694                   23654865.5314
 -27347370.47347 -21295455.78546  20986434.9694                   20986433.2154
  -9614835.35246  -7476230.81444  24360320.5234                   24360323.8164
 -24234191.43448 -18868553.42946  20932959.6884                   20932957.0004
 -21520324.10948 -16753279.44746  21138352.7974                   21138351.2384
 -31803618.94548 -24766084.12246  20635726.9064                   20635722.6604
 -27613466.12947 -21499919.81245  22412606.2664                   22412604.7384
  -7291575.33647  -5669462.48545  22833259.0554                   22833257.6564
  -6768990.77747  -5262143.27645  23209683.1414                   23209684.3134
 11  8 20  0 46  0.0000000  0  9G17G10G09G12G05G02G04G30G25
 -28948833.49246 -22541364.01044  23660134.9224                   23660133.9734
 -27348212.11747 -21296111.60946  20986274.9774                   20986273.2974
  -9565598.09046  -7437864.24144  24369690.7894                   24369693.2664
 -24303597.35548 -18922635.95846  20919751.8284                   20919749.4494
 -21623867.51248 -16833962.57746  21118648.9694                   21118647.6684
 -31823348.12548 -24781457.50746  20631972.3364                   20631968.0314
 -27565015.67647 -21462166.23445  22421826.2584                   22421825.0204
  -7406536.96547  -5759042.92544  22811381.6174                   22811380.8914
  -6889715.04347  -5356214.06645  23186709.9534                   23186712.1884
 11  8 20  0 46 30.0000000  0  9G17G10G09G12G05G02G04G30G25
 -28920965.64146 -22519648.87044  23665437.3204                   23665437.5904
 -27348448.24248 -21296295.59646  20986230.0634                   20986227.9574
  -9516357.11746  -7399494.80844  24379061.5784                   24379064.1764
 -24372474.90648 -18976306.75546  20906645.1024                   20906642.7114
 -21726969.95748 -16914302.10246  21099028.9454                   21099027.5394
 -31842849.12148 -24796653.05946  20628261.3834                   20628257.0554
 -27516517.63747 -21424375.55345  22431055.2504                   22431053.9614
  -7521098.19147  -5848311.37544  22789581.5314                   22789580.6844
  -7010134.37947  -5450047.25645  23163795.0864                   23163796.0704
 11  8 20  0 47  0.0000000  0  9G17G10G09G12G05G02G04G30G25
 -28892921.25846 -22497796.15244  23670773.5554                   23670774.2974
 -27348085.15648 -21296012.68146  20986298.8594                   20986297.0204
  -9467120.92646  -7361129.05044  24388430.7894                   24388433.5314
 -24440827.43748 -19029568.47046  20893638.0864                   20893635.7034
 -21829633.91448 -16994299.93446  21079493.0314                   21079491.2734
 -31862127.86348 -24811675.44146  20624592.8444                   20624588.5434
 -27467978.73847 -21386553.05245  22440291.8914                   22440290.9774
  -7635261.56647  -5937269.82644  22767856.9454                   22767856.3054
  -7130251.24647  -5543644.78545  23140937.9924                   23140939.4804
 11  8 20  0 47 30.0000000  0  9G17G10G09G12G05G02G04G30G25
 -28864696.04346 -22475802.53244  23676145.5704                   23676145.3244
 -27347120.00448 -21295260.62146  20986482.9144                   20986481.0984
  -9417888.60946  -7322766.34144  24397799.2974                   24397801.7544
 -24508649.70748 -19082416.97846  20880731.5394                   20880729.5664
 -21931852.83648 -17073950.99846  21060040.9384                   21060039.8714
 -31881181.94148 -24826522.75247  20620966.9064                   20620962.5234
 -27419396.23847 -21348696.56145  22449536.3134                   22449536.1214
  -7749020.34847  -6025912.95944  22746208.7424                   22746207.9104
  -7250058.77747  -5637001.24145  23118138.9774                   23118139.5274
 11  8 20  0 48  0.0000000  0  9G17G10G09G12G05G02G04G30G25
 -28836291.89146 -22453669.50344  23681551.2734                   23681550.3834
 -27345556.29748 -21294042.14346  20986780.2274                   20986778.5784
  -9368665.53146  -7284410.77444  24407166.2194                   24407169.1954
 -24575942.31648 -19134852.76646  20867926.4614                   20867924.0394
 -22033626.96148 -17153255.46046  21040674.2734                   21040672.5234
 -31900014.37148 -24841197.35246  20617383.1334                   20617379.1294
 -27370773.86747 -21310809.01145  22458788.9534                   22458788.3134
  -7862373.94547  -6114240.38344  22724639.1094                   22724637.5474
  -7369556.62147  -5730116.39945  23095398.9384                   23095400.5204
 11  8 20  0 48 30.0000000  0  9G17G10G09G12G05G02G04G30G25
 -28807712.04746 -22431399.53644  23686988.8914                   23686988.8554
 -27343399.34448 -21292361.41246  20987190.6564                   20987188.7704
  -9319458.24246  -7246067.58044  24416530.4224                   24416532.7114
 -24642707.30148 -19186877.41646  20855221.8054                   20855219.0594
 -22134957.93048 -17232214.61746  21021391.6644                   21021390.3054
 -31918630.00448 -24855703.02946  20613840.4064                   20613836.4184
 -27322116.91047 -21272894.51445  22468048.6954                   22468047.1214
  -7975323.53547  -6202253.01544  22703144.8914                   22703143.7584
  -7488745.83647  -5822991.07045  23072717.8054                   23072719.4734
 11  8 20  0 49  0.0000000  0  9G17G10G09G12G05G02G04G30G25
 -28778952.90246 -22408989.83844  23692461.9774                   23692462.3714
 -27340647.12148 -21290216.82846  20987714.2734                   20987712.4884
  -9270266.68046  -7207736.60043  24425891.0084                   24425893.9654
 -24708939.89548 -19238487.22046  20842617.9144                   20842615.2974
 -22235839.47348 -17310823.55846  21002194.4454                   21002192.7154
 -31937027.50448 -24870038.74046  20610339.6024                   20610335.5164
 -27273423.36347 -21234951.50545  22477314.1094                   22477313.0004
  -8087863.10247  -6289946.13444  22681729.2034                   22681727.7384
  -7607620.41447  -5915620.54445  23050096.8984                   23050098.2894
 11  8 20  0 49 30.0000000  0  9G17G10G09G12G05G02G04G30G25
 -28750014.75846 -22386440.75344  23697968.4384                   23697968.6524
 -27337301.05148 -21287609.49446  20988351.1724                   20988349.6414
  -9221094.12946  -7169420.43143  24435249.0554                   24435251.4534
 -24774638.84848 -19289681.20046  20830115.4844                   20830113.2894
 -22336269.59048 -17389080.74846  20983083.2194                   20983081.6334
 -31955207.85248 -24884205.21846  20606879.9304                   20606875.9924
 -27224695.01647 -21196981.38045  22486587.0164                   22486586.4804
  -8199990.37147  -6377317.99044  22660391.9844                   22660391.0434
  -7726177.95747  -6008003.01345  23027535.8054                   23027536.3204
 11  8 20  0 50  0.0000000  0  9G17G10G09G12G05G02G04G30G25
 -28720894.25446 -22363749.44444  23703509.7344                   23703510.5354
 -27333359.64848 -21284538.26646  20989101.0164                   20989099.2074
  -9171941.07846  -7131119.46743  24444601.9384                   24444604.4774
 -24839800.13348 -19340456.21846  20817715.9454                   20817713.4844
 -22436243.82848 -17466982.70946  20964058.3444                   20964056.9804
 -31973169.39148 -24898201.21647  20603462.1484                   20603458.0394
 -27175930.52347 -21158983.10545  22495866.8134                   22495865.7894
  -8311699.92647  -6464364.33944  22639134.8914                   22639133.5594
  -7844413.19547  -6100134.33345  23005036.9614                   23005038.9224
 11  8 20  0 50 30.0000000  0  9G17G10G09G12G05G02G04G30G25
 -28691588.78147 -22340914.07544  23709087.0314                   23709087.0864
 -27328822.48048 -21281002.82346  20989964.5084                   20989962.8524
  -9122808.37946  -7092834.41243  24453951.7664                   24453954.7934
 -24904419.78548 -19390809.17846  20805419.0164                   20805416.8834
 -22535757.90248 -17544526.09746  20945121.8134                   20945120.1804
 -31990911.25048 -24912026.02846  20600085.9304                   20600081.7464
 -27127129.21547 -21120956.11745  22505153.4614                   22505152.3874
  -8422987.21547  -6551081.63845  22617957.5394                   22617957.0204
  -7962321.29747  -6192010.70445  22982599.4224                   22982600.2584
 11  8 20  0 51  0.0000000  0  9G17G10G09G12G05G02G04G30G25
 -28662105.87547 -22317940.41944  23714697.5164                   23714697.1454
 -27323698.55148 -21277010.14446  20990939.4224                   20990937.9494
  -9073706.68446  -7054573.40643  24463295.0314                   24463297.6914
 -24968504.38348 -19440745.23046  20793224.5234                   20793221.7934
 -22634817.00848 -17621714.97046  20926271.2734                   20926269.8554
 -32008442.62148 -24925686.83247  20596749.8524                   20596745.7894
 -27078300.20347 -21082907.59045  22514445.2114                   22514444.4694
  -8533857.22347  -6637473.80444  22596859.0944                   22596857.8834
  -8079907.35247  -6283636.15345  22960223.6254                   22960224.7234
 11  8 20  0 51 30.0000000  0  9G17G10G09G12G05G02G04G30G25
 -28632445.01646 -22294828.07144  23720341.6484                   23720341.4024
 -27317988.86748 -21272561.04246  20992026.2974                   20992024.2464
  -9024638.60246  -7016338.71443  24472633.2584                   24472635.7974
 -25032051.87548 -19490262.74146  20781132.0004                   20781129.3634
 -22733418.45348 -17698547.21946  20907507.5234                   20907506.3324
 -32025764.14848 -24939184.11246  20593453.9224                   20593449.2704
 -27029444.35247 -21044838.11944  22523742.3054                   22523741.2894
  -8644306.91447  -6723538.48145  22575842.1414                   22575840.3164
  -8197168.30947  -6375008.27645  22937909.4614                   22937910.5354
 11  8 20  0 52  0.0000000  0  9G17G10G09G12G05G02G04G30G25
 -28602602.62146 -22271574.31144  23726019.9454                   23726020.5704
 -27311691.80548 -21267654.23546  20993224.2584                   20993222.3794
  -8975604.04346  -6978130.04443  24481964.6254                   24481967.1414
 -25095057.82448 -19539358.26846  20769142.2584                   20769139.8954
 -22831556.67248 -17775018.50946  20888832.8204                   20888831.5234
 -32042873.75048 -24952516.25146  20590197.6094                   20590193.4064
 -26980559.97347 -21006746.40845  22533044.9224                   22533043.5594
  -8754330.53147  -6809271.08444  22554904.4304                   22554903.9884
  -8314098.30547  -6466122.47545  22915658.2344                   22915659.6884
 11  8 20  0 52 30.0000000  0  9G17G10G09G12G05G02G04G30G25
 -28572579.10247 -22248179.41044  23731733.7584                   23731733.4104
 -27304809.51648 -21262291.41046  20994533.9774                   20994532.4064
  -8926606.89546  -6939950.66543  24491288.3594                   24491291.3444
 -25157521.74648 -19588031.46046  20757255.2664                   20757253.1254
 -22929230.45748 -17851127.90246  20870246.2664                   20870244.9694
 -32059773.37148 -24965684.79446  20586981.8444                   20586977.5554
 -26931649.18047 -20968634.14845  22542352.5164                   22542351.1334
  -8863926.38347  -6894670.40445  22534049.5164                   22534048.1174
  -8430695.52347  -6556977.43045  22893470.6954                   22893471.2274
 11  8 20  0 53  0.0000000  0  9G17G10G09G12G05G02G04G30G25
 -28542375.94146 -22224644.47344  23737481.4844                   23737481.5394
 -27297345.25048 -21256475.09546  20995954.4064                   20995952.7384
  -8877651.87946  -6901804.03743  24500603.8054                   24500606.2704
 -25219443.80148 -19636282.40646  20745472.0314                   20745469.8794
 -23026439.42648 -17926875.12046  20851747.6724                   20851746.3634
 -32076465.98048 -24978692.02046  20583805.3834                   20583801.1454
 -26882715.08647 -20930503.67644  22551663.7424                   22551662.6564
  -8973093.48847  -6979735.67145  22513275.6254                   22513274.5394
  -8546958.98847  -6647572.26645  22871346.1884                   22871347.8554
 11  8 20  0 53 30.0000000  0  9G17G10G09G12G05G02G04G30G25
 -26936569.64546 -20973366.85144  24043056.0474                   24043055.6454
 -25713875.87548 -20022602.85446  21297278.7424                   21297276.9774
  -7253319.25846  -5636090.38943  24809703.6884                   24809707.2664
 -23705395.95747 -18456504.85446  21033585.5554                   21033583.4844
 -21547753.41448 -16774652.19246  21133132.5084                   21133130.9774
 -30517527.64548 -23763934.86546  20880461.5164                   20880457.2034
 -25258335.84847 -19664753.64045  22860773.2504                   22860771.8674
  -7506401.23047  -5836858.48445  22792377.7664                   22792376.6884
  -7087457.66047  -5510298.50045  23149080.8444                   23149080.9304
 11  8 20  0 54  0.0000000  0  9G17G10G09G12G05G02G04G30G25
 -26906002.65646 -20949548.47344  24048872.8204                   24048872.7774
 -25705248.02348 -20015879.84546  21298920.4224                   21298918.6994
  -7204453.84046  -5598013.57243  24819003.6024                   24819006.5274
 -23766226.19148 -18503905.03946  21022010.0634                   21022008.0004
 -21644022.14148 -16849666.74746  21114812.8984                   21114811.4694
 -30533805.75448 -23776619.10446  20877363.8984                   20877359.7274
 -25209355.07847 -19626586.81045  22870093.9384                   22870092.9774
  -7614699.43447  -5921246.67845  22771769.7424                   22771768.0204
  -7203041.87947  -5600364.07445  23127085.1724                   23127086.6844
 11  8 20  0 54 30.0000000  0  9G17G10G09G12G05G02G04G30G25
 -26875253.74646 -20925588.25244  24054724.7584                   24054724.3324
 -25696041.62148 -20008706.00746  21300672.5394                   21300670.3914
  -7155638.10947  -5559975.41543  24828292.9454                   24828295.8524
 -23826509.14548 -18550878.75946  21010538.8134                   21010536.3524
 -21739818.06648 -16924312.86946  21096583.4384                   21096582.0004
 -30549878.75048 -23789143.52246  20874305.0084                   20874300.8714
 -25160353.46947 -19588403.76945  22879418.1484                   22879417.5434
  -7722559.83247  -6005293.68544  22751243.3984                   22751242.2584
  -7318283.02747  -5690162.32045  23105156.1024                   23105156.3954
 11  8 20  0 55  0.0000000  0  9G17G10G09G12G05G02G04G30G25
 -26844316.98446 -20901481.74344  24060611.5394                   24060611.3524
 -25686252.49248 -20001078.11546  21302535.0164                   21302533.3674
  -7106869.14546  -5521973.82043  24837574.0554                   24837576.3754
 -23886237.64848 -18597420.44946  20999172.7504                   20999170.4104
 -21835133.20348 -16998584.36046  21078445.7034                   21078444.1604
 -30565742.30948 -23801504.73146  20871286.4614                   20871282.4304
 -25111326.42247 -19550200.87544  22888748.0314                   22888746.6294
  -7829974.10947  -6088993.10345  22730804.2424                   22730802.8714
  -7433172.68047  -5779686.70245  23083293.0554                   23083293.4694
 11  8 20  0 55 30.0000000  0  9G17G10G09G12G05G02G04G30G25
 -26813198.71146 -20877233.76044  24066532.9924                   24066533.0434
 -25675888.88748 -19993002.56746  21304507.2664                   21304505.5434
  -7058156.85946  -5484016.25343  24846842.4924                   24846846.7584
 -23945417.24248 -18643534.42946  20987911.3364                   20987909.5084
 -21929972.33648 -17072484.93946  21060398.3984                   21060397.1134
 -30581404.08248 -23813708.71946  20868306.2504                   20868302.4384
 -25062282.05947 -19511984.48744  22898080.9144                   22898079.4414
  -7936946.34447  -6172348.05545  22710447.7194                   22710446.9884
  -7547714.91047  -5868940.36445  23061496.1954                   23061497.7704
 11  8 20  0 56  0.0000000  0  9G17G10G09G12G05G02G04G30G25
 -26781896.41446 -20852842.39344  24072489.8444                   24072489.5044
 -25664949.80148 -19984478.60746  21306589.0554                   21306587.0434
  -7009501.52046  -5446103.13343  24856102.0164                   24856105.2704
 -24004044.03948 -18689217.64646  20976754.9144                   20976752.5434
 -22024331.03948 -17146011.15546  21042442.7664                   21042440.7234
 -30596862.71548 -23825754.41246  20865364.5234                   20865360.4774
 -25013219.27747 -19473753.76544  22907416.8524                   22907416.2704
  -8043471.82447  -6255354.89545  22690176.1644                   22690174.9574
  -7661904.74247  -5957919.40745  23039766.6094                   23039767.1484
 11  8 20  0 56 30.0000000  0  9G17G10G09G12G05G02G04G30G25
 -26750410.57846 -20828308.04444  24078481.3364                   24078481.1174
 -25653437.90648 -19975508.27546  21308779.4614                   21308777.9534
  -6960906.88747  -5408237.33443  24865349.1644                   24865352.0704
 -24062118.02748 -18734470.10646  20965703.9454                   20965701.3594
 -22118208.04748 -17219162.01846  21024578.0634                   21024576.6484
 -30612120.45348 -23837643.54446  20862460.9534                   20862456.9574
 -24964140.06647 -19435510.26244  22916756.6484                   22916755.8834
  -8149548.86347  -6338012.30945  22669991.0634                   22669989.4574
  -7775740.46548  -6046622.55045  23018104.5004                   23018104.2664
 11  8 20  0 57  0.0000000  0  9G17G10G09G12G05G02G04G30G25
 -26718740.31646 -20803629.93744  24084507.7664                   24084507.5984
 -25641354.42248 -19966092.56146  21311079.1644                   21311077.3714
  -6912375.62546  -5370420.91343  24874584.9924                   24874588.1024
 -24119637.48848 -18779290.46346  20954758.3674                   20954755.8054
 -22211600.78948 -17291935.54047  21006806.2584                   21006804.6174
 -30627178.01648 -23849376.70946  20859595.6724                   20859591.6524
 -24915045.37547 -19397254.66444  22926099.2814                   22926098.0434
  -8255174.50847  -6420317.96945  22649890.8284                   22649889.7734
  -7889218.95747  -6135047.33745  22996510.1024                   22996511.4104
 11  8 20  0 57 30.0000000  0  9G17G10G09G12G05G02G04G30G25
 -26686886.58646 -20778808.88744  24090569.6804                   24090569.4384
 -25628701.85948 -19956233.40546  21313486.4304                   21313484.6294
  -6863911.80547  -5332657.08444  24883806.9224                   24883810.3594
 -24176602.14148 -18823678.50246  20943918.3204                   20943915.8404
 -22304508.15248 -17364330.84947  20989126.5474                   20989125.1644
 -30642037.39848 -23860955.45346  20856768.0864                   20856763.8984
 -24865937.37147 -19358988.69744  22935443.6414                   22935442.8444
  -8360347.20347  -6502270.69445  22629877.1414                   22629875.4884
  -8002338.63348  -6223192.48545  22974984.6954                   22974985.2074
 11  8 20  0 58  0.0000000  0  9G17G10G09G12G05G02G04G30G25
 -26654846.60546 -20753842.74943  24096666.6954                   24096666.6644
 -25615479.78548 -19945930.46846  21316002.8754                   21316000.9964
  -6815515.63746  -5294945.92444  24893016.6094                   24893020.2194
 -24233008.37548 -18867631.40446  20933184.7584                   20933181.8674
 -22396925.68748 -17436344.46946  20971540.0314                   20971538.1174
 -30656697.08248 -23872378.58746  20853978.5394                   20853974.2854
 -24816814.87147 -19320711.44144  22944791.5164                   22944790.8594
  -8465062.02047  -6583866.63145  22609950.5944                   22609949.0474
  -8115094.32447  -6311054.08045  22953527.2584                   22953527.1884
 11  8 20  0 58 30.0000000  0  9G17G10G09G12G05G02G04G30G25
 -26622620.83246 -20728731.76444  24102799.3984                   24102798.8094
 -25601690.36747 -19935185.44846  21318626.7664                   21318624.7544
  -6767190.40246  -5257290.01344  24902213.2734                   24902216.1604
 -24288855.41848 -18911148.59846  20922557.3284                   20922554.7814
 -22488851.74248 -17507975.11546  20954047.0314                   20954045.1524
 -30671159.14148 -23883647.73146  20851226.4384                   20851221.9304
 -24767679.45747 -19282424.13144  22954142.1254                   22954141.7464
  -8569316.93747  -6665104.23145  22590111.2114                   22590110.0044
  -8227483.97347  -6398630.38145  22932139.9454                   22932141.5434
 11  8 20  0 59  0.0000000  0  9G17G10G09G12G05G02G04G30G25
 -26590213.16046 -20703479.08644  24108965.9924                   24108965.5434
 -25587339.16047 -19924002.67446  21321358.0864                   21321355.7774
  -6718943.18446  -5219694.91443  24911393.7584                   24911397.4264
 -24344146.28948 -18954232.39046  20912035.7114                   20912033.3954
 -22580288.75448 -17579224.70846  20936646.8284                   20936645.1644
 -30685428.64848 -23894766.81846  20848511.1884                   20848506.7234
 -24718536.47747 -19244130.91444  22963493.4064                   22963492.3484
  -8673113.76247  -6745984.84445  22570359.3444                   22570357.9184
  -8339509.15247  -6485922.69845  22910822.6954                   22910823.2114
 11  8 20  0 59 30.0000000  0  9G17G10G09G12G05G02G04G30G25
 -26557617.30546 -20678079.71443  24115168.9844                   24115168.3914
 -25572422.27347 -19912379.11046  21324196.4694                   21324194.5274
  -6670770.94946  -5182158.22143  24920560.5554                   24920564.7344
 -24398873.91048 -18996877.27346  20901621.4924                   20901619.1214
 -22671228.84448 -17650087.07146  20919341.7584                   20919340.0634
 -30699500.48847 -23905731.89246  20845833.0864                   20845829.1564
 -24669381.39847 -19205828.28744  22972847.2344                   22972846.9344
  -8776444.13747  -6826502.00645  22550696.5474                   22550695.3014
  -8451161.39547  -6572924.42545  22889575.5784                   22889576.0354
 11  8 20  1  0  0.0000000  0  9G17G10G09G12G05G02G04G30G25
 -26524836.38346 -20652536.14943  24121406.8524                   24121405.9454
 -25556944.73447 -19900318.67446  21327141.6564                   21327139.4454
  -6622680.01246  -5144684.87243  24929711.9694                   24929716.0864
 -24453040.79348 -19039085.23646  20891313.9454                   20891311.4844
 -22761673.30948 -17720563.24947  20902130.7734                   20902129.2424
 -30713379.64548 -23916546.81346  20843192.1414                   20843187.9304
 -24620218.60547 -19167519.69444  22982202.6174                   22982202.5594
  -8879308.99247  -6906656.43845  22531122.0554                   22531120.5944
  -8562441.43447  -6659636.13245  22868400.3204                   22868400.8364
 11  8 20  1  0 30.0000000  0  8G17G10G12G05G02G04G30G25
 -26491870.13346 -20626848.25143  24127679.7344                   24127679.9494
 -25540908.59848 -19887822.97346  21330192.5634                   21330190.9804
 -24506645.61748 -19080855.22746  20881113.1174                   20881110.6254
 -22851619.94948 -17790651.49546  20885014.3984                   20885012.9574
 -30727066.62148 -23927211.99546  20840587.8204                   20840583.3874
 -24571048.89847 -19129205.67544  22991559.7974                   22991558.6804
  -8981705.68447  -6986446.07845  22511636.9844                   22511635.3554
  -8673346.53147  -6746055.69645  22847295.3834                   22847296.4654
 11  8 20  1  1  0.0000000  0  8G17G10G12G05G02G04G30G25
 -26458717.95746 -20601015.41744  24133988.8364                   24133988.9924
 -25524314.74248 -19874892.68546  21333350.8054                   21333348.9964
 -24559686.84448 -19122186.05546  20871019.6334                   20871017.3834
 -22941066.65648 -17860350.19446  20867993.1884                   20867991.7074
 -30740562.16048 -23937727.99846  20838019.1644                   20838014.9884
 -24521873.11347 -19090886.92744  23000917.5164                   23000916.8244
  -9083631.43447  -7065868.71345  22492240.5394                   22492238.8794
  -8783873.68047  -6832180.72045  22826263.0944                   22826263.3284
 11  8 20  1  1 30.0000000  0  8G17G10G12G05G02G04G30G25
 -26425375.35246 -20575034.19943  24140333.9224                   24140333.2274
 -25507160.98847 -19861526.11246  21336615.0864                   21336612.8984
 -24612159.03148 -19163073.46946  20861034.6414                   20861032.1214
 -23030006.90648 -17929654.24046  20851068.2894                   20851066.8874
 -30753863.72348 -23948092.84946  20835488.2424                   20835483.8834
 -24472688.39847 -19052561.19644  23010277.1094                   23010276.2894
  -9185079.52747  -7144919.20045  22472935.9144                   22472934.3014
  -8894016.02747  -6918005.93445  22805303.5704                   22805304.2074
 11  8 20  1  2  0.0000000  0  8G17G10G12G05G02G04G30G25
 -26391836.73046 -20548900.27044  24146716.0164                   24146715.4614
 -25489444.23447 -19847720.85546  21339986.3364                   21339984.4924
 -24664056.41448 -19203512.98846  20851158.9304                   20851156.4224
 -23118433.75448 -17998558.23746  20834241.0474                   20834239.8404
 -30766966.66848 -23958302.93746  20832994.8594                   20832990.9924
 -24423490.51647 -19014225.25844  23019639.3284                   23019638.2974
  -9286042.37947  -7223591.53145  22453723.1884                   22453722.2854
  -9003765.81247  -7003525.23845  22784418.5234                   22784419.9694
 11  8 20  1  2 30.0000000  0  8G17G10G12G05G02G04G30G25
 -26358100.90646 -20522612.62844  24153135.4844                   24153135.4534
 -25471164.59847 -19833476.97346  21343464.9694                   21343462.8524
 -24715376.38348 -19243502.56546  20841392.9694                   20841390.5044
 -23206344.32048 -18067059.94347  20817512.4064                   20817510.7894
 -30779870.66048 -23968357.99646  20830539.2274                   20830534.8524
 -24374279.13347 -18975878.78944  23029004.0704                   23029002.5984
  -9386516.32047  -7301882.91445  22434603.4144                   22434601.7034
  -9113119.15247  -7088735.60545  22763610.0394                   22763610.1644
 11  8 20  1  3  0.0000000  0  8G17G10G12G05G02G04G30G25
 -26324168.73446 -20496172.00943  24159592.5474                   24159592.1844
 -25452325.48847 -19818797.15646  21347049.9844                   21347047.8954
 -24766118.91448 -19283042.20346  20831736.9064                   20831734.6254
 -23293737.25448 -18135158.29647  20800882.3134                   20800880.5864
 -30792578.04348 -23978259.84146  20828121.0554                   20828116.9774
 -24325056.78947 -18937523.73744  23038370.5004                   23038370.3204
  -9486500.07447  -7379792.34045  22415577.1254                   22415576.1054
  -9222074.55547  -7173635.89945  22742875.9774                   22742876.4264
 11  8 20  1  3 30.0000000  0  8G17G10G12G05G02G04G30G25
 -26290053.50446 -20469588.75044  24166084.9304                   24166084.9414
 -25432942.09447 -19803693.21446  21350738.3364                   21350736.5984
 -24816296.75448 -19322141.80846  20822188.6094                   20822186.3524
 -23380624.61348 -18202862.69847  20784347.6094                   20784346.4104
 -30805103.17248 -23988019.68546  20825737.5474                   20825733.5004
 -24275837.57447 -18899171.18344  23047736.7114                   23047736.2074
  -9586004.78547  -7457328.45445  22396641.8524                   22396640.8914
  -9330643.02047  -7258234.69445  22722215.7894                   22722217.3054
 11  8 20  1  4  0.0000000  0  8G17G10G12G05G02G04G30G25
 -26255747.37146 -20442856.75344  24172612.9304                   24172613.4694
 -25413008.81247 -19788160.79246  21354531.7114                   21354529.9964
 -24865901.40248 -19360794.78046  20812749.0784                   20812746.6374
 -23466997.07048 -18270165.87247  20767911.6024                   20767909.8714
 -30817439.74248 -23997632.59446  20823389.9534                   20823385.9024
 -24226615.18047 -18860816.10844  23057103.0634                   23057103.3484
  -9685020.50447  -7534483.53345  22377799.7734                   22377798.8364
  -9438814.35947  -7342524.03445  22701631.7814                   22701632.2194
 11  8 20  1  4 30.0000000  0  8G17G10G12G05G02G04G30G25
 -26221256.23846 -20415980.58944  24179176.6564                   24179176.4224
 -25392533.98448 -19772206.39746  21358427.8594                   21358425.9224
 -24914938.07848 -19399005.18146  20803417.7194                   20803415.3134
 -23552858.65248 -18337070.95946  20751572.8054                   20751571.2344
 -30829595.05948 -24007104.26146  20821077.1024                   20821072.7504
 -24177396.64547 -18822464.06844  23066469.4454                   23066468.9384
  -9783550.97747  -7611260.50645  22359050.1564                   22359049.3594
  -9546592.16847  -7426506.72045  22681122.2114                   22681123.2114
 11  8 20  1  5  0.0000000  0  8G17G10G12G05G02G04G30G25
 -26186577.10947 -20388957.88344  24185775.8834                   24185775.9844
 -25371516.77748 -19755829.35846  21362427.5864                   21362425.7734
 -24963403.16048 -19436770.18946  20794195.0084                   20794192.5354
 -23638205.05948 -18403574.62847  20735331.9304                   20735330.1604
 -30841567.16848 -24016433.17346  20818798.7734                   20818794.6994
 -24128180.50446 -18784113.82144  23075834.8444                   23075834.2974
  -9881591.33247  -7687655.56745  22340393.6334                   22340392.6684
  -9653971.17247  -7510178.65345  22660689.0944                   22660689.7894
 11  8 20  1  5 30.0000000  0  8G17G10G12G05G02G04G30G25
 -26151713.60946 -20361791.52344  24192409.3914                   24192410.0474
 -25349962.24648 -19739033.62346  21366528.9224                   21366526.8834
 -25011298.87548 -19474091.52546  20785080.9454                   20785078.5944
 -23723037.84448 -18469678.05747  20719188.6884                   20719187.3164
 -30853360.45748 -24025622.74546  20816554.5944                   20816550.3054
 -24078970.97347 -18745768.77844  23085199.0394                   23085197.7814
  -9979142.43447  -7763669.37245  22321830.5394                   22321829.4304
  -9760952.05547  -7593540.34445  22640330.8594                   22640332.1804
 11  8 20  1  6  0.0000000  0  8G17G10G12G05G02G04G30G25
 -26116663.55946 -20334479.87844  24199079.5314                   24199079.6174
 -25327870.81647 -19721819.53946  21370733.0554                   21370730.8954
 -25058623.02048 -19510967.48846  20776075.6094                   20776073.0004
 -23807353.38748 -18535378.44747  20703144.2584                   20703142.4384
 -30864974.57048 -24034672.69946  20814344.3984                   20814340.2384
 -24029767.39847 -18707428.42144  23094561.8054                   23094560.9844
 -10076200.33647  -7839298.88045  22303360.8984                   22303359.2704
  -9867530.78547  -7676588.68445  22620049.9144                   22620050.4454
 11  8 20  1  6 30.0000000  0  8G17G10G12G05G02G04G30G25
 -26081425.87546 -20307021.94844  24205785.4924                   24205785.9804
 -25305243.51248 -19704187.87846  21375038.9774                   21375037.0314
 -25105373.86748 -19547396.72846  20767179.2734                   20767176.4774
 -23891149.18748 -18600673.84047  20687198.0944                   20687196.3554
 -30876409.40248 -24043582.96846  20812168.5394                   20812164.2624
 -23980569.94546 -18669092.76644  23103923.8204                   23103922.9224
 -10172761.87947  -7914541.62045  22284986.0474                   22284984.5744
  -9973703.90247  -7759320.95645  22599844.8914                   22599846.3094
 11  8 20  1  7  0.0000000  0  8G17G10G12G05G02G04G30G25
 -26045999.14847 -20279416.72644  24212527.0234                   24212526.6524
 -25282081.09448 -19686139.23746  21379446.5084                   21379444.5234
 -25151549.37948 -19583377.64946  20758392.0634                   20758389.4614
 -23974422.07848 -18665561.77147  20671351.8284                   20671350.1094
 -30887664.52348 -24052353.18046  20810026.4924                   20810022.5274
 -23931377.95746 -18630761.38844  23113284.6564                   23113284.5664
 -10268823.37147  -7989394.67545  22266705.6644                   22266704.1054
 -10079467.35247  -7841733.98945  22579719.5164                   22579720.1024
 11  8 20  1  7 30.0000000  0  8G17G10G12G05G02G04G30G25
 -26010386.85546 -20251666.88944  24219303.5394                   24219303.0634
 -25258389.82448 -19667678.51246  21383954.9224                   21383953.0274
 -25197152.32448 -19618912.41246  20749714.1334                   20749711.7384
 -24057174.60548 -18730044.22047  20655604.7664                   20655603.0944
 -30898745.19548 -24060987.47346  20807918.0314                   20807914.1564
 -23882196.61747 -18592438.29644  23122644.3984                   23122643.1994
 -10364386.71947  -8063859.56645  22248520.7274                   22248519.1134
 -10184822.90247  -7923829.18745  22559670.8054                   22559672.0744
 11  8 20  1  8  0.0000000  0  8G17G10G12G05G02G04G30G25
 -25974590.86846 -20223773.96844  24226115.0394                   24226115.5044
 -25234173.17248 -19648808.39746  21388563.3594                   21388561.1094
 -25242183.79348 -19654001.87546  20741144.4774                   20741142.3554
 -24139406.48448 -18794120.97047  20639956.3054                   20639954.8444
 -30909653.98048 -24069487.81846  20805842.1954                   20805838.1334
 -23833028.51247 -18554125.50644  23132000.7734                   23131999.8324
 -10459451.18447  -8137935.72745  22230430.7584                   22230429.2504
 -10289769.48847  -8005605.69545  22539700.8524                   22539700.9614
 11  8 20  1  8 30.0000000  0  8G17G10G12G05G02G04G30G25
 -25938610.76246 -20195737.54044  24232961.8594                   24232962.7424
 -25209432.71947 -19629530.12246  21393270.6954                   21393269.3444
 -25286642.85948 -19688645.32046  20732684.5164                   20732681.9614
 -24221115.72348 -18857790.47347  20624407.5704                   20624405.9694
 -30920391.14148 -24077854.44346  20803798.9534                   20803795.0044
 -23783873.99647 -18515823.33744  23141354.7894                   23141354.4844
 -10554014.13747  -8211621.10945  22212435.7584                   22212434.0004
 -10394304.19147  -8087061.27245  22519808.0164                   22519808.6454
 11  8 20  1  9  0.0000000  0  8G17G10G12G05G02G04G30G25
 -25902443.08246 -20167554.93344  24239844.6414                   24239844.8794
 -25184167.32847 -19609842.79646  21398079.0234                   21398076.4414
 -25330525.32848 -19722839.45246  20724334.0784                   20724331.7154
 -24302297.39848 -18921048.89347  20608959.1954                   20608957.3284
 -30930954.81648 -24086085.88346  20801789.0554                   20801784.5394
 -23734730.90647 -18477530.06444  23150706.3754                   23150706.4654
 -10648070.10247  -8284911.41745  22194537.4924                   22194535.8524
 -10498421.32047  -8168191.46345  22499994.6804                   22499995.4734
 11  8 20  1  9 30.0000000  0  8G17G10G12G05G02G04G30G25
 -25866088.55546 -20139226.76843  24246761.9144                   24246762.7774
 -25158380.27347 -19589748.98246  21402986.1884                   21402983.9964
 -25373831.30548 -19756584.38146  20716093.1644                   20716091.0204
 -24382950.67248 -18983895.55347  20593611.3364                   20593609.5744
 -30941346.71948 -24094183.46346  20799811.5234                   20799807.3444
 -23685601.24247 -18439247.20544  23160055.7114                   23160054.8054
 -10741617.89847  -8357805.75845  22176736.0784                   22176734.7664
 -10602119.32447  -8248995.05445  22480262.2424                   22480262.8594
 11  8 20  1 10  0.0000000  0  8G17G10G12G05G02G04G30G25
 -25829544.69546 -20110751.06643  24253717.1484                   24253716.6564
 -25132071.17247 -19569248.38346  21407992.6414                   21407990.6174
 -25416557.84048 -19789877.78046  20707962.5084                   20707960.4804
 -24463072.04348 -19046327.76147  20578364.3914                   20578362.8244
 -30951565.51648 -24102146.17046  20797866.5084                   20797862.6644
 -23636483.30146 -18400973.53844  23169402.0394                   23169401.1914
 -10834652.98447  -8430300.60545  22159031.9384                   22159030.0124
 -10705393.44547  -8329468.35445  22460609.4384                   22460610.0744
 11  8 20  1 10 30.0000000  0  8G17G10G12G05G02G04G30G25
 -25792813.00046 -20082129.01943  24260706.4924                   24260706.8634
 -25105244.04747 -19548344.11246  21413097.4924                   21413095.2034
 -25458706.30548 -19822720.74046  20699942.2344                   20699939.5904
 -24542661.01248 -19108345.10747  20563219.5394                   20563217.5904
 -30961613.92248 -24109976.09046  20795954.7424                   20795950.5164
 -23587379.56646 -18362710.90144  23178746.4534                   23178745.7774
 -10927174.84447  -8502395.51845  22141425.1414                   22141423.8444
 -10808242.89147  -8409610.74545  22441037.8984                   22441038.3404
 11  8 20  1 11  0.0000000  0  9G17G10G29G12G05G02G04G30G25
 -25755900.00846 -20053365.73843  24267730.7034                   24267730.8404
 -25077907.18747 -19527042.65946  21418299.5394                   21418297.4024
   4562668.41857   3565481.12354  24563765.0084                   24563764.7934
 -25500282.34447 -19855117.66246  20692030.3524                   20692028.3874
 -24621722.63348 -19169951.52347  20548174.2894                   20548172.6334
 -30971499.29748 -24117678.98146  20794073.5704                   20794069.8134
 -23538297.75446 -18324465.36344  23188085.9144                   23188085.7384
 -11019187.91447  -8574093.98545  22123915.8204                   22123914.8324
 -10910671.66447  -8489425.32245  22421546.4774                   22421547.0084
 11  8 20  1 11 30.0000000  0  9G17G10G29G12G05G02G04G30G25
 -25718805.53546 -20024460.96543  24274789.9144                   24274789.9844
 -25050062.94947 -19505345.83745  21423597.9304                   21423596.0314
   4450291.83246   3477915.06244  24542381.1414                   24542380.6524
 -25541285.32447 -19887068.04446  20684227.6564                   20684225.3204
 -24700255.63348 -19231146.03847  20533229.7734                   20533228.6374
 -30981222.70347 -24125255.66346  20792223.1804                   20792218.7304
 -23489238.52746 -18286237.42444  23197422.4534                   23197421.6844
 -11110689.78147  -8645394.10545  22106503.7274                   22106502.3674
 -11012677.24647  -8568910.15045  22402135.2034                   22402135.9184
 11  8 20  1 12  0.0000000  0  9G17G10G29G12G05G02G04G30G25
 -25681534.97746 -19995418.98443  24281882.2584                   24281882.1564
 -25021718.91847 -19483259.56546  21428991.6174                   21428989.7664
   4337824.05147   3390277.86344  24520979.0864                   24520978.3134
 -25581720.40247 -19918575.89146  20676533.3834                   20676530.8364
 -24778264.01248 -19291931.75647  20518385.5084                   20518383.7274
 -30990790.58647 -24132711.14846  20790402.7344                   20790398.5864
 -23440208.05946 -18248031.87444  23206751.9224                   23206751.0744
 -11201684.13347  -8716298.77745  22089187.9774                   22089186.2344
 -11114262.85247  -8648067.74345  22382803.9614                   22382804.8794
 11  8 20  1 12 30.0000000  0  9G17G10G29G12G05G02G04G30G25
 -25644083.40246 -19966236.04643  24289009.7424                   24289009.2664
 -24992872.60247 -19460781.90345  21434480.8284                   21434479.0864
   4225270.39147   3302573.80744  24499560.3984                   24499560.7734
 -25621581.84448 -19949636.75546  20668947.9224                   20668945.4964
 -24855741.21948 -19352303.56947  20503641.8284                   20503640.4304
 -31000199.15248 -24140042.50046  20788612.0864                   20788607.9964
 -23391202.77746 -18209845.97144  23216077.5784                   23216077.5274
 -11292163.95747  -8786802.51245  22071970.2814                   22071968.8754
 -11215421.17247  -8726892.37145  22363554.2584                   22363554.8834
 11  8 20  1 13  0.0000000  0  9G17G10G29G12G05G02G04G30G25
 -25606453.47346 -19936914.00943  24296169.3754                   24296169.7774
 -24963528.72747 -19437916.52545  21440064.7194                   21440062.6724
   4112629.18047   3214801.54444  24478125.7734                   24478125.7074
 -25660871.94548 -19980252.41846  20661470.8914                   20661468.6254
 -24932688.75448 -19412262.65047  20488999.2504                   20488997.5864
 -31009451.83248 -24147252.37246  20786851.3594                   20786847.0704
 -23342225.82046 -18171682.08244  23225397.4384                   23225397.1054
 -11382129.76247  -8856905.72545  22054850.6024                   22054848.5274
 -11316152.41847  -8805384.21145  22344385.6174                   22344386.9024
 11  8 20  1 13 30.0000000  0  9G17G10G29G12G05G02G04G30G25
 -25568638.73046 -19907447.90443  24303365.3524                   24303365.9064
 -24933683.02347 -19414660.13345  21445744.3914                   21445742.4574
   3999907.57047   3126966.59644  24456675.4384                   24456674.6024
 -25699583.58248 -20010417.33846  20654104.8984                   20654102.3054
 -25009098.44148 -19471802.63247  20474459.3914                   20474457.2464
 -31018543.17248 -24154336.52446  20785121.4774                   20785117.2774
 -23293271.77746 -18133536.12744  23234712.4614                   23234712.6764
 -11471573.05947  -8926601.79645  22037829.5784                   22037828.2114
 -11416447.70347  -8883536.34545  22325300.1254                   22325300.1174
 11  8 20  1 14  0.0000000  0  9G17G10G29G12G05G02G04G30G25
 -25530637.88346 -19877836.98043  24310597.3444                   24310597.0474
 -24903336.65247 -19391013.59645  21451519.3754                   21451517.3754
   3887107.14847   3039070.24544  24435210.5554                   24435209.7734
 -25737715.59447 -20040130.59847  20646848.5314                   20646845.9384
 -25084967.69148 -19530921.51047  20460021.5314                   20460019.7504
 -31027473.07048 -24161294.87946  20783422.0164                   20783417.8054
 -23244340.29346 -18095407.70044  23244024.4694                   23244024.0204
 -11560490.70747  -8995888.25445  22020909.3984                   22020907.8134
 -11516303.55147  -8961346.07845  22306298.4924                   22306298.6294
 11  8 20  1 14 30.0000000  0  9G17G10G29G12G05G02G04G30G25
 -25492447.94146 -19848078.50943  24317864.3754                   24317864.3364
 -24872488.92647 -19366976.38045  21457388.8754                   21457387.0634
   3774231.56346   2951115.28844  24413730.2584                   24413730.1134
 -25775263.95348 -20069389.06547  20639703.1414                   20639700.9454
 -25160292.26248 -19589615.92947  20445687.7504                   20445686.0164
 -31036239.21947 -24168125.63646  20781754.2194                   20781749.7154
 -23195429.12946 -18057295.10744  23253331.8364                   23253331.6884
 -11648877.73447  -9064761.25145  22004090.0164                   22004088.4614
 -11615714.67247  -9038809.26745  22287380.8364                   22287381.5554
 11  8 20  1 15  0.0000000  0  9G17G10G29G12G05G02G04G30G25
 -25454069.86746 -19818173.55843  24325167.1484                   24325167.1764
 -24841143.51247 -19342551.37445  21463353.6644                   21463351.8164
   3661280.23446   2863101.38744  24392235.7344                   24392235.8954
 -25812230.41848 -20098194.08446  20632668.6094                   20632666.3874
 -25235072.12148 -19647885.92447  20431457.5784                   20431455.8284
 -31044844.18748 -24174830.79646  20780116.4844                   20780112.3364
 -23146540.54747 -18019200.11444  23262635.0554                   23262634.4104
 -11736733.44547  -9133220.24445  21987371.4534                   21987369.9734
 -11714680.00847  -9115925.10345  22268548.2664                   22268548.5394
 11  8 20  1 15 30.0000000  0  9G17G10G29G12G05G02G04G30G25
 -25415502.94547 -19788121.39943  24332506.4534                   24332505.8794
 -24809301.70747 -19317739.57945  21469413.1254                   21469411.3094
   3548255.09046   2775029.84843  24370728.3594                   24370727.7894
 -25848612.92648 -20126544.09446  20625745.2504                   20625743.2154
 -25309304.43448 -19705729.24947  20417331.7274                   20417329.9614
 -31053287.49248 -24181409.99546  20778510.0944                   20778505.8164
 -23097673.96547 -17981122.25644  23271934.2894                   23271933.7894
 -11824054.70747  -9201262.79745  21970754.8674                   21970753.2854
 -11813196.04747  -9192690.83046  22249801.1804                   22249802.1954
 11  8 20  1 16  0.0000000  0  9G17G10G29G12G05G02G04G30G25
 -25376749.21147 -19757923.66244  24339881.3444                   24339881.3324
 -24776967.78547 -19292544.31645  21475566.5554                   21475564.3164
   3435154.49246   2686899.59543  24349205.5234                   24349205.3094
 -25884413.44948 -20154440.61146  20618932.6724                   20618930.2384
 -25382990.45748 -19763146.90147  20403309.7734                   20403307.7624
 -31061572.48448 -24187865.81446  20776933.1484                   20776929.1294
 -23048832.53147 -17943064.00944  23281228.6724                   23281227.5864
 -11910841.68747  -9268889.01245  21954239.9924                   21954238.4454
 -11911262.66447  -9269106.35345  22231140.2274                   22231140.8524
 11  8 20  1 16 30.0000000  0  9G17G10G29G12G05G02G04G30G25
 -25337808.45347 -19727580.16044  24347291.8914                   24347291.3594
 -24744143.85947 -19266967.22345  21481812.2664                   21481810.3674
   3321979.46146   2598711.27643  24327669.9694                   24327668.3364
 -25919631.27348 -20181883.07246  20612230.8984                   20612228.5084
 -25456128.41048 -19820137.47747  20389392.0164                   20389389.9534
 -31069699.82448 -24194198.80146  20775386.5394                   20775382.5824
 -23000016.80547 -17905025.79744  23290517.4844                   23290516.8324
 -11997092.38347  -9336097.35945  21937827.1484                   21937825.9344
 -12008877.32847  -9345169.72945  22212564.7274                   22212564.9494
 11  8 20  1 17  0.0000000  0  9G17G10G29G12G05G02G04G30G25
 -25298683.14847 -19697092.94644  24354736.8134                   24354736.4654
 -24710834.93447 -19241012.22145  21488150.9694                   21488148.7814
   3208728.14146   2510463.49243  24306118.5944                   24306118.1414
 -25954268.85548 -20208873.39646  20605640.0084                   20605637.2934
 -25528719.84848 -19876702.20547  20375578.2584                   20375576.2504
 -31077673.03948 -24200411.68646  20773869.3914                   20773865.0984
 -22951230.04746 -17867010.17144  23299801.6484                   23299800.7974
 -12082807.38747  -9402888.25345  21921515.4844                   21921514.8524
 -12106040.31647  -9420881.14945  22194074.5474                   22194074.6884
 11  8 20  1 17 30.0000000  0  8G10G29G12G05G02G04G30G25
 -23101621.10247 -17987079.37045  21794374.1564                   21794372.2854
   4670828.45746   3649762.50943  24584346.3914                   24584345.4534
 -24412901.47748 -19007807.90446  20898952.3204                   20898949.8404
 -24025337.67648 -18705235.53447  20661662.2584                   20661660.5594
 -29510069.31248 -22978902.28346  21072174.3524                   21072170.2774
 -21327051.46146 -16601416.42144  23608872.7424                   23608871.8634
 -10592558.67247  -8241655.48245  22205101.1724                   22205099.3204
 -10627322.84847  -8268633.77245  22475465.3284                   22475465.6724
 11  8 20  1 18  0.0000000  0  8G10G29G12G05G02G04G30G25
 -23067344.29747 -17960370.16345  21800896.3054                   21800894.9774
   4557432.19146   3561401.77143  24562768.1254                   24562766.8014
 -24446372.44548 -19033889.17146  20892582.6804                   20892580.3834
 -24096826.84448 -18760941.34947  20648058.6334                   20648056.4884
 -29517731.41048 -22984872.73946  21070715.9304                   21070712.1954
 -21278319.71147 -16563443.62844  23618146.1644                   23618144.8364
 -10677191.38347  -8307603.05745  22188996.0784                   22188994.2974
 -10723570.41847  -8343631.86445  22457149.8914                   22457150.7074
 11  8 20  1 18 30.0000000  0  8G10G29G12G05G02G04G30G25
 -23032577.91047 -17933279.48645  21807512.3054                   21807510.6994
   4443973.66046   3472992.50643  24541177.7734                   24541177.1374
 -24479250.58248 -19059508.49846  20886326.3594                   20886323.8164
 -24167753.93448 -18816209.17047  20634561.5234                   20634559.5824
 -29525230.48048 -22990716.16246  21069289.3204                   21069284.9964
 -21229607.55146 -16525486.11944  23627415.7274                   23627414.3204
 -10761271.13347  -8373119.73945  22172996.0164                   22172993.9654
 -10819347.77047  -8418263.56046  22438924.3594                   22438925.1884
 11  8 20  1 19  0.0000000  0  8G10G29G12G05G02G04G30G25
 -22997322.53947 -17905807.77945  21814221.4304                   21814219.5314
   4330455.53546   3384536.90943  24519575.8444                   24519575.3554
 -24511534.04348 -19084664.43846  20880183.0164                   20880180.4454
 -24238115.59848 -18871036.41547  20621172.0704                   20621170.2074
 -29532565.49648 -22996431.74246  21067893.3134                   21067889.3164
 -21180913.87947 -16487543.02344  23636681.6644                   23636681.0904
 -10844794.25447  -8438202.68445  22157101.9454                   22157100.4344
 -10914650.94147  -8492525.77746  22420788.8444                   22420789.1484
 11  8 20  1 19 30.0000000  0  8G10G29G12G05G02G04G30G25
 -22961582.12947 -17877958.11945  21821022.7734                   21821020.8524
   4216876.74146   3296033.96043  24497962.3524                   24497961.7584
 -24543223.95747 -19109357.87046  20874152.1644                   20874149.9734
 -24307913.04748 -18925423.99347  20607889.9064                   20607888.0434
 -29539738.75048 -23002021.30446  21066528.6414                   21066524.1804
 -21132240.97747 -16449616.12044  23645944.0634                   23645943.1134
 -10927760.42647  -8502851.64845  22141313.7114                   22141312.4614
 -11009479.19147  -8566417.92346  22402743.4064                   22402744.1564
 11  8 20  1 20  0.0000000  0  8G10G29G12G05G02G04G30G25
 -22925363.89847 -17849736.14445  21827914.4304                   21827912.9574
   4103233.33246   3207480.72243  24476337.5084                   24476336.5044
 -24574325.11348 -19133592.54246  20868234.2034                   20868231.9694
 -24377149.70748 -18979374.59747  20594714.6644                   20594712.5864
 -29546756.02048 -23007489.29446  21065193.0394                   21065188.8134
 -21083594.32046 -16411709.70044  23655200.9774                   23655200.4344
 -11010172.82847  -8567069.08345  22125631.3054                   22125630.3444
 -11103835.12547  -8639942.02646  22384788.0704                   22384789.1134
 11  8 20  1 20 30.0000000  0  8G10G29G12G05G02G04G30G25
 -22888675.06647 -17821147.45845  21834896.7274                   21834894.4614
   3989521.45746   3118874.11244  24454698.6484                   24454698.1374
 -24604842.48848 -19157372.30447  20862426.9224                   20862424.7074
 -24445829.19948 -19032891.05147  20581645.6174                   20581643.3444
 -29553623.06648 -23012840.23946  21063886.4924                   21063882.0554
 -21034979.32447 -16373827.88744  23664452.2814                   23664451.2814
 -11092034.35247  -8630857.26545  22110053.4774                   22110052.0044
 -11197721.32447  -8713100.09346  22366922.4534                   22366922.7274
 11  8 20  1 21  0.0000000  0  8G10G29G12G05G02G04G30G25
 -22851519.03147 -17792194.70045  21841967.2274                   21841964.9384
   3875741.10247   3030214.14144  24433047.3284                   24433045.7384
 -24634776.63348 -19180697.61246  20856730.7974                   20856728.1524
 -24513951.01647 -19085972.94147  20568682.0784                   20568680.2974
 -29560341.77347 -23018075.60046  21062608.0554                   21062603.6804
 -20986397.63747 -16335972.06244  23673697.3204                   23673696.7974
 -11173344.24247  -8694215.61945  22094580.6484                   22094579.6024
 -11291136.47747  -8785891.10546  22349145.9774                   22349146.6054
 11  8 20  1 21 30.0000000  0  8G10G29G12G05G02G04G30G25
 -22813898.23847 -17762879.81345  21849126.1644                   21849123.8404
   3761892.79346   2941501.29544  24411381.7584                   24411382.1524
 -24664127.32848 -19203568.27746  20851145.3364                   20851143.0354
 -24581514.33248 -19138619.64847  20555825.1414                   20555823.1334
 -29566912.71148 -23023195.80246  21061357.4924                   21061353.3204
 -20937850.08647 -16298142.85044  23682934.6884                   23682934.5434
 -11254100.67247  -8757142.70445  22079213.6174                   22079211.9104
 -11384078.40247  -8858313.38146  22331460.3204                   22331460.4344
 11  8 20  1 22  0.0000000  0  8G10G29G12G05G02G04G30G25
 -22775815.72748 -17733205.12445  21856372.7894                   21856371.0824
   3647976.92247   2852735.74044  24389704.6804                   24389703.6914
 -24692895.35248 -19225984.91546  20845670.9614                   20845668.0514
 -24648518.76248 -19190830.85447  20543074.5864                   20543072.7304
 -29573337.38348 -23028202.04146  21060134.7894                   21060130.6724
 -20889337.80147 -16260341.12044  23692166.9454                   23692166.2074
 -11334302.67247  -8819637.74745  22063951.6254                   22063950.0314
 -11476545.64848  -8930365.77145  22313863.4454                   22313864.3404
 11  8 20  1 22 30.0000000  0  8G10G29G12G05G02G04G30G25
 -22737269.34847 -17703168.98945  21863708.1564                   21863706.0354
   3533999.00447   2763921.87444  24368015.5394                   24368014.9304
 -24721076.17248 -19247943.99146  20840308.7274                   20840305.7974
 -24714958.39848 -19242601.95147  20530431.4304                   20530429.2774
 -29579612.14548 -23033091.46446  21058940.8674                   21058936.7774
 -20840856.78147 -16222563.69844  23701392.4454                   23701391.7384
 -11413943.84047  -8881695.79945  22048796.4454                   22048794.8834
 -11568531.36347  -9002042.92746  22296359.4144                   22296359.6484
 11  8 20  1 23  0.0000000  0  8G10G29G12G05G02G04G30G25
 -22698263.17247 -17672774.57045  21871130.2974                   21871128.6294
   3419958.39546   2675059.17444  24346313.4614                   24346313.3284
 -24748671.18048 -19269446.58846  20835057.1804                   20835054.7774
 -24780833.59848 -19293933.24547  20517895.9384                   20517893.7774
 -29585739.49648 -23037866.03746  21057774.6334                   21057770.2584
 -20792409.25447 -16184812.42044  23710611.7894                   23710611.0474
 -11493024.03948  -8943316.72145  22033748.1174                   22033746.2384
 -11660034.93747  -9073344.38945  22278946.8594                   22278947.0704
 11  8 20  1 23 30.0000000  0  8G10G29G12G05G02G04G30G25
 -22658808.68047 -17642030.81845  21878638.6954                   21878636.7464
   3305846.81646   2586141.16744  24324598.9924                   24324598.7504
 -24775689.50848 -19290499.83246  20829915.7584                   20829913.3404
 -24846153.32848 -19344831.70247  20505465.9844                   20505464.0354
 -29591729.18748 -23042533.33546  21056635.0864                   21056630.9064
 -20744004.84047 -16147094.72844  23719822.8204                   23719822.6524
 -11571550.73847  -9004506.34745  22018804.4224                   22018803.3554
 -11751063.33247  -9144275.58645  22261624.6414                   22261625.1414
 11  8 20  1 24  0.0000000  0  8G10G29G12G05G02G04G30G25
 -22618899.61347 -17610932.85645  21886232.8754                   21886231.0234
   3191673.75846   2497175.26043  24302871.9774                   24302872.1844
 -24802121.90648 -19311096.50346  20824886.0234                   20824883.7384
 -24910906.91847 -19395289.00747  20493143.8834                   20493141.7894
 -29597572.86348 -23047086.86046  21055523.0314                   21055518.7384
 -20695634.98047 -16109403.98044  23729027.2274                   23729026.6454
 -11649513.11747  -9065256.25145  22003968.8204                   22003967.4454
 -11841605.28948  -9214827.74946  22244394.9064                   22244395.9654
 11  8 20  1 24 30.0000000  0  8G10G29G12G05G02G04G30G25
 -22578543.84847 -17579486.80445  21893912.3364                   21893910.6844
   3077435.53146   2408158.51044  24281134.2344                   24281132.2854
 -24827974.05948 -19331241.03246  20819966.2664                   20819963.7464
 -24975099.11347 -19445308.86747  20480928.3284                   20480926.0864
 -29603276.94548 -23051531.60246  21054437.6174                   21054433.3364
 -20647305.91447 -16071744.97244  23738224.3364                   23738223.0434
 -11726915.32048  -9125569.65345  21989240.0394                   21989238.0084
 -11931664.35548  -9285003.61946  22227257.5864                   22227257.8754
 11  8 20  1 25  0.0000000  0  8G10G29G12G05G02G04G30G25
 -22537741.56648 -17547692.83445  21901676.6094                   21901674.8954
   2963134.59046   2319092.91844  24259383.1724                   24259382.0744
 -24853244.19548 -19350932.04146  20815157.7034                   20815155.1374
 -25038726.97748 -19494888.98447  20468820.1564                   20468818.2384
 -29608840.19948 -23055866.61646  21053378.8524                   21053374.6454
 -20599016.22747 -16034116.63744  23747413.0314                   23747412.5704
 -11803753.52047  -9185443.57845  21974617.9064                   21974616.7544
 -12021236.31648  -9354799.93246  22210212.7734                   22210212.5044
 11  8 20  1 25 30.0000000  0  8G10G29G12G05G02G04G30G25
 -22496493.50847 -17515551.49845  21909525.8364                   21909524.4774
   2848773.78946   2229980.63544  24237620.8524                   24237619.8794
 -24877930.53548 -19370168.16146  20810460.2424                   20810457.4884
 -25101787.39148 -19544026.94447  20456819.8594                   20456818.0234
 -29614261.50048 -23060091.01846  21052347.0784                   21052343.1884
 -20550764.35947 -15996517.80844  23756594.9224                   23756594.9384
 -11880024.21948  -9244875.29945  21960104.2734                   21960102.0164
 -12110317.15248  -9424213.55445  22193260.8054                   22193261.4304
 11  8 20  1 26  0.0000000  0  8G10G29G12G05G02G04G30G25
 -22454802.57048 -17483065.07045  21917459.4454                   21917457.6174
   2734353.94946   2140822.35044  24215847.9144                   24215846.8244
 -24902033.19548 -19388949.45646  20805873.3204                   20805870.8404
 -25164280.00848 -19592722.44847  20444928.6024                   20444926.2154
 -29619541.84848 -23064205.58346  21051342.4304                   21051338.1724
 -20502551.33647 -15958949.17644  23765770.4224                   23765769.2814
 -11955726.15248  -9303863.83345  21945698.1414                   21945696.8014
 -12198905.09048  -9493243.09746  22176403.3284                   22176403.6844
 11  8 20  1 26 30.0000000  0  8G10G29G12G05G02G04G30G25
 -22412670.07848 -17450234.56445  21925477.1484                   21925475.5864
   2619876.98846   2051619.55244  24194062.6884                   24194061.6724
 -24925551.14148 -19407275.13147  20801398.0944                   20801395.3284
 -25226202.77348 -19640973.93247  20433144.8054                   20433142.6214
 -29624681.03148 -23068210.15946  21050364.5234                   21050360.5354
 -20454376.48047 -15921410.35643  23774937.3834                   23774936.6914
 -12030856.77348  -9362407.16645  21931401.6174                   21931400.5044
 -12286997.06648  -9561886.19446  22159639.7734                   22159640.3164
 11  8 20  1 27  0.0000000  0  8G10G29G12G05G02G04G30G25
 -22370102.02348 -17417064.68945  21933577.8914                   21933575.5904
   2505340.64846   1962370.51344  24172267.5634                   24172266.8164
 -24948488.26248 -19425148.22246  20797033.6484                   20797030.7114
 -25287558.29348 -19688783.40447  20421469.4304                   20421467.1134
 -29629682.82448 -23072107.66446  21049412.4304                   21049408.7624
 -20406243.45746 -15883904.12743  23784096.8834                   23784096.0164
 -12105417.72748  -9420506.61145  21917213.6484                   21917211.2464
 -12374594.17248  -9630143.66046  22142970.6644                   22142971.1294
 11  8 20  1 27 30.0000000  0  8G10G29G12G05G02G04G30G25
 -22327106.39847 -17383561.62045  21941759.3914                   21941757.9924
   2390740.53146   1873071.72843  24150459.4384                   24150458.7274
 -24970850.16848 -19442573.08146  20792778.0784                   20792775.6414
 -25348350.87948 -19736154.22047  20409900.6884                   20409898.8244
 -29634553.40248 -23075902.93146  21048485.6724                   21048481.6644
 -20358158.42247 -15846435.27243  23793247.6094                   23793246.2854
 -12179412.90248  -9478165.18945  21903132.5864                   21903131.0394
 -12461699.80548  -9698018.16446  22126395.1954                   22126395.4694
 11  8 20  1 28  0.0000000  0  8G10G29G12G05G02G04G30G25
 -22283681.43447 -17349724.00745  21950022.9224                   21950021.7074
   2276081.65246   1783727.19844  24128641.4534                   24128639.9184
 -24992632.79748 -19459546.56546  20788633.0784                   20788630.6414
 -25408575.55148 -19783082.50447  20398440.5084                   20398438.6954
 -29639289.75848 -23079593.60846  21047584.7114                   21047580.5944
 -20310117.98447 -15809001.18444  23802388.9384                   23802387.9304
 -12252836.77348  -9535378.59345  21889160.1094                   21889158.2894
 -12548307.86748  -9765504.98646  22109914.2894                   22109914.2234
 11  8 20  1 28 30.0000000  0  8G10G29G12G05G02G04G30G25
 -22239824.60247 -17315549.88045  21958368.4614                   21958366.6174
   2161370.23446   1694341.69144  24106811.7344                   24106811.6954
 -25013831.15248 -19476064.76746  20784599.2114                   20784596.7734
 -25468226.93448 -19829564.08147  20387089.2114                   20387086.8914
 -29643887.18048 -23083176.02346  21046709.7814                   21046705.4774
 -20262116.89546 -15771597.74943  23811523.1954                   23811522.8714
 -12325682.67248  -9592141.64245  21875298.3674                   21875296.5514
 -12634411.27048  -9832598.52346  22093529.2194                   22093529.4844
 11  8 20  1 29  0.0000000  0  8G10G29G12G05G02G04G30G25
 -22195543.31648 -17281045.01145  21966795.1564                   21966793.7584
   2046602.23446   1604912.10544  24084972.3444                   24084971.0354
 -25034450.41848 -19492131.73947  20780675.4614                   20780672.8054
 -25527309.03548 -19875602.06047  20375846.2664                   20375844.2504
 -29648351.30948 -23086654.57246  21045860.0944                   21045856.0944
 -20214160.96946 -15734229.48644  23820648.9614                   23820648.8594
 -12397954.16448  -9648457.08545  21861545.3284                   21861543.8984
 -12720012.84448  -9899301.03546  22077239.9144                   22077240.2274
 11  8 20  1 29 30.0000000  0  8G10G29G12G05G02G04G30G25
 -22150834.65648 -17246207.11945  21975303.0234                   21975301.1294
   1931784.53946   1515443.78644  24063124.0004                   24063121.9184
 -25054485.46948 -19507743.47146  20776862.8754                   20776860.0664
 -25585815.34048 -19921191.37647  20364712.8364                   20364710.8914
 -29652677.61348 -23090025.71846  21045036.5784                   21045032.9264
 -20166244.99646 -15696892.39743  23829766.5084                   23829766.7814
 -12469644.22748  -9704319.44645  21847903.4534                   21847902.2194
 -12805105.16448  -9965606.73446  22061047.2194                   22061047.8794
 11  8 20  1 30  0.0000000  0  8G10G29G12G05G02G04G30G25
 -22105708.59047 -17211043.98445  21983890.1884                   21983887.9614
   1816910.62546   1425931.66444  24041263.0004                   24041262.8204
 -25073944.05548 -19522906.01046  20773159.9224                   20773157.4844
 -25643752.61748 -19966337.28547  20353687.6094                   20353685.6024
 -29656873.63348 -23093295.35146  21044238.4774                   21044234.2854
 -20118376.78946 -15659592.54543  23838875.9924                   23838875.6724
 -12540758.95348  -9759733.50445  21834370.6174                   21834369.4454
 -12889693.64848 -10031519.83846  22044950.2664                   22044951.1604
 11  8 20  1 30 30.0000000  0  8G10G29G12G05G02G04G30G25
 -22060168.03147 -17175557.85545  21992556.0394                   21992554.9734
   1701980.93047   1336376.11944  24019392.6484                   24019392.1214
 -25092827.39148 -19537620.31046  20769566.3674                   20769564.1334
 -25701120.57848 -20011039.57447  20342770.7974                   20342768.8134
 -29660941.27348 -23096464.94546  21043464.3754                   21043460.1134
 -20070557.43446 -15622330.73243  23847975.5784                   23847975.4064
 -12611297.55148  -9814698.62845  21820947.4844                   21820945.6884
 -12973776.92648 -10097039.25546  22028949.8914                   22028950.9184
 11  8 20  1 31  0.0000000  0  8G10G29G12G05G02G04G30G25
 -22014211.14847 -17139747.30145  22001301.4774                   22001299.9064
   1587001.07046   1246781.43544  23997513.0234                   23997512.1884
 -25111131.08648 -19551882.93546  20766083.8914                   20766080.9304
 -25757914.59448 -20055294.63947  20331963.3914                   20331961.3914
 -29664876.73048 -23099531.53346  21042715.2584                   21042711.5474
 -20022782.82446 -15585103.84743  23857066.9064                   23857066.1644
 -12681254.04748  -9869210.17545  21807635.0004                   21807633.6134
 -13057348.57848 -10162160.00146  22013046.7344                   22013047.4344
 11  8 20  1 31 30.0000000  0  8G10G29G12G05G02G04G30G25
 -21967844.06647 -17103617.12345  22010124.8914                   22010123.1484
   1471968.66046   1157145.83744  23975623.8134                   23975621.9844
 -25128858.38348 -19565696.41746  20762709.9454                   20762707.6174
 -25814137.26648 -20099104.49447  20321264.5634                   20321262.4804
 -29668683.47748 -23102497.83246  21041991.1174                   21041986.9104
 -19975056.94146 -15547914.90143  23866149.0314                   23866147.8444
 -12750630.71548  -9923269.89545  21794433.2814                   21794431.5514
 -13140410.17248 -10226883.29446  21997240.6954                   21997240.9924
 11  8 20  1 32  0.0000000  0  8G10G29G12G05G02G04G30G25
 -21921066.71147 -17067167.25645  22019026.2974                   22019024.8984
   1356887.99646   1067472.62944  23953723.8134                   23953723.7624
 -25146007.42248 -19579059.31546  20759446.7664                   20759443.9774
 -25869784.87148 -20142466.23947  20310675.0944                   20310673.0274
 -29672359.46548 -23105362.23446  21041291.7114                   21041287.7664
 -19927377.02046 -15510761.71443  23875221.6254                   23875221.6684
 -12819423.24247  -9976874.43345  21781342.4694                   21781341.1644
 -13222956.83248 -10291205.34846  21981532.2114                   21981533.1484
 11  8 20  1 32 30.0000000  0  8G10G29G12G05G02G04G30G25
 -21873882.98847 -17030400.76145  22028005.1254                   22028003.1094
   1241758.71547    977761.52744  23931815.9454                   23931814.6454
 -25162579.77748 -19591972.84546  20756293.3984                   20756290.7074
 -25924857.96148 -20185380.31947  20300194.8364                   20300193.0474
 -29675906.81248 -23108126.40246  21040616.6334                   21040612.7854
 -19879744.97346 -15473645.87943  23884286.6724                   23884285.6214
 -12887631.69147 -10030023.84045  21768362.9144                   21768361.5704
 -13304988.04748 -10355125.74746  21965922.7034                   21965923.1414
 11  8 20  1 33  0.0000000  0  8G10G29G12G05G02G04G30G25
 -21826296.31247 -16993320.22645  22037060.6484                   22037058.8284
   1126580.84047    888012.50344  23909898.2504                   23909896.9414
 -25178577.09448 -19604438.29146  20753248.9924                   20753246.6054
 -25979357.47348 -20227847.44847  20289824.2194                   20289821.9774
 -29679327.29348 -23110791.69746  21039965.6174                   21039961.6484
 -19832162.23046 -15436568.48343  23893340.7814                   23893341.3324
 -12955255.87548 -10082717.97945  21755494.0394                   21755492.3204
 -13386503.08248 -10418643.92446  21950410.5394                   21950411.2074
 11  8 20  1 33 30.0000000  0  8G10G29G12G05G02G04G30G25
 -21778308.50847 -16955927.14645  22046192.4614                   22046190.8984
   1011355.87947    798226.90144  23887971.2734                   23887970.6174
 -25193999.04348 -19616455.39146  20750314.2114                   20750311.8834
 -26033282.13748 -20269866.64247  20279562.2734                   20279560.4304
 -29682620.81248 -23113358.08346  21039339.0164                   21039334.9574
 -19784628.42647 -15399529.17443  23902386.5864                   23902386.2424
 -13022293.89548 -10134955.36545  21742737.1484                   21742736.0044
 -13467499.38748 -10481757.89246  21934997.5474                   21934998.1524
 11  8 20  1 34  0.0000000  0  8G10G29G12G05G02G04G30G25
 -21729922.60947 -16918223.87145  22055400.1804                   22055398.2974
    896085.14846    708405.61144  23866036.1724                   23866035.7734
 -25208846.52748 -19628024.86946  20747488.8054                   20747486.1914
 -26086631.53148 -20311437.56547  20269410.3754                   20269408.1764
 -29685788.47748 -23115826.38546  21038736.0864                   21038732.0274
 -19737144.26646 -15362528.56844  23911422.5944                   23911421.8714
 -13088744.93748 -10186735.37845  21730092.2734                   21730090.8054
 -13547975.49248 -10544466.50746  21919683.5164                   21919684.0904
 11  8 20  1 34 30.0000000  0  8G10G29G12G05G02G04G30G25
 -21681144.05547 -16880214.63445  22064682.2114                   22064680.3554
    780767.04347    618547.35944  23844091.1174                   23844090.2464
 -25223122.67248 -19639149.14846  20744772.2974                   20744769.7344
 -26139407.91848 -20352562.00047  20259367.5554                   20259365.3634
 -29688833.09048 -23118198.79646  21038156.8754                   21038152.5394
 -19689712.57846 -15325568.86543  23920447.8204                   23920447.7234
 -13154610.23447 -10238058.95545  21717558.3674                   21717556.5904
 -13627932.06648 -10606770.29946  21904468.2114                   21904468.8754
 11  8 20  1 35  0.0000000  0  8G10G29G12G05G02G04G30G25
 -21631971.69947 -16841898.53145  22074039.3444                   22074037.5084
    665406.35247    528655.97744  23822138.5084                   23822138.3874
 -25236824.52048 -19649825.91546  20742165.0944                   20742162.5474
 -26191607.18748 -20393236.73047  20249434.2894                   20249432.0004
 -29691752.12148 -23120473.37046  21037601.0704                   21037597.4024
 -19642330.12946 -15288647.47143  23929464.8524                   23929464.2734
 -13219885.08647 -10288922.45045  21705136.7734                   21705135.5394
 -13707363.78148 -10668665.10346  21889352.6024                   21889353.6884
 11  8 20  1 35 30.0000000  0  8G10G29G12G05G02G04G30G25
 -21582408.90647 -16803278.15345  22083470.8674                   22083469.3714
    550003.43446    438731.67444  23800178.7664                   23800178.1564
 -25249953.05148 -19660055.94646  20739666.5944                   20739664.1374
 -26243229.37548 -20433461.77147  20239610.7814                   20239608.7034
 -29694546.55948 -23122650.85046  21037069.5474                   21037065.2234
 -19594997.96546 -15251765.31943  23938472.3134                   23938471.2894
 -13284569.00047 -10339325.46746  21692828.0784                   21692826.6374
 -13786269.47348 -10730150.01646  21874337.6254                   21874338.0594
 11  8 20  1 36  0.0000000  0  8G10G29G12G05G02G04G30G25
 -21532459.99247 -16764356.94945  22092976.0474                   22092974.6374
    434557.47346    348773.82244  23778210.2114                   23778209.4574
 -25262511.02348 -19669841.38046  20737276.5004                   20737274.3164
 -26294275.97348 -20473238.31247  20229896.9384                   20229895.0864
 -29697218.90248 -23124733.19746  21036560.9534                   21036557.0394
 -19547718.06246 -15214923.87543  23947468.5704                   23947468.3954
 -13348662.62147 -10389268.52046  21680631.6024                   21680629.9144
 -13864649.16848 -10791225.07746  21859422.1884                   21859422.8204
 11  8 20  1 36 30.0000000  0  8G10G29G12G05G02G04G30G25
 -21482124.30547 -16725134.34945  22102554.8284                   22102552.7814
    319073.40647    258786.26044  23756234.1094                   23756233.0354
 -25274495.24248 -19679179.73646  20734996.4614                   20734993.7814
 -26344743.42648 -20512563.57047  20220293.2664                   20220291.3054
 -29699766.56648 -23126718.38746  21036076.2194                   21036072.0204
 -19500487.73846 -15178121.04943  23956456.8204                   23956456.6174
 -13412161.70747 -10438748.30345  21668547.8444                   21668546.4734
 -13942498.03948 -10851886.51346  21844608.0944                   21844608.2504
 11  8 20  1 37  0.0000000  0  8G10G29G12G05G02G04G30G25
 -21431408.80147 -16685615.81245  22112205.5554                   22112203.8914
    203548.03947    168766.51944  23734250.7734                   23734249.5634
 -25285911.53948 -19688075.55846  20732823.8984                   20732821.5594
 -26394635.72748 -20551440.66047  20210799.0084                   20210796.9304
 -29702194.16448 -23128610.01546  21035614.0474                   21035610.0044
 -19453311.46146 -15141360.33643  23965434.7424                   23965433.5234
 -13475069.57447 -10487767.40046  21656576.9384                   21656575.1954
 -14019818.64848 -10912136.31446  21829894.3674                   21829895.3834
 11  8 20  1 37 30.0000000  0  8G10G29G12G05G02G04G30G25
 -21380314.71147 -16645802.23945  22121928.2504                   22121926.6334
     87984.08647     78716.76844  23712258.8364                   23712258.9184
 -25296758.57048 -19696527.80046  20730759.8364                   20730757.1214
 -26443950.94948 -20589868.06847  20201414.7194                   20201412.4024
 -29704501.16048 -23130407.66846  21035175.3984                   21035171.2274
 -19406187.94547 -15104640.77143  23974402.1024                   23974400.8794
 -13537383.53147 -10536323.70445  21644718.8284                   21644717.2384
 -14096607.79748 -10971971.98146  21815282.0084                   21815283.0594
 11  8 20  1 38  0.0000000  0  8G10G29G12G05G02G04G30G25
 -21328846.64547 -16605697.26645  22131722.1644                   22131720.6054
    -27619.14847    -11363.64444  23690260.9694                   23690259.7664
 -25307039.05148 -19704538.56746  20728803.4064                   20728800.6134
 -26492690.54748 -20627846.94147  20192139.7584                   20192137.7544
 -29706689.81248 -23132113.10446  21034758.8594                   21034754.5514
 -19359119.30546 -15067963.87243  23983358.3284                   23983357.4844
 -13599104.56247 -10584418.00745  21632974.0944                   21632972.0044
 -14172865.66448 -11031393.67846  21800770.7974                   21800771.1564
 11  8 20  1 38 30.0000000  0  8G10G29G12G05G02G04G30G25
 -21277009.57447 -16565304.78545  22141586.9924                   22141585.0314
   -143262.98447   -101475.69144  23668255.0944                   23668254.1484
 -25316756.27348 -19712110.43346  20726954.2974                   20726951.8954
 -26540856.82048 -20665379.07747  20182974.0474                   20182972.0824
 -29708763.08647 -23133728.63146  21034364.0084                   21034359.8444
 -19312108.60546 -15031332.24143  23992304.5474                   23992303.5664
 -13660234.05147 -10632051.35446  21621341.1414                   21621339.6994
 -14248593.09048 -11090402.02846  21786360.3364                   21786360.5864
 11  8 20  1 39  0.0000000  0  8G10G29G12G05G02G04G30G25
 -21224798.35947 -16524620.73345  22151522.1254                   22151520.1644
   -258938.18047   -191612.21044  23646242.1884                   23646240.5084
 -25325902.94548 -19719237.71246  20725214.0164                   20725211.3834
 -26588441.71148 -20702458.17847  20173918.8284                   20173916.7704
 -29710713.69947 -23135248.59646  21033992.8674                   21033988.7074
 -19265148.21546 -14994739.73043  24001240.5164                   24001239.0864
 -13720763.32847 -10679217.02146  21609823.1414                   21609821.2734
 -14323780.69548 -11148989.76646  21772052.1884                   21772052.9224
 11  8 20  1 39 30.0000000  0  8G10G29G12G05G02G04G30G25
 -21172219.46547 -16483650.18245  22161527.0004                   22161525.8524
   -374647.32047   -281775.14944  23624223.4384                   23624222.2854
 -25334483.72348 -19725924.03846  20723580.8914                   20723578.5634
 -26635448.59848 -20739086.91047  20164973.7974                   20164971.6334
 -29712546.20348 -23136676.52546  21033644.1484                   21033639.8364
 -19218241.83646 -14958189.33143  24010166.8984                   24010166.5044
 -13780695.17648 -10725917.12446  21598418.2194                   21598416.8714
 -14398430.52048 -11207158.45646  21757847.1254                   21757847.0664
 11  8 20  1 40  0.0000000  0  8G10G29G12G05G02G04G30G25
 -21119274.40247 -16442394.30645  22171602.7974                   22171601.1254
   -490387.97747   -371962.62944  23602198.7424                   23602198.3364
 -25342498.09448 -19732169.01446  20722055.9844                   20722053.1214
 -26681876.33648 -20775264.33947  20156138.8204                   20156136.7814
 -29714259.82848 -23138011.79446  21033318.1564                   21033313.9844
 -19171388.78946 -14921680.48443  24019082.8834                   24019082.2304
 -13840027.52048 -10772150.11545  21587127.5394                   21587126.3204
 -14472539.87148 -11264906.00346  21743744.4144                   21743744.5514
 11  8 20  1 40 30.0000000  0  8G10G29G12G05G02G04G30G25
 -21065964.21547 -16400853.90845  22181746.9924                   22181745.4184
   -606157.27347   -462172.43744  23580168.3834                   23580167.0744
 -25349945.49648 -19737972.17846  20720638.7344                   20720636.3714
 -26727722.80548 -20810988.83647  20147414.5004                   20147412.1334
 -29715853.32048 -23139253.47546  21033014.9224                   21033010.7194
 -19124587.48446 -14885211.92043  24027988.8754                   24027987.9924
 -13898757.95748 -10817914.08045  21575951.2664                   21575949.3244
 -14546105.63348 -11322229.96846  21729745.4614                   21729745.8094
 11  8 20  1 41  0.0000000  0  8G10G29G12G05G02G04G30G25
 -21012294.10547 -16359033.07545  22191959.9454                   22191958.1094
   -721956.35547   -552405.43344  23558132.3284                   23558132.0704
 -25356829.23848 -19743336.13646  20719328.7974                   20719326.4964
 -26772990.43448 -20846262.29147  20138800.4924                   20138798.4224
 -29717330.12948 -23140404.22446  21032733.7734                   21032729.3834
 -19077840.87146 -14848786.19743  24036884.0084                   24036883.8444
 -13956887.99247 -10863210.21046  21564889.6644                   21564887.8674
 -14619128.60548 -11379130.98646  21715849.5704                   21715849.9494
 11  8 20  1 41 30.0000000  0  8G10G29G12G05G02G04G30G25
 -19382854.14147 -15089339.58945  22502032.4774                   22502031.0124
    737634.82446    584938.39044  23835883.3674                   23835882.7854
 -23787735.13748 -18520665.41346  21017917.6954                   21017914.9804
 -25242263.01648 -19653487.66847  20430087.9774                   20430086.1954
 -28143275.80548 -21913868.38046  21332266.2734                   21332262.3404
 -17455736.14546 -13584808.34643  24345560.0234                   24345559.9104
 -12439000.37548  -9680440.63746  21853734.3284                   21853732.6804
 -13116190.38348 -10208010.28746  22001849.0864                   22001849.6134
 11  8 20  1 42  0.0000000  0  8G10G29G12G05G02G04G30G25
 -19328478.50447 -15046968.96845  22512380.1094                   22512378.6844
    621774.10546    494657.36444  23813835.8754                   23813834.9654
 -23793500.42648 -18525157.84646  21016820.0314                   21016817.8244
 -25286379.18448 -19687863.88447  20421693.3134                   20421690.9104
 -28144526.32048 -21914842.79846  21332028.6564                   21332024.1254
 -17409105.62546 -13548472.90343  24354433.9064                   24354432.5744
 -12495933.52048  -9724804.11346  21842899.9144                   21842898.2304
 -13188129.68048 -10264066.87946  21988159.9534                   21988159.8834
 11  8 20  1 42 30.0000000  0  8G10G29G12G05G02G04G30G25
 -19273753.89847 -15004326.41845  22522793.5394                   22522791.4454
    505884.65647    404353.94844  23791783.2814                   23791781.8524
 -23798707.87948 -18529215.60146  21015829.5004                   21015827.1174
 -25329919.01648 -19721791.00047  20413407.7034                   20413405.5704
 -28145664.36748 -21915729.58346  21331811.9064                   21331807.6994
 -17362533.32446 -13512182.78343  24363296.4694                   24363295.1764
 -12552266.91448  -9768700.26846  21832180.6094                   21832178.3954
 -13259524.72348 -10319699.38846  21974573.7664                   21974573.5664
 11  8 20  1 43  0.0000000  0  8G10G29G12G05G02G04G30G25
 -19218683.76247 -14961414.61545  22533272.7344                   22533271.2734
    389966.81347    314028.37544  23769724.7344                   23769723.9614
 -23803358.86747 -18532839.76246  21014944.7504                   21014941.8874
 -25372883.47348 -19755269.78947  20405231.6804                   20405229.6524
 -28146691.59048 -21916530.00946  21331616.1884                   21331612.3634
 -17316020.09046 -13475938.80943  24372147.9614                   24372147.0314
 -12608000.48048  -9812129.02246  21821574.4224                   21821572.7154
 -13330374.78148 -10374907.21546  21961091.1564                   21961092.0314
 11  8 20  1 43 30.0000000  0  9G26G10G29G12G05G02G04G30G25
   7695611.90255   6007770.32852  24941473.2974                   24941473.7234
 -19163268.49647 -14918233.86845  22543818.0784                   22543816.3674
    274024.60547    223683.85744  23747661.1954                   23747660.0514
 -23807452.00848 -18536029.21946  21014165.4384                   21014163.4264
 -25415269.85948 -19788298.11847  20397165.9454                   20397163.7074
 -28147605.43448 -21917242.09146  21331442.6024                   21331438.4574
 -17269563.92646 -13439739.12043  24380987.8914                   24380987.1524
 -12663131.22348  -9855088.03946  21811083.5004                   21811081.7584
 -13400676.03548 -10429687.41146  21947713.8524                   21947713.9964
 11  8 20  1 44  0.0000000  0  9G26G10G29G12G05G02G04G30G25
   7570949.13745   5910630.70742  24917750.5314                   24917750.9344
 -19107518.15246 -14874792.03645  22554426.8284                   22554425.0634
    158051.82046    133315.49044  23725591.8594                   23725591.5864
 -23810995.89148 -18538790.69846  21013491.0164                   21013488.5704
 -25457085.70348 -19820881.87447  20389208.6334                   20389206.4844
 -28148414.18048 -21917872.28346  21331289.0634                   21331284.4384
 -17223172.40246 -13403589.92443  24389815.4384                   24389815.7584
 -12717665.96948  -9897582.65145  21800705.9064                   21800704.1604
 -13470434.67648 -10484044.79146  21934439.0164                   21934439.1334
 11  8 20  1 44 30.0000000  0  9G26G10G29G12G05G02G04G30G25
   7446140.59445   5813377.48042  24893999.8984                   24894000.8364
 -19051439.60946 -14831094.46345  22565098.3364                   22565096.4964
     42045.77047     42921.27645  23703517.4304                   23703516.2814
 -23813995.96148 -18541128.41946  21012920.4534                   21012917.7774
 -25498335.34448 -19853024.42847  20381359.0634                   20381357.0354
 -28149122.47348 -21918424.19546  21331154.0164                   21331149.6724
 -17176849.66446 -13367494.27243  24398631.0004                   24398630.7854
 -12771608.12948  -9939615.50945  21790441.1804                   21790439.3794
 -13539653.38748 -10537981.43946  21921267.0394                   21921267.3554
 11  8 20  1 45  0.0000000  0  9G26G10G29G12G05G02G04G30G25
   7321191.46946   5716014.62543  24870223.4924                   24870223.0944
 -18995033.35546 -14787141.56445  22575832.0234                   22575830.5274
    -73989.91447    -47496.12544  23681436.1094                   23681435.1524
 -23816450.71148 -18543041.20646  21012452.7814                   21012450.1954
 -25539016.54748 -19884724.04647  20373617.7584                   20373615.5634
 -28149728.49648 -21918896.42346  21331038.4774                   21331034.3324
 -17130593.68446 -13331450.62643  24407432.9144                   24407432.3914
 -12824954.84848  -9981184.37746  21780289.4064                   21780287.3834
 -13608328.53548 -10591494.53946  21908198.3834                   21908198.6914
 11  8 20  1 45 30.0000000  0  9G26G10G29G12G05G02G04G30G25
   7196108.73846   5618547.88043  24846420.3524                   24846421.4964
 -18938298.03947 -14742932.22245  22586628.6484                   22586626.8714
   -190049.80147   -137932.32144  23659350.5944                   23659349.7624
 -23818357.09847 -18544526.71246  21012090.2664                   21012087.8674
 -25579125.09448 -19915977.43147  20365985.3054                   20365983.2934
 -28150228.49248 -21919286.02146  21330943.2894                   21330938.7894
 -17084400.55947 -13295455.97143  24416223.5084                   24416222.2344
 -12877701.28548 -10022285.50945  21770252.2194                   21770250.7664
 -13676454.56648 -10644579.75746  21895234.4384                   21895234.7034
 11  8 20  1 46  0.0000000  0  9G26G10G29G12G05G02G04G30G25
   7070900.55146   5520983.13943  24822593.7814                   24822594.9924
 -18881231.48047 -14698464.77245  22597487.9694                   22597486.5664
   -306127.43447   -228382.39444  23637261.4384                   23637261.2194
 -23819711.54748 -18545582.12646  21011832.5634                   21011829.8164
 -25618656.11348 -19946780.78947  20358462.7194                   20358460.3914
 -28150618.16048 -21919589.64946  21330869.5864                   21330865.2074
 -17038265.36747 -13259506.42943  24425002.8754                   24425002.0274
 -12929841.93748 -10062914.58046  21760330.2034                   21760328.2894
 -13744025.28548 -10697232.25246  21882376.1024                   21882376.6604
 11  8 20  1 46 30.0000000  0  9G26G10G29G12G05G02G04G30G25
   6945565.57046   5423319.72043  24798743.5554                   24798744.6484
 -18823840.71547 -14653744.69745  22608409.2734                   22608407.1764
   -422225.85947   -318848.64344  23615169.1024                   23615167.7274
 -23820519.26248 -18546211.51546  21011679.0004                   21011676.3524
 -25657614.16848 -19977137.68647  20351049.1094                   20351046.9344
 -28150902.09448 -21919810.88446  21330815.0784                   21330811.2664
 -16992192.85547 -13223605.76544  24433769.5314                   24433769.9734
 -12981380.61748 -10103074.60245  21750522.6564                   21750520.7814
 -13811043.66848 -10749454.36746  21869622.8984                   21869623.6564
 11  8 20  1 47  0.0000000  0  9G26G10G29G12G05G02G04G30G25
   6820110.32846   5325562.56843  24774869.5474                   24774870.9884
 -18766124.74246 -14608771.24645  22619391.4384                   22619390.2544
   -538340.05947   -409327.20245  23593072.8444                   23593072.7854
 -23820777.84048 -18546413.00846  21011629.7034                   21011627.1524
 -25695995.77048 -20007045.39647  20343745.5394                   20343743.3794
 -28151077.27348 -21919947.39446  21330781.6804                   21330777.8444
 -16946179.30147 -13187751.01744  24442525.5394                   24442525.6484
 -13032313.23448 -10142762.34846  21740830.4064                   21740828.6804
 -13877504.93447 -10801242.33946  21856975.9694                   21856976.6134
 11  8 20  1 47 30.0000000  0  9G26G10G29G12G05G02G04G30G25
   6694533.10946   5227710.37343  24750974.5314                   24750974.0314
 -18708090.84447 -14563550.03045  22630435.2894                   22630433.7194
   -654473.08247   -499820.40144  23570973.7894                   23570972.7464
 -23820492.98048 -18546191.03846  21011684.0314                   21011681.4304
 -25733805.82048 -20036507.73947  20336550.6644                   20336548.1644
 -28151148.68448 -21920003.02646  21330768.1094                   21330763.9414
 -16900229.44147 -13151945.92444  24451270.1024                   24451269.4024
 -13082643.96548 -10181981.11046  21731252.6024                   21731251.3954
 -13943412.45348 -10852598.85646  21844434.0704                   21844434.3244
 11  8 20  1 48  0.0000000  0  9G26G10G29G12G05G02G04G30G25
   6568836.31346   5129765.01943  24727054.4064                   24727055.2544
 -18649742.87147 -14518084.08544  22641539.1414                   22641537.3634
   -770624.72747   -590328.14644  23548870.9064                   23548869.9964
 -23819667.27748 -18545547.63346  21011840.7194                   21011838.5474
 -25771045.36748 -20065525.52947  20329464.1724                   20329461.6374
 -28151117.81648 -21919978.97246  21330774.3984                   21330770.0474
 -16854344.43447 -13116191.35444  24460002.0084                   24460001.2854
 -13132373.38348 -10220731.29846  21721789.5084                   21721788.0164
 -14008766.10548 -10903523.76546  21831997.4224                   21831997.9804
 11  8 20  1 48 30.0000000  0  9G26G10G29G12G05G02G04G30G25
   6443027.50846   5031732.32944  24703113.0784                   24703113.9654
 -18591078.91046 -14472371.91045  22652702.3134                   22652700.5164
   -886788.70747   -680845.47844  23526765.7504                   23526764.3794
 -23818296.80148 -18544479.73146  21012102.0234                   21012099.4694
 -25807709.77748 -20094095.16247  20322486.9384                   20322484.6804
 -28150980.48048 -21919871.94446  21330800.4694                   21330796.1804
 -16808519.91046 -13080483.87944  24468721.0474                   24468720.8754
 -13181496.32848 -10259008.90646  21712442.0164                   21712440.2464
 -14073559.91447 -10954012.44646  21819667.6644                   21819668.3754
 11  8 20  1 49  0.0000000  0  9G26G10G29G12G05G02G04G30G25
   6317112.27047   4933616.75044  24679152.0394                   24679152.8094
 -18532098.92646 -14426413.50045  22663925.2894                   22663923.5044
  -1002961.18047   -771369.41844  23504658.7504                   23504657.3984
 -23816380.78548 -18542986.73846  21012466.4534                   21012463.8754
 -25843797.23848 -20122215.22647  20315619.7034                   20315617.5234
 -28150734.65248 -21919680.39546  21330846.9384                   21330843.0164
 -16762753.25446 -13044821.56443  24477431.3054                   24477430.2544
 -13230010.01648 -10296811.79446  21703209.9064                   21703208.4454
 -14137790.34447 -11004062.13746  21807445.1094                   21807445.3554
 11  8 20  1 49 30.0000000  0  9G26G10G29G12G05G02G04G30G25
   6191094.24246   4835421.05944  24655171.9694                   24655172.3324
 -18472805.27347 -14380210.65544  22675208.9844                   22675207.5554
  -1119140.10247   -861898.40944  23482550.3594                   23482549.4024
 -23813919.80948 -18541069.08346  21012934.5944                   21012932.2274
 -25879307.18448 -20149885.26447  20308862.4224                   20308860.1914
 -28150379.98448 -21919404.03146  21330914.7974                   21330909.9614
 -16717044.23446 -13009204.11743  24486128.7034                   24486128.2544
 -13277913.34448 -10334139.05446  21694094.3594                   21694092.4964
 -14201455.49648 -11053671.34146  21795329.9224                   21795330.4534
 11  8 20  1 50  0.0000000  0  9G26G10G29G12G05G02G04G30G25
   6064975.72346   4737146.98043  24631172.0864                   24631172.5044
 -18413201.63347 -14333766.23644  22686551.6334                   22686549.2464
  -1235324.79747   -952431.89444  23460441.2274                   23460439.5784
 -23810915.85948 -18538728.33446  21013506.4304                   21013503.8524
 -25914240.81647 -20177106.24147  20302214.6954                   20302212.3164
 -28149917.82448 -21919043.91046  21331002.3754                   21330998.3054
 -16671393.47346 -12973631.98043  24494815.7274                   24494814.4184
 -13325206.88748 -10370991.16546  21685094.7424                   21685093.0554
 -14264555.21947 -11102839.95146  21783322.2194                   21783322.6884
 11  8 20  1 50 30.0000000  0  9G26G10G29G12G05G02G04G30G25
   5938753.68046   4638792.38943  24607152.5004                   24607153.6804
 -18353296.32447 -14287086.76644  22697950.9614                   22697949.1604
  -1351519.85547  -1042973.45544  23438329.7664                   23438329.3714
 -23807376.34848 -18535970.27946  21014180.0554                   21014177.5164
 -25948604.57847 -20203883.16747  20295675.5784                   20295673.3014
 -28149354.77748 -21918605.18046  21331109.8524                   21331105.5164
 -16625807.50846 -12938110.58743  24503490.5234                   24503489.4304
 -13371896.46148 -10407372.64546  21676209.9384                   21676208.3714
 -14327094.40647 -11151571.78046  21771421.8524                   21771422.3404
 11  8 20  1 51  0.0000000  0  9G26G10G29G12G05G02G04G30G25
   5812434.41047   4540361.94143  24583115.4614                   24583114.6684
 -18293089.56247 -14240172.37744  22709407.9384                   22709405.2814
  -1467721.18447  -1133519.89544  23416217.2114                   23416216.2274
 -23803300.18448 -18532794.05046  21014955.6884                   21014953.0864
 -25982395.84848 -20230213.98747  20289245.1804                   20289243.2704
 -28148688.19148 -21918085.75846  21331236.3594                   21331232.4024
 -16580283.23046 -12902637.12243  24512152.8134                   24512153.0984
 -13417978.80948 -10443280.97346  21667440.6414                   21667438.9924
 -14389069.19148 -11199863.79546  21759628.5394                   21759628.5904
 11  8 20  1 51 30.0000000  0  9G26G10G29G12G05G02G04G30G25
   5686018.93846   4441856.54143  24559058.6954                   24559059.2504
 -18232585.89547 -14193026.63644  22720920.9774                   22720919.2384
  -1583928.60947  -1224071.07244  23394103.4844                   23394103.0354
 -23798690.20348 -18529201.85946  21015832.8984                   21015830.4804
 -26015616.87148 -20256100.45847  20282923.0474                   20282921.2774
 -28147920.20348 -21917487.32046  21331382.5554                   21331378.7734
 -16534821.76655 -12867212.33252  24520803.3754                   24520802.9614
 -13463455.59048 -10478717.41046  21658787.1644                   21658785.0164
 -14450480.37947 -11247716.65446  21747941.8444                   21747942.4844
 11  8 20  1 52  0.0000000  0  9G26G10G29G12G05G02G04G30G25
   5559509.73046   4343278.08743  24534984.6954                   24534984.8594
 -18171788.65247 -14145652.17844  22732490.2344                   22732488.5084
  -1700141.48846  -1314626.52344  23371989.1724                   23371987.5274
 -23793548.38748 -18525195.24146  21016811.1884                   21016808.7234
 -26048268.74648 -20281543.45247  20276710.0314                   20276707.3874
 -28147052.07447 -21916810.85546  21331547.6334                   21331543.5824
 -16489425.69945 -12831838.82042  24529442.3754                   24529442.1914
 -13508327.14148 -10513682.24046  21650247.9774                   21650246.2384
 -14511327.53147 -11295129.99546  21736363.3204                   21736363.8054
 11  8 20  1 52 30.0000000  0  9G26G10G29G12G05G02G04G30G25
   5432910.14146   4244629.21243  24510893.1484                   24510893.7154
 -18110700.59046 -14098051.07744  22744114.9774                   22744113.1804
  -1816358.24647  -1405184.99145  23349874.0004                   23349873.8284
 -23787876.17648 -18520775.34146  21017891.0004                   21017888.2344
 -26080351.71148 -20306543.12947  20270604.7034                   20270602.3284
 -28146083.95747 -21916056.46346  21331732.2974                   21331727.9304
 -16444093.81645 -12796515.18042  24538069.0394                   24538068.4024
 -13552593.23848 -10548175.30846  21641824.3594                   21641822.7974
 -14571609.52348 -11342102.98546  21724891.9144                   21724892.6524
 11  8 20  1 53  0.0000000  0  9G26G10G29G12G05G02G04G30G25
   5306226.44946   4145914.74243  24486786.4224                   24486786.3164
 -18049321.26247 -14050223.03344  22755795.7664                   22755793.3674
  -1932574.23447  -1495742.86944  23327758.1024                   23327756.9734
 -23781671.80148 -18515940.77546  21019071.4614                   21019068.8054
 -26111863.41847 -20331097.67147  20264608.3284                   20264606.1134
 -28145013.12147 -21915222.03846  21331935.6254                   21331931.4884
 -16398823.53146 -12761239.70342  24546683.3914                   24546682.4924
 -13596250.60548 -10582194.04246  21633516.9304                   21633515.0594
 -14631322.39548 -11388632.47846  21713528.8914                   21713529.3554
 11  8 20  1 53 30.0000000  0  9G26G10G29G12G05G02G04G30G25
   5179462.70746   4047137.94542  24462663.4694                   24462663.5234
 -17987652.69946 -14002169.63244  22767529.8834                   22767528.7974
  -2048787.10247  -1586298.32644  23305644.6024                   23305643.2154
 -23774935.73848 -18510691.89946  21020353.2734                   21020350.8244
 -26142803.13747 -20355206.50847  20258720.8674                   20258718.1054
 -28143839.19547 -21914307.28346  21332159.2344                   21332154.5744
 -16353613.78146 -12726011.25042  24555287.6094                   24555285.5944
 -13639298.36348 -10615737.74746  21625325.2974                   21625323.5514
 -14690464.32847 -11434717.08546  21702274.6024                   21702274.9534
 11  8 20  1 54  0.0000000  0  9G26G10G29G12G05G02G04G30G25
   5052620.07846   3948299.66442  24438525.6414                   24438525.3554
 -17925699.39146 -13953894.31744  22779319.6254                   22779317.8984
  -2164997.14546  -1676851.55245  23283530.1954                   23283528.8954
 -23767671.62948 -18505031.55646  21021735.3054                   21021732.9654
 -26173173.47348 -20378871.68947  20252941.1414                   20252938.8984
 -28142564.30547 -21913313.85946  21332401.1334                   21332397.7504
 -16308466.33246 -12690831.40642  24563877.7974                   24563876.2624
 -13681738.17248 -10648807.73446  21617248.8914                   21617247.3164
 -14749036.30547 -11480357.56946  21691128.7504                   21691128.9344
 11  8 20  1 54 30.0000000  0  9G26G10G29G12G05G02G04G30G25
   4925700.18046   3849401.16143  24414374.4774                   24414373.8014
 -17863465.78546 -13905400.62944  22791162.1254                   22791160.9574
  -2281204.38347  -1767402.61245  23261416.9924                   23261415.6214
 -23759882.68048 -18498962.24846  21023217.8284                   21023215.2464
 -26202976.40248 -20402094.72647  20247269.9144                   20247267.6684
 -28141190.36747 -21912243.24246  21332663.0234                   21332658.9144
 -16263382.97347 -12655701.53142  24572457.0704                   24572455.9574
 -13723571.56648 -10681405.18346  21609288.6174                   21609286.6804
 -14807038.94548 -11525554.41646  21680091.3524                   21680091.8014
 11  8 20  1 55  0.0000000  0  9G26G10G29G12G05G02G04G30G25
   4798706.59846   3750445.26043  24390207.4774                   24390207.7974
 -17800954.37946 -13856690.42944  22803058.1174                   22803056.0234
  -2397407.19946  -1857950.21245  23239303.8594                   23239302.6844
 -23751570.56248 -18492485.27946  21024799.3524                   21024796.8674
 -26232212.30548 -20424875.92447  20241706.2814                   20241704.2584
 -28139717.75447 -21911095.72246  21332943.3364                   21332939.1374
 -16218363.58647 -12620621.53343  24581025.0474                   24581023.8094
 -13764798.33248 -10713529.93546  21601443.2034                   21601441.6134
 -14864471.32047 -11570306.88946  21669162.5164                   21669162.8014
 11  8 20  1 55 30.0000000  0  9G26G10G29G12G05G02G04G30G25
   4671641.73846   3651433.78843  24366028.0394                   24366028.0554
 -17738168.71946 -13807766.57044  22815005.6804                   22815004.0314
  -2513605.01647  -1948493.94845  23217192.0004                   23217191.0234
 -23742737.25848 -18485602.19046  21026480.2894                   21026477.4104
 -26260882.70748 -20447216.48047  20236250.5704                   20236248.0944
 -28138147.60547 -21909872.21646  21333241.9694                   21333237.9574
 -16173408.95747 -12585591.98643  24589579.2034                   24589578.7934
 -13805419.25848 -10745182.60846  21593713.4694                   21593711.9224
 -14921333.36748 -11614614.95046  21658341.8364                   21658342.1214
 11  8 20  1 56  0.0000000  0  9G26G10G29G12G05G02G04G30G25
   4544509.59446   3552369.90443  24341835.5004                   24341836.4224
 -17675110.36346 -13758630.21644  22827005.4454                   22827003.1374
  -2629794.73846  -2039031.32545  23195081.9144                   23195081.1724
 -23733382.89548 -18478313.08846  21028260.4144                   21028257.8834
 -26288986.93448 -20469115.85547  20230902.6644                   20230900.1134
 -28136478.80547 -21908571.83746  21333559.6644                   21333555.5394
 -16128517.85947 -12550611.92943  24598121.2814                   24598121.1024
 -13845433.19148 -10776362.29046  21586098.9614                   21586097.3284
 -14977623.10947 -11658477.06046  21647630.1254                   21647630.7074
 11  8 20  1 56 30.0000000  0  9G26G10G29G12G05G02G04G30G25
   4417314.19546   3453256.69243  24317631.3674                   24317630.9384
 -17611781.57846 -13709283.11644  22839055.9924                   22839054.6724
  -2745974.58246  -2129561.07545  23172974.1804                   23172973.1684
 -23723509.00048 -18470619.14146  21030139.3364                   21030137.0514
 -26316525.38747 -20490574.36747  20225662.2734                   20225659.6684
 -28134711.58647 -21907194.77346  21333896.4844                   21333891.8484
 -16083690.03947 -12515681.20443  24606652.1254                   24606651.3984
 -13884839.79348 -10807068.72546  21578600.0234                   21578598.1524
 -15033339.41447 -11701892.35046  21637027.8914                   21637027.9694
 11  8 20  1 57  0.0000000  0  9G26G10G29G12G05G02G04G30G25
   4290058.78146   3354096.81043  24293415.6094                   24293415.2704
 -17548185.01647 -13659727.37144  22851158.5004                   22851156.9064
  -2862142.53146  -2220081.51845  23150867.8984                   23150866.1054
 -23713117.22748 -18462521.66746  21032116.9064                   21032114.4734
 -26343498.35948 -20511592.25247  20220529.4064                   20220527.1254
 -28132846.05947 -21905741.10846  21334250.4144                   21334246.8554
 -16038925.26647 -12480799.61644  24615170.1414                   24615169.5634
 -13923638.91848 -10837301.79546  21571216.8914                   21571215.2304
 -15088481.23448 -11744859.98046  21626534.1174                   21626534.9344
 11  8 20  1 57 30.0000000  0  8G26G10G29G12G05G02G30G25
   4162743.66846   3254890.30044  24269187.7424                   24269188.2304
 -17484326.31246 -13609967.37644  22863311.0554                   22863308.7074
  -2978300.09446  -2310593.88545  23128763.2114                   23128762.5824
 -23702212.04748 -18454024.13446  21034192.2584                   21034189.3324
 -26369909.70748 -20532172.51647  20215503.1334                   20215500.9844
 -28130885.64147 -21904213.48246  21334624.1414                   21334619.7894
 -13961833.80547 -10867064.03046  21563948.2814                   21563946.6764
 -15143051.00848 -11787381.85446  21616150.2734                   21616150.7154
 11  8 20  1 58  0.0000000  0  8G26G10G29G12G05G02G30G25
   4035377.31647   3155643.91644  24244950.8524                   24244950.9024
 -17420202.91046 -13560001.09244  22875512.3594                   22875510.9964
  -3094440.34046  -2401092.74745  23106662.6954                   23106661.7504
 -23690789.44148 -18445123.41246  21036365.5394                   21036363.2194
 -26395754.65648 -20552311.41447  20210585.2894                   20210583.0904
 -28128824.93747 -21902607.72846  21335016.0004                   21335012.3094
 -13999419.14148 -10896351.28846  21556796.1094                   21556794.9694
 -15197042.62548 -11829453.20846  21605875.8364                   21605876.5474
 11  8 20  1 58 30.0000000  0  8G26G10G29G12G05G02G30G25
   3907969.80146   3056365.46544  24220705.4454                   24220705.6094
 -17355810.91446 -13509825.57144  22887766.4384                   22887764.7344
  -3210554.94947  -2491571.65345  23084567.1884                   23084565.5314
 -23678844.81248 -18435815.90446  21038638.4694                   21038636.1524
 -26421026.82048 -20572003.99447  20205776.1174                   20205773.7974
 -28126657.63348 -21900918.90146  21335428.7894                   21335424.5164
 -14036388.33248 -10925158.45346  21549761.3364                   21549759.8754
 -15250448.57448 -11871068.20946  21595713.4454                   21595713.5944
 11  8 20  1 59  0.0000000  0  8G26G10G29G12G05G02G30G25
   3780521.51646   2957055.24944  24196453.4224                   24196453.2074
 -17291155.86346 -13459445.03844  22900069.5084                   22900067.9884
  -3326645.28947  -2582031.61345  23062475.5004                   23062475.2814
 -23666382.76248 -18426105.21946  21041010.2194                   21041007.6214
 -26445730.58247 -20591253.66847  20201075.0314                   20201073.0904
 -28124386.97348 -21899149.53646  21335860.4614                   21335856.4774
 -14072744.52047 -10953487.91746  21542842.6024                   21542841.1604
 -15303271.23448 -11912228.68946  21585661.5864                   21585661.8134
 11  8 20  1 59 30.0000000  0  8G26G10G29G12G05G02G30G25
   3653034.77347   2857715.06443  24172193.4614                   24172193.4024
 -17226241.93446 -13408862.75744  22912422.8754                   22912420.5354
  -3442711.00047  -2672472.42045  23040389.2814                   23040388.2624
 -23653406.13348 -18415993.56446  21043479.5314                   21043477.1604
 -26469867.75848 -20610061.83047  20196482.0004                   20196479.6524
 -28122014.80148 -21897301.07946  21336311.9304                   21336307.9414
 -14108489.26648 -10981340.96046  21536040.8754                   21536039.1724
 -15355511.32448 -11952935.22646  21575720.5164                   21575720.8914
 11  8 20  2  0  0.0000000  0  8G26G10G29G12G05G02G30G25
   3525509.39147   2758344.77644  24147925.4844                   24147925.4924
 -17161074.70346 -13358083.12244  22924823.1564                   22924821.5744
  -3558753.25047  -2762894.87545  23018306.4534                   23018305.0744
 -23639919.98448 -18405484.87946  21046045.4144                   21046043.4224
 -26493442.05547 -20628431.38747  20191995.9384                   20191993.6804
 -28119544.27048 -21895375.98946  21336782.4774                   21336778.1564
 -14143625.72348 -11008720.00346  21529354.6954                   21529353.0664
 -15407171.12147 -11993189.59246  21565889.7894                   21565889.9694
 11  8 20  2  0 30.0000000  0  8G26G10G29G12G05G02G30G25
   3397942.90247   2658942.45244  24123650.1174                   24123650.2344
 -17095662.68447 -13307112.74144  22937270.2114                   22937268.8594
  -3674776.13347  -2853302.29145  22996228.0704                   22996227.9494
 -23625931.82448 -18394585.01346  21048707.5004                   21048705.1524
 -26516460.16048 -20646367.55247  20187615.7034                   20187613.3404
 -28116981.40648 -21893378.95146  21337270.2194                   21337265.7664
 -14178160.06247 -11035629.85946  21522782.7424                   21522781.4144
 -15458255.94948 -12032995.93346  21556168.5004                   21556169.0744
 11  8 20  2  1  0.0000000  0  8G26G10G29G12G05G02G30G25
   3270341.15646   2559512.64444  24099368.1174                   24099368.6524
 -17030006.27347 -13255951.96544  22949764.2504                   22949762.5434
  -3790775.83647  -2943691.62845  22974154.5314                   22974152.5394
 -23611440.97348 -18383293.44346  21051465.4144                   21051462.7114
 -26538920.39848 -20663869.01847  20183341.8754                   20183339.3874
 -28114324.04348 -21891308.26846  21337775.4064                   21337771.0204
 -14212090.14847 -11062068.85746  21516326.2584                   21516324.9384
 -15508762.81648 -12072351.89746  21546557.6724                   21546557.9884
 11  8 20  2  1 30.0000000  0  8G26G10G29G12G05G02G30G25
   3142707.30146   2460057.89243  24075080.7814                   24075079.8524
 -16964108.57847 -13204603.12744  22962304.8134                   22962302.6564
  -3906750.66447  -3034061.55445  22952085.0394                   22952084.0594
 -23596449.44148 -18371611.73446  21054317.9694                   21054315.8404
 -26560824.09848 -20680936.80747  20179173.4534                   20179171.3914
 -28111572.77748 -21889164.40646  21338299.2114                   21338294.9414
 -14245416.70348 -11088037.57546  21509984.2274                   21509982.9494
 -15558691.55948 -12111257.39446  21537056.2734                   21537056.5824
 11  8 20  2  2  0.0000000  0  8G26G10G29G12G05G02G30G25
   3015046.65246   2360582.18243  24050786.7814                   24050786.8324
 -16897969.90647 -13153066.54744  22974890.4694                   22974888.7704
  -4022697.24647  -3124409.45545  22930020.7114                   22930019.9064
 -23580957.08648 -18359539.76046  21057265.8364                   21057263.6024
 -26582170.05948 -20697569.98847  20175111.3524                   20175109.1524
 -28108725.62948 -21886945.83746  21338840.7664                   21338836.8914
 -14278137.89848 -11113534.59646  21503758.0864                   21503756.2734
 -15608039.54348 -12149710.35246  21527665.7974                   21527665.8874
 11  8 20  2  2 30.0000000  0  8G26G10G29G12G05G02G30G25
   2887357.50846   2261084.31343  24026488.2894                   24026488.5594
 -16831598.13747 -13101348.33644  22987520.6094                   22987518.4924
  -4138618.40247  -3214737.58845  22907962.0474                   22907961.3524
 -23564970.76248 -18347082.88346  21060307.9844                   21060305.7544
 -26602964.03148 -20713773.05547  20171154.3054                   20171151.8914
 -28105788.06648 -21884656.81946  21339400.0004                   21339395.7814
 -14310259.13747 -11138564.10446  21497645.2894                   21497643.4884
 -15656811.31648 -12187714.30646  21518384.5944                   21518384.6764
 11  8 20  2  3  0.0000000  0  8G26G10G29G12G05G02G30G25
   2759646.61346   2161569.43743  24002185.5234                   24002185.0554
 -16764993.07447 -13049448.29444  23000195.0004                   23000193.8984
  -4254509.62547  -3305042.34145  22885908.5944                   22885906.3444
 -23548489.10948 -18334240.03746  21063444.5164                   21063442.1724
 -26623203.68048 -20729544.17847  20167302.8914                   20167300.8484
 -28102757.09448 -21882295.02246  21339977.1484                   21339972.8014
 -14341777.56247 -11163123.89146  21491647.4694                   21491646.0204
 -15705003.21548 -12225266.41046  21509214.2114                   21509214.3444
 11  8 20  2  3 30.0000000  0  8G26G10G29G12G05G02G30G25
   2631913.89846   2062037.59243  23977879.3054                   23977878.6174
 -16698160.31247 -12997370.86944  23012913.0084                   23012911.2384
  -4370372.15647  -3395324.71245  22863860.7274                   22863860.3444
 -23531517.43048 -18321015.35446  21066674.1174                   21066671.5474
 -26642893.34048 -20744886.73747  20163556.1724                   20163553.6684
 -28099635.99648 -21879862.98746  21340570.5704                   21340566.1094
 -14372697.04348 -11187216.98446  21485763.6174                   21485762.3984
 -15752618.10548 -12262368.90446  21500152.9694                   21500153.5474
 11  8 20  2  4  0.0000000  0  8G26G10G29G12G05G02G30G25
   2504163.08647   1962491.62243  23953569.3364                   23953568.4804
 -16631102.10947 -12945117.74544  23025674.1174                   23025672.2464
  -4486203.90247  -3485583.14345  22841818.3134                   22841816.5204
 -23514057.23448 -18307410.00046  21069996.5704                   21069994.1524
 -26662033.55148 -20759801.15947  20159914.0704                   20159911.6564
 -28096424.78948 -21877360.72246  21341181.9694                   21341177.3364
 -14403017.43748 -11210843.24546  21479993.9844                   21479991.8324
 -15799655.16448 -12299021.14146  21491202.5084                   21491203.0594
 11  8 20  2  4 30.0000000  0  8G26G10G29G12G05G02G30G25
   2376398.98847   1862935.28544  23929256.3594                   23929255.6094
 -16563820.10247 -12892690.25944  23038477.0944                   23038475.7384
  -4602002.05547  -3575815.37045  22819783.1804                   22819781.4414
 -23496109.00048 -18293424.36546  21073412.0944                   21073409.6524
 -26680624.41048 -20774287.50247  20156376.2114                   20156373.9414
 -28093122.42248 -21874787.42846  21341809.8364                   21341805.8874
 -14432738.19948 -11234002.25546  21474338.4534                   21474336.3204
 -15846112.80148 -12335221.88446  21482362.0704                   21482362.3204
 11  8 20  2  5  0.0000000  0  8G26G10G29G12G05G02G30G25
   3824048.70747   2990974.09643  24204735.1414                   24204734.3204
 -14920899.84847 -11612492.67444  23351114.7034                   23351113.1024
  -3142341.55947  -2438417.48645  23097546.8914                   23097545.8094
 -21902255.85248 -17051460.86946  21376712.2584                   21376709.9614
 -25123246.53148 -19560746.27047  20452735.5084                   20452732.7894
 -26514309.62548 -20644543.67046  21642248.0474                   21642243.9024
 -12886439.27348 -10029093.99146  21768589.5864                   21768587.4884
 -14316569.65248 -11143370.06746  21773424.4144                   21773425.0864
 11  8 20  2  5 30.0000000  0  8G26G10G29G12G05G02G30G25
   3696268.54347   2891405.23243  24180419.2424                   24180418.3284
 -14853177.97347 -11559722.39444  23364001.9534                   23364000.3364
  -3258066.59847  -2528592.76645  23075524.6884                   23075522.9024
 -21883337.22748 -17036719.08946  21380312.5554                   21380310.0744
 -25140740.57848 -19574377.96947  20449406.3984                   20449403.6054
 -26510825.04347 -20641828.40346  21642911.1724                   21642907.2624
 -12914961.73447 -10051319.25846  21763161.6484                   21763159.7504
 -14361867.04348 -11178666.71046  21764804.3444                   21764804.7624
 11  8 20  2  6  0.0000000  0  8G26G10G29G12G05G02G30G25
   3568485.94547   2791834.49143  24156102.9224                   24156102.1334
 -14785239.70747 -11506783.52944  23376929.6484                   23376928.1374
  -3373752.19147  -2618737.30245  23053510.6804                   23053510.4574
 -21863935.82048 -17021601.10046  21384004.3054                   21384001.9454
 -25157687.59848 -19587583.41047  20446181.3834                   20446178.8134
 -26507249.21148 -20639042.01846  21643591.7274                   21643587.2734
 -12942885.53947 -10073078.04346  21757848.1174                   21757846.1644
 -14406583.43448 -11213510.63146  21756295.0554                   21756295.5984
 11  8 20  2  6 30.0000000  0  8G26G10G29G12G05G02G30G25
   3440702.01647   2692262.65144  24131785.7734                   24131786.2234
 -14717089.93747 -11453679.84844  23389898.5164                   23389896.9384
  -3489398.60947  -2708851.29145  23031503.6724                   23031501.7074
 -21844056.26248 -17006110.54546  21387787.7344                   21387784.7854
 -25174090.90648 -19600365.18347  20443059.9384                   20443057.2384
 -26503584.48047 -20636186.35646  21644288.9224                   21644284.6254
 -12970213.57447 -10094372.59146  21752647.4614                   21752646.0084
 -14450720.86348 -11247903.41346  21747896.1254                   21747896.3554
 11  8 20  2  7  0.0000000  0  8G26G10G29G12G05G02G30G25
   3312923.14147   2592694.80544  24107470.5234                   24107470.0204
 -14648728.61747 -11400411.30744  23402907.0314                   23402904.9884
  -3605001.18047  -2798931.11445  23009505.3754                   23009503.5864
 -21823697.65648 -16990246.69346  21391661.5004                   21391659.2384
 -25189948.67248 -19612721.86547  20440041.8284                   20440039.4804
 -26499828.52748 -20633259.62446  21645003.6094                   21644999.4614
 -12996943.55148 -10115201.12646  21747560.7344                   21747559.1954
 -14494276.19948 -11281842.62146  21739607.5314                   21739608.1604
 11  8 20  2  7 30.0000000  0  8G26G10G29G12G05G02G30G25
   3185149.62147   2493131.10244  24083156.3204                   24083155.0984
 -14580161.14847 -11346982.11144  23415954.8834                   23415953.5824
  -3720560.94947  -2888977.61345  22987514.2894                   22987513.4884
 -21802864.76648 -16974013.25346  21395626.1254                   21395623.6604
 -25205264.80548 -19624656.48847  20437127.6094                   20437124.9144
 -26495984.10548 -20630263.95846  21645735.2344                   21645730.9414
 -13023079.07448 -10135566.45046  21742587.2974                   21742585.7424
 -14537252.15648 -11315330.36146  21731429.4534                   21731429.9654
 11  8 20  2  8  0.0000000  0  8G26G10G29G12G05G02G30G25
   3057386.71946   2393575.69144  24058843.4844                   24058842.6644
 -14511388.83646 -11293393.31744  23429041.8754                   23429040.8054
  -3836074.79747  -2978988.32145  22965533.1724                   22965531.7544
 -21781558.24248 -16957410.78346  21399680.5084                   21399678.1644
 -25220039.21148 -19636168.99547  20434316.2734                   20434313.8014
 -26492049.99647 -20627198.40246  21646483.7734                   21646479.3834
 -13048619.44547 -10155468.01046  21737727.0944                   21737725.3164
 -14579647.16848 -11348365.42746  21723362.1954                   21723362.4774
 11  8 20  2  8 30.0000000  0  8G26G10G29G12G05G02G30G25
   2929634.16446   2294028.32044  24034532.7664                   24034532.3484
 -14442417.56647 -11239649.47644  23442166.5864                   23442165.2774
  -3951544.28547  -3068964.47345  22943559.8754                   22943558.4064
 -21759783.43048 -16940443.39646  21403824.0004                   21403821.2504
 -25234276.18448 -19647262.72047  20431606.9224                   20431604.3754
 -26488029.68047 -20624065.69546  21647248.8134                   21647244.7504
 -13073568.62547 -10174908.92046  21732979.2274                   21732977.3134
 -14621464.31248 -11380950.21446  21715404.6724                   21715405.0044
 11  8 20  2  9  0.0000000  0  8G26G10G29G12G05G02G30G25
   2801898.15246   2194493.83344  24010225.3524                   24010225.2624
 -14373247.60247 -11185750.83443  23455329.6564                   23455327.3834
  -4066965.05947  -3158902.68145  22921596.6024                   22921594.4494
 -21737540.10948 -16923110.94746  21408056.4694                   21408054.0664
 -25247974.60548 -19657936.79147  20429000.4454                   20428997.6764
 -26483920.66048 -20620863.83546  21648030.9144                   21648026.5704
 -13097924.95748 -10193887.87146  21728344.5474                   21728342.8874
 -14662701.06648 -11413082.72746  21707557.5234                   21707557.4844
 11  8 20  2  9 30.0000000  0  8G26G10G29G12G05G02G30G25
   2674179.15646   2094972.63144  23985920.5314                   23985920.7424
 -14303884.61347 -11131701.78344  23468528.6564                   23468527.3874
  -4182338.27347  -3248803.82245  22899641.4224                   22899640.9774
 -21714833.53148 -16905417.50246  21412377.5634                   21412375.3054
 -25261138.49248 -19668194.34147  20426495.0474                   20426492.4064
 -26479726.35548 -20617595.54446  21648828.5394                   21648824.7114
 -13121692.13348 -10212407.74046  21723821.9774                   21723820.2154
 -14703360.26248 -11444765.20346  21699820.1484                   21699820.1804
 11  8 20  2 10  0.0000000  0  8G26G10G29G12G05G02G30G25
   2546481.56346   1995468.10243  23961620.6414                   23961620.6134
 -14234330.33247 -11077503.61343  23481764.4924                   23481761.9964
  -4297660.94547  -3338665.64545  22877696.1334                   22877694.3914
 -21691664.29748 -16887363.56646  21416786.3524                   21416784.1414
 -25273768.10548 -19678035.57947  20424091.7424                   20424089.2854
 -26475446.00848 -20614260.19246  21649643.2584                   21649638.8914
 -13144870.07048 -10230468.45846  21719410.9384                   21719409.8484
 -14743440.84448 -11475996.82046  21692193.2664                   21692193.1414
 11  8 20  2 10 30.0000000  0  8G26G10G29G12G05G02G30G25
   2418811.06646   1895984.65144  23937325.9454                   23937325.8954
 -14164585.38747 -11023156.91044  23495036.6094                   23495034.6334
  -4412929.48847  -3428485.19945  22855761.1334                   22855759.4304
 -21668033.07448 -16868949.63946  21421283.6644                   21421281.1024
 -25285862.91848 -19687460.07747  20421790.1644                   20421787.6914
 -26471077.34848 -20610856.03946  21650474.9774                   21650470.4144
 -13167457.42648 -10248068.99446  21715113.1954                   21715111.2974
 -14782940.75448 -11506775.96646  21684676.4534                   21684676.5664
 11  8 20  2 11  0.0000000  0  8G26G10G29G12G05G02G30G25
   2291171.67246   1796525.48744  23913037.2734                   23913036.3914
 -14094651.87547 -10968663.27144  23508344.5864                   23508343.0474
  -4528141.07447  -3518260.42645  22833837.4924                   22833835.6644
 -21643940.97748 -16850176.57946  21425868.0394                   21425865.5944
 -25297423.39848 -19696468.22447  20419590.1644                   20419587.6484
 -26466619.93448 -20607382.72246  21651323.1804                   21651318.5044
 -13189454.48448 -10265209.55146  21710927.3134                   21710924.9884
 -14821859.27748 -11537102.08746  21677270.5704                   21677270.6564
 11  8 20  2 11 30.0000000  0  8G26G10G29G12G05G02G30G25
   2163566.83646   1697093.20744  23888754.4924                   23888753.8674
 -14024532.49247 -10914024.78244  23521688.0164                   23521685.8984
  -4643294.23847  -3607990.10245  22811924.0634                   22811922.1764
 -21619390.69548 -16831046.48946  21430539.7584                   21430537.3164
 -25308450.98048 -19705061.13247  20417492.0004                   20417489.4414
 -26462074.23048 -20603840.59446  21652188.0474                   21652183.6954
 -13210862.45748 -10281891.09546  21706853.4694                   21706851.4614
 -14860196.71548 -11566975.41146  21669975.1334                   21669975.2664
 11  8 20  2 12  0.0000000  0  8G26G10G29G12G05G02G30G25
   2035999.09046   1597689.85344  23864478.8284                   23864479.0984
 -13954230.75847 -10859244.19544  23535065.9454                   23535063.9184
  -4758388.03147  -3697673.55745  22790022.3444                   22790021.8754
 -21594385.47348 -16811561.90046  21435298.1174                   21435295.8484
 -25318947.84448 -19713240.48747  20415494.6174                   20415491.8404
 -26457441.19548 -20600230.41746  21653069.5704                   21653065.3404
 -13231683.15248 -10298115.01346  21702891.3754                   21702889.3874
 -14897954.11748 -11596396.74846  21662790.3674                   21662790.1884
 11  8 20  2 12 30.0000000  0  8G26G10G29G12G05G02G30G25
   1908471.41046   1498317.70744  23840211.4144                   23840211.1094
 -13883749.95746 -10804324.08644  23548477.8134                   23548476.2344
  -4873420.90247  -3787309.53345  22768132.3364                   22768130.6374
 -21568927.60948 -16791724.61246  21440142.7814                   21440140.2624
 -25328916.09448 -19721007.93647  20413597.3364                   20413594.7384
 -26452721.31248 -20596552.56546  21653967.8134                   21653963.5434
 -13251917.89148 -10313882.34146  21699040.8364                   21699038.6684
 -14935131.84848 -11625366.40846  21655715.6334                   21655715.9414
 11  8 20  2 13  0.0000000  0  8G26G10G29G12G05G02G30G25
   1780989.09446   1398980.96244  23815952.2424                   23815951.8914
 -13813090.90247 -10749265.08144  23561923.4694                   23561922.5664
  -4988389.19147  -3876895.14445  22746255.2974                   22746253.3164
 -21543017.89548 -16771535.24146  21445072.9144                   21445070.4344
 -25338355.26248 -19728363.10447  20411801.0704                   20411798.4304
 -26447913.13348 -20592805.92046  21654883.0164                   21654878.6524
 -13271565.96548 -10329192.54646  21695301.8134                   21695299.8094
 -14971728.35248 -11653883.15346  21648751.4774                   21648752.0704
 11  8 20  2 13 30.0000000  0  8G26G10G29G12G05G02G30G25
   1653548.86346   1299676.99244  23791700.9614                   23791701.0314
 -13742262.70346 -10694074.27344  23575401.9534                   23575399.9494
  -5103297.77047  -3966434.26845  22724388.5394                   22724386.8054
 -21516665.28148 -16751000.73646  21450087.9534                   21450085.4224
 -25347273.40248 -19735312.29047  20410104.0084                   20410101.6604
 -26443023.88748 -20588996.09046  21655813.0234                   21655809.0984
 -13290635.12948 -10344051.63146  21691672.9924                   21691671.3794
 -15007750.50848 -11681952.36346  21641896.6884                   21641896.8204
 11  8 20  2 14  0.0000000  0  8G26G10G29G12G05G02G30G25
   1526157.69946   1200411.21544  23767459.6484                   23767458.2974
 -13671264.72346 -10638751.18144  23588912.4144                   23588911.3834
  -5218141.60247  -4055922.90445  22702534.0864                   22702532.6414
 -21489868.86347 -16730120.41146  21455186.9844                   21455184.4024
 -25355668.53548 -19741853.93947  20408506.4064                   20408504.1294
 -26438049.50848 -20585119.92746  21656760.1174                   21656755.3094
 -13309123.03948 -10358457.79746  21688155.0944                   21688153.4534
 -15043195.11748 -11709571.51646  21635151.8204                   21635151.7034
 11  8 20  2 14 30.0000000  0  9G26G10G29G12G05G02G15G30G25
   1398819.55546   1101186.78544  23743227.9304                   23743226.9534
 -13600099.45746 -10583297.72843  23602454.5944                   23602453.3054
  -5332918.33647  -4145359.26945  22680692.5474                   22680692.0514
 -21462630.23448 -16708895.51046  21460370.1644                   21460368.2114
 -25363541.52748 -19747988.72147  20407008.1414                   20407006.0084
 -26432990.24648 -20581177.63046  21657722.3054                   21657718.2774
   9270305.66855   7254492.16153  24647277.8984                   24647278.0824
 -13327030.48448 -10372411.66146  21684747.3674                   21684745.0864
 -15078062.05548 -11736740.54346  21628516.4454                   21628516.8984
 11  8 20  2 15  0.0000000  0  9G26G10G29G12G05G02G15G30G25
   1271530.87146   1002000.90444  23719005.5944                   23719004.7194
 -13528776.45346 -10527721.40844  23616026.5314                   23616025.4924
  -5447632.76647  -4234747.08045  22658863.6094                   22658862.4804
 -21434959.00847 -16687333.50846  21465635.9924                   21465633.6604
 -25370901.07048 -19753723.41247  20405607.7344                   20405605.3674
 -26427852.76248 -20577174.37246  21658699.8364                   21658695.4494
   9144559.46546   7156508.28943  24623348.5784                   24623348.9024
 -13344365.47748 -10385919.44346  21681448.4224                   21681446.5984
 -15112358.47348 -11763465.00846  21621990.3754                   21621990.8754
 11  8 20  2 15 30.0000000  0  9G26G10G29G12G05G02G15G30G25
   1144292.87946    902854.49944  23694792.7504                   23694792.2974
 -13457300.77346 -10472026.06044  23629628.4614                   23629626.6484
  -5562285.76647  -4324086.99445  22637046.0314                   22637043.8054
 -21406859.80147 -16665438.02746  21470983.0004                   21470980.3634
 -25377751.22348 -19759061.17247  20404304.3054                   20404301.7154
 -26422639.72748 -20573112.24246  21659692.0314                   21659687.5124
   9018673.42646   7058415.51943  24599393.1174                   24599393.6954
 -13361131.64548 -10398983.99046  21678257.9064                   21678256.2074
 -15146087.06248 -11789747.01946  21615572.1254                   21615572.0594
 11  8 20  2 16  0.0000000  0  9G26G10G29G12G05G02G15G30G25
   1017111.81647    803752.47743  23670590.9774                   23670590.5044
 -13385672.05147 -10416211.45844  23643259.1484                   23643257.2424
  -5676872.33647  -4413375.15645  22615240.5864                   22615238.5274
 -21378332.24647 -16643208.76846  21476412.0004                   21476409.1214
 -25384090.63348 -19764000.94947  20403097.7974                   20403095.3874
 -26417348.69148 -20568989.33846  21660698.9534                   21660694.5434
   8892652.85946   6960217.83644  24575412.3674                   24575412.6954
 -13377327.36348 -10411604.03146  21675176.1334                   21675174.1804
 -15179245.35548 -11815584.61546  21609261.7894                   21609262.3674
 11  8 20  2 16 30.0000000  0  9G26G10G29G12G05G02G15G30G25
    889989.73446    704696.42944  23646400.0234                   23646399.0824
 -13313894.36347 -10360280.77544  23656917.2734                   23656915.9574
  -5791391.97747  -4502611.16445  22593448.1884                   22593446.1454
 -21349380.23847 -16620648.74846  21481921.1094                   21481918.7194
 -25389922.18048 -19768544.99347  20401988.1484                   20401985.5044
 -26411981.00848 -20564806.70946  21661720.2664                   21661715.9024
   8766499.23446   6861916.50244  24551405.7664                   24551405.9614
 -13392955.27748 -10423781.63646  21672201.9224                   21672200.4804
 -15211835.10948 -11840979.23046  21603060.5164                   21603060.3914
 11  8 20  2 17  0.0000000  0  9G26G10G29G12G05G02G15G30G25
    762941.02347    605697.52243  23622223.7814                   23622222.3984
 -13241959.69547 -10304227.81344  23670606.0944                   23670604.8674
  -5905832.25447  -4591785.34845  22571670.6174                   22571669.2074
 -21319995.25447 -16597751.36346  21487512.8914                   21487510.7344
 -25395236.42648 -19772685.93647  20400976.8524                   20400974.6884
 -26406525.97748 -20560556.01846  21662758.6174                   21662753.9064
   8640225.69546   6763521.74944  24527376.5944                   24527376.9184
 -13408005.73448 -10435509.25746  21669338.0704                   21669336.4384
 -15243845.84448 -11865922.63046  21596969.0004                   21596969.3754
 11  8 20  2 17 30.0000000  0  9G26G10G29G12G05G02G15G30G25
    635963.48847    506754.09544  23598060.1644                   23598060.1684
 -13169876.43047 -10248059.04843  23684323.5554                   23684321.8874
  -6020196.90247  -4680900.55445  22549907.9844                   22549906.7974
 -21290185.59447 -16574523.05746  21493185.5634                   21493183.0744
 -25400040.89148 -19776429.65747  20400062.8134                   20400060.2114
 -26400989.67648 -20556241.99746  21663811.8834                   21663807.3204
   8513829.00847   6665031.03344  24503324.3054                   24503323.7774
 -13422485.81648 -10446792.42646  21666582.8674                   21666580.9144
 -15275283.77748 -11890419.68646  21590986.3594                   21590986.6214
 11  8 20  2 18  0.0000000  0  9G26G10G29G12G05G02G15G30G25
    509061.02047    407869.14344  23573912.0084                   23573911.3914
 -13097646.85547 -10191776.24243  23698067.8524                   23698066.6484
  -6134483.64547  -4769955.10845  22528159.6414                   22528158.3984
 -21259953.28547 -16550965.41546  21498938.5394                   21498936.0944
 -25404336.81247 -19779777.09547  20399245.2114                   20399242.4384
 -26395371.50448 -20551864.18246  21664881.2814                   21664876.5274
   8387312.23447   6566446.76144  24479248.8594                   24479248.8054
 -13436396.48448 -10457631.90146  21663935.7344                   21663933.9774
 -15306148.93748 -11914470.44046  21585112.9614                   21585113.1804
 11  8 20  2 18 30.0000000  0  9G26G10G29G12G05G02G15G30G25
    382239.84446    309047.51744  23549777.7504                   23549778.1454
 -13025271.02047 -10135379.43843  23711840.8914                   23711838.6484
  -6248687.86347  -4858945.32145  22506427.5314                   22506425.6644
 -21229298.36747 -16527078.45746  21504771.7734                   21504769.5664
 -25408123.27348 -19782727.56147  20398524.7114                   20398521.8674
 -26389669.37548 -20547420.96146  21665965.7894                   21665961.4224
   8260680.44947   6467772.83444  24455151.5004                   24455151.6914
 -13449736.45748 -10468026.67246  21661397.2114                   21661395.5274
 -15336439.18448 -11938073.19846  21579348.9064                   21579349.1334
 11  8 20  2 19  0.0000000  0  9G26G10G29G12G05G02G15G30G25
    255503.12147    210291.76544  23525660.8674                   23525660.3634
 -12952751.61346 -10078870.84043  23725640.9774                   23725639.1094
  -6362807.87547  -4947869.93045  22484711.1174                   22484709.3794
 -21198223.30947 -16502864.13346  21510685.2034                   21510682.5704
 -25411402.07048 -19785282.45447  20397900.9064                   20397898.1994
 -26383883.20748 -20542912.24446  21667066.7894                   21667062.8284
   8133936.20746   6369011.33944  24431032.9694                   24431032.3054
 -13462507.31248 -10477977.97545  21658966.8134                   21658965.0354
 -15366155.21548 -11961228.51146  21573694.1024                   21573694.8134
 11  8 20  2 19 30.0000000  0  9G26G10G29G12G05G02G15G30G25
    128856.03947    111605.79644  23501560.7504                   23501560.1094
 -12880089.86746 -10022251.28144  23739468.3914                   23739466.4344
  -6476840.10247  -5036726.13845  22463011.5164                   22463009.3054
 -21166728.99248 -16478323.11946  21516678.5164                   21516676.1994
 -25414173.09048 -19787441.65747  20397373.5084                   20397370.8914
 -26378011.39848 -20538336.79746  21668184.4694                   21668180.1094
   8007083.62946   6270165.39844  24406892.9924                   24406892.3834
 -13474708.84448 -10487485.64046  21656645.1564                   21656643.3674
 -15395295.98048 -11983935.58946  21568148.8834                   21568149.2934
 11  8 20  2 20  0.0000000  0  9G26G10G29G12G05G02G15G30G25
      2302.55147     12992.80844  23477479.0784                   23477477.3054
 -12807288.38346  -9965522.92743  23753321.2344                   23753319.7194
  -6590782.41847  -5125512.31145  22441328.9064                   22441326.3754
 -21134818.07847 -16453457.45946  21522750.8984                   21522748.5744
 -25416438.00048 -19789206.49947  20396942.3984                   20396939.5864
 -26372053.92248 -20533694.59746  21669317.9924                   21669314.0124
   7880125.44146   6171237.14243  24382733.1174                   24382733.1644
 -13486342.25048 -10496550.61646  21654431.3914                   21654429.6134
 -15423861.80548 -12006194.64846  21562712.9534                   21562712.9614
 11  8 20  2 20 30.0000000  0  9G26G10G29G12G05G02G15G30G25
   -124154.28947    -85544.89144  23453414.1564                   23453413.6374
 -12734349.78947  -9908687.57043  23767200.9144                   23767199.3674
  -6704633.26647  -5214227.21745  22419664.0704                   22419662.1254
 -21102493.19148 -16428269.25046  21528902.2424                   21528899.7074
 -25418198.85548 -19790578.56947  20396607.0474                   20396604.1564
 -26366011.21148 -20528985.98146  21670468.0554                   21670463.8954
   7753063.83246   6072228.35543  24358553.8134                   24358553.6024
 -13497409.33648 -10505174.28946  21652325.0314                   21652323.6294
 -15451853.60248 -12028006.42246  21557386.5634                   21557386.8244
 11  8 20  2 21  0.0000000  0  9G26G10G29G12G05G02G15G30G25
   -250511.73447   -184005.12844  23429370.0474                   23429368.9494
 -12661277.28546  -9851748.02243  23781106.9454                   23781105.1884
  -6818391.55147  -5302869.98545  22398016.3914                   22398013.7734
 -21069757.90648 -16402761.23746  21535131.3284                   21535128.9414
 -25419458.48048 -19791560.07547  20396367.3834                   20396364.6804
 -26359884.50448 -20524211.92746  21671634.0394                   21671629.8874
   7625900.69546   5973140.35943  24334355.9534                   24334355.2664
 -13507912.45748 -10513358.51646  21650326.4224                   21650324.8674
 -15479272.89148 -12049372.08246  21552168.7664                   21552168.4804
 11  8 20  2 21 30.0000000  0  9G26G10G29G12G05G02G15G30G25
   -376771.06247   -282388.92644  23405343.0784                   23405342.3634
 -12588078.36747  -9794709.89443  23795036.0784                   23795034.2154
  -6932060.14547  -5391442.86145  22376385.7894                   22376384.1724
 -21036619.44148 -16376939.07046  21541437.5234                   21541435.2114
 -25420223.15248 -19792155.89547  20396221.6954                   20396219.0394
 -26353678.16048 -20519375.80846  21672815.0394                   21672810.5124
   7498633.63746   5873971.34843  24310136.9694                   24310136.1374
 -13517857.88348 -10521108.18746  21648433.9224                   21648432.2074
 -15506125.02048 -12070295.80246  21547058.8914                   21547059.0204
 11  8 20  2 22  0.0000000  0  9G26G10G29G12G05G02G15G30G25
   -502924.06647   -380689.90344  23381337.0704                   23381335.6134
 -12514751.28546  -9737571.90843  23808989.1884                   23808987.9184
  -7045632.65247  -5479940.87545  22354773.3674                   22354771.9344
 -21003076.02048 -16350801.34046  21547820.5864                   21547818.1644
 -25420490.10548 -19792363.88847  20396170.7894                   20396168.3594
 -26347387.99248 -20514474.37946  21674011.7274                   21674007.2274
   7371269.87946   5774727.07143  24285900.0704                   24285899.6024
 -13527242.68048 -10528420.99146  21646648.1094                   21646646.3714
 -15532406.27348 -12090774.67946  21542057.6644                   21542058.0784
 11  8 20  2 22 30.0000000  0  9G26G10G29G12G05G02G15G30G25
   -628968.33647   -478906.11744  23357351.5084                   23357350.4574
 -12441299.81247  -9680337.01743  23822966.6094                   23822964.8324
  -7159107.81247  -5568363.03445  22333180.0864                   22333178.0704
 -20969131.23447 -16324350.86446  21554279.7974                   21554277.4264
 -25420262.19948 -19792186.27047  20396214.5474                   20396212.1254
 -26341015.18747 -20509508.55646  21675224.7114                   21675220.1644
   7243810.92646   5675408.54143  24261645.9144                   24261645.0004
 -13536069.55548 -10535299.05046  21644968.2034                   21644966.5354
 -15558118.36748 -12110810.06746  21537164.6484                   21537164.8014
 11  8 20  2 23  0.0000000  0  9G26G10G29G12G05G02G15G30G25
   -754895.68447   -577031.29144  23333388.8674                   23333387.1604
 -12367722.00846  -9623003.67043  23836967.9224                   23836966.5744
  -7272479.10247  -5656704.27945  22311605.5944                   22311604.2814
 -20934783.05947 -16297586.04546  21560816.3364                   21560814.0234
 -25419536.73048 -19791620.94547  20396352.6094                   20396349.6134
 -26334555.08247 -20504474.70245  21676453.9144                   21676449.3984
   7116264.42646   5576021.81343  24237374.7974                   24237373.4264
 -13544335.30947 -10541739.86346  21643395.6024                   21643393.9104
 -15583257.41847 -12130398.92846  21532380.9454                   21532380.4774
 11  8 20  2 23 30.0000000  0  9G26G10G29G12G05G02G15G30G25
   -880705.12147   -675064.51644  23309447.2424                   23309446.7074
 -12294022.87547  -9565575.78843  23850993.2194                   23850990.6414
  -7385747.41447  -5744965.26345  22290051.6094                   22290050.6254
 -20900037.11347 -16270511.30246  21567428.1884                   21567425.7704
 -25418318.21948 -19790671.44047  20396584.2034                   20396581.7814
 -26328010.34047 -20499374.89846  21677699.2584                   21677695.0234
   6988629.77346   5476566.31043  24213086.8444                   24213085.0864
 -13552044.37148 -10547746.90546  21641928.3594                   21641926.2974
 -15607826.79348 -12149543.88446  21527705.7424                   21527705.6094
 11  8 20  2 24  0.0000000  0  9G26G10G29G12G05G02G15G30G25
  -1006397.41447   -773006.48644  23285528.8594                   23285527.6174
 -12220209.10247  -9508058.52643  23865038.9064                   23865038.1294
  -7498914.97747  -5833147.74645  22268516.5704                   22268514.7934
 -20864899.68047 -16243131.49346  21574114.5634                   21574112.1644
 -25416612.60948 -19789342.37547  20396908.6954                   20396906.2194
 -26321385.38347 -20494212.58946  21678959.8054                   21678955.6604
   6860905.86346   5377041.30543  24188780.9844                   24188780.3594
 -13559202.51648 -10553324.66346  21640566.1414                   21640564.2114
 -15631831.52347 -12168248.86446  21523137.8054                   21523137.4454
 11  8 20  2 24 30.0000000  0  9G26G10G29G12G05G02G15G30G25
  -1131964.35247   -870850.77644  23261634.0704                   23261632.7424
 -12146278.91046  -9450450.59843  23879107.0474                   23879106.6454
  -7611975.36347  -5921246.73545  22247001.6414                   22246999.9734
 -20829369.38347 -16215445.55746  21580875.7424                   21580873.2624
 -25414416.96948 -19787631.47247  20397326.6724                   20397324.1564
 -26314675.75848 -20488984.30346  21680237.0554                   21680232.6414
   6733099.75847   5277452.23744  24164460.5704                   24164460.0204
 -13565806.79347 -10558470.85246  21639309.4304                   21639307.3914
 -15655267.89847 -12186510.97946  21518677.9144                   21518678.0354
 11  8 20  2 25  0.0000000  0  9G26G10G29G12G05G02G15G30G25
  -1257405.45747   -968597.03644  23237763.8834                   23237762.0204
 -12072237.98046  -9392756.38343  23893197.3134                   23893195.9964
  -7724929.49647  -6009262.90745  22225507.9304                   22225506.0784
 -20793452.09847 -16187458.05446  21587711.2504                   21587708.5824
 -25411736.72748 -19785542.95147  20397836.8134                   20397833.9534
 -26307884.38747 -20483692.31246  21681529.4304                   21681524.7424
   6605210.65247   5177798.50544  24140123.8914                   24140123.0394
 -13571862.22348 -10563189.35946  21638156.8914                   21638154.7974
 -15678139.85548 -12204333.28446  21514325.7344                   21514325.7974
 11  8 20  2 25 30.0000000  0  9G26G10G29G12G05G02G15G30G25
  -1382718.51246  -1066243.46444  23213916.5704                   23213915.6884
 -11998090.29746  -9334978.94743  23907306.6484                   23907304.9534
  -7837776.59447  -6097195.67345  22204033.1094                   22204031.1334
 -20757151.46147 -16159171.86746  21594618.6804                   21594616.1024
 -25408574.92648 -19783079.18747  20398438.5084                   20398435.6644
 -26301012.66047 -20478337.70846  21682837.0004                   21682832.3524
   6477240.39547   5078081.56144  24115771.7584                   24115771.4454
 -13577371.62948 -10567482.38946  21637108.9144                   21637106.9924
 -15700449.49647 -12221717.41446  21510079.7664                   21510080.1094
 11  8 20  2 26  0.0000000  0  9G26G10G29G12G05G02G15G30G25
  -1507898.69547  -1163786.40744  23190095.7194                   23190094.8164
 -11923837.22347  -9277119.46443  23921436.7424                   23921434.8164
  -7950513.82847  -6185042.82346  22182580.1564                   22182578.9574
 -20720469.16847 -16130588.27046  21601599.2274                   21601596.6174
 -25404932.20348 -19780240.69347  20399131.6334                   20399128.8204
 -26294059.46547 -20472919.64246  21684160.0234                   21684155.8364
   6349192.85247   4978304.32244  24091405.3914                   24091404.4924
 -13582335.70347 -10571350.49046  21636164.1804                   21636162.2504
 -15722196.69147 -12238663.27246  21505941.4774                   21505942.3754
 11  8 20  2 26 30.0000000  0  9G26G10G29G12G05G02G15G30G25
  -1632939.71546  -1261220.89244  23166301.3524                   23166299.6644
 -11849478.30147  -9219177.40543  23935587.1174                   23935585.0514
  -8063136.05147  -6272800.35845  22161148.8134                   22161146.9774
 -20683405.11747 -16101707.20646  21608651.7664                   21608649.9224
 -25400808.03948 -19777027.04747  20399916.4774                   20399913.6254
 -26287022.11747 -20467435.99846  21685499.1334                   21685494.5744
   6221073.19547   4878470.98644  24067025.3364                   24067024.2774
 -13586753.49648 -10574792.92146  21635323.6724                   21635321.6254
 -15743379.53948 -12255169.39546  21501910.7034                   21501910.7274
 11  8 20  2 27  0.0000000  0  9G26G10G29G12G05G02G15G30G25
  -1757838.91046  -1358544.83844  23142533.8364                   23142532.6804
 -11775017.35546  -9161155.92143  23949755.6174                   23949754.8524
  -8175642.25047  -6360467.46745  22139739.7114                   22139738.1254
 -20645963.15648 -16072531.66346  21615777.2194                   21615774.6374
 -25396205.11748 -19773440.34747  20400792.3054                   20400789.5434
 -26279901.60548 -20461887.53946  21686854.0944                   21686849.5864
   6092883.19147   4778582.80144  24042631.2734                   24042630.3524
 -13590627.74247 -10577811.82146  21634586.2504                   21634584.4694
 -15763999.96948 -12271237.26146  21497986.8204                   21497987.0904
 11  8 20  2 27 30.0000000  0  9G26G10G29G12G05G02G15G30G25
  -1882596.71146  -1455758.65844  23118793.1174                   23118792.8094
 -11700460.78946  -9103059.93543  23963943.3594                   23963941.8244
  -8288034.50047  -6448045.79146  22118351.8834                   22118350.2974
 -20608149.99647 -16043066.87046  21622972.4534                   21622969.9144
 -25391129.49248 -19769485.29047  20401758.1484                   20401755.3444
 -26272702.18747 -20456277.59446  21688224.0554                   21688219.6254
   5964621.32446   4678638.61244  24018223.0864                   24018222.7704
 -13593964.32047 -10580411.74646  21633950.9694                   21633949.6334
 -15784063.09448 -12286870.86046  21494169.1884                   21494168.9024
 11  8 20  2 28  0.0000000  0  9G26G10G29G12G05G02G15G30G25
  -2007203.25447  -1552854.58744  23095081.2194                   23095079.9024
 -11625804.88346  -9044886.47943  23978150.3444                   23978148.8134
  -8400304.62547  -6535528.94446  22096987.8594                   22096985.8014
 -20569962.10247 -16013310.08246  21630239.6564                   21630237.0204
 -25385577.09047 -19765158.72347  20402814.8444                   20402812.3134
 -26265417.46147 -20450601.18946  21689610.3754                   21689605.7734
   5836296.48047   4578645.33644  23993804.5164                   23993803.1294
 -13596758.88348 -10582589.32546  21633419.4924                   21633417.7074
 -15803563.61748 -12302066.07246  21490458.0474                   21490458.4414
 11  8 20  2 28 30.0000000  0  9G26G10G29G12G05G02G15G30G25
  -2131659.33647  -1649833.25144  23071398.3754                   23071396.8874
 -11551056.64846  -8986641.04543  23992374.9224                   23992373.3594
  -8512455.01247  -6622918.78746  22075646.0944                   22075644.5744
 -20531406.63747 -15983266.88046  21637576.4614                   21637574.4304
 -25379553.96148 -19760465.36547  20403961.1414                   20403958.2854
 -26258051.71547 -20444861.62746  21691011.7194                   21691007.6454
   5707907.46546   4478602.12844  23969371.3984                   23969371.3834
 -13599017.56247 -10584349.33146  21632989.8594                   21632987.6914
 -15822506.87948 -12316827.07046  21486853.3984                   21486853.8204
 11  8 20  2 29  0.0000000  0  9G26G10G29G12G05G02G15G30G25
   -680536.41447   -519088.08244  23347537.5634                   23347536.0204
  -9900800.34046  -7700727.10143  24306408.0944                   24306406.6804
  -7049058.79347  -5482609.98246  22354120.7664                   22354119.0354
 -18917067.03547 -14725339.93646  21944774.6954                   21944772.6914
 -23797641.47748 -18527806.26047  20704988.5314                   20704985.8834
 -24675184.30947 -19211458.45745  21992221.6724                   21992216.9734
   7154881.68847   5606114.63544  24244722.0084                   24244721.2154
 -12025321.48047  -9358092.64346  21932453.9304                   21932452.1374
 -14265472.64148 -11103553.63846  21783147.0084                   21783147.3634
 11  8 20  2 29 30.0000000  0  9G26G10G29G12G05G02G15G30G25
   -804678.52747   -615822.10844  23323914.4694                   23323912.6844
  -9825873.35946  -7642342.40943  24320665.5474                   24320663.7114
  -7160961.07047  -5569806.48246  22332826.8444                   22332824.5164
 -18877782.93747 -14694728.97046  21952250.6334                   21952248.1454
 -23790680.79748 -18522382.34147  20706313.3594                   20706310.6134
 -24667654.44147 -19205591.04445  21993654.2974                   21993650.0554
   7026373.77346   5505978.71444  24220267.5704                   24220266.8204
 -12026512.17247  -9359020.46546  21932227.9774                   21932225.5944
 -14283302.61748 -11117447.13146  21779754.2734                   21779754.0594
 11  8 20  2 30  0.0000000  0  9G26G10G29G12G05G02G15G30G25
   -928658.31647   -712429.65645  23300321.8674                   23300319.9694
  -9750860.18746  -7583890.66743  24334940.4064                   24334938.4184
  -7272736.06647  -5656903.79546  22311556.6724                   22311555.0984
 -18838138.60948 -14663837.30146  21959794.2974                   21959792.2034
 -23783254.66448 -18516595.71547  20707726.3524                   20707723.7734
 -24660042.49647 -19199659.63746  21995102.8524                   21995098.4494
   6897810.73446   5405799.86544  24195802.7344                   24195802.1414
 -12027171.61748  -9359534.32445  21932101.8134                   21932100.0744
 -14300577.54348 -11130908.09746  21776466.8754                   21776467.0634
 11  8 20  2 30 30.0000000  0  9G26G10G29G12G05G02G15G30G25
  -1052470.27047   -808906.40344  23276760.5944                   23276759.7424
  -9675761.54746  -7525372.22743  24349231.1094                   24349229.4654
  -7384380.14147  -5743899.11945  22290311.4534                   22290309.3594
 -18798134.89147 -14632665.57546  21967406.8984                   21967404.6334
 -23775362.90648 -18510446.28147  20709228.4064                   20709225.4774
 -24652346.67648 -19193662.89645  21996567.6884                   21996563.0704
   6769197.20347   5305581.61243  24171328.4304                   24171327.2114
 -12027300.01648  -9359634.37446  21932077.4694                   21932075.3874
 -14317296.73848 -11143936.04746  21773285.2194                   21773285.3164
 11  8 20  2 31  0.0000000  0  9G26G10G29G12G05G02G15G30G25
  -1176111.06647   -905249.82644  23253232.9924                   23253231.6644
  -9600580.59246  -7466789.62343  24363538.4614                   24363536.4654
  -7495891.69947  -5830791.17645  22269091.7034                   22269089.0864
 -18757775.23847 -14601216.52146  21975087.2814                   21975084.9534
 -23767008.35548 -18503936.22347  20710817.9844                   20710815.1764
 -24644567.25847 -19187600.99145  21998047.6954                   21998043.1454
   6640535.23047   5205325.61744  24146844.8364                   24146844.1214
 -12026899.80948  -9359322.53045  21932153.8444                   21932151.4184
 -14333461.74248 -11156532.16346  21770209.3834                   21770209.3164
 11  8 20  2 31 30.0000000  0  9G26G10G29G12G05G02G15G30G25
  -1299575.86747  -1001456.08845  23229738.1414                   23229737.0514
  -9525318.61746  -7408143.94343  24377859.5554                   24377857.7664
  -7607267.00047  -5917577.06546  22247897.2034                   22247895.4494
 -18717061.08648 -14569491.20146  21982834.9224                   21982832.5234
 -23758191.42648 -18497065.87047  20712495.6954                   20712493.1294
 -24636702.90247 -19181472.90745  21999544.3674                   21999539.7544
   6511828.90247   5105035.06944  24122352.9064                   24122351.7704
 -12025971.60548  -9358599.25145  21932330.3284                   21932328.9534
 -14349072.39548 -11168696.31046  21767238.5314                   21767238.6684
 11  8 20  2 32  0.0000000  0  9G26G10G29G12G05G02G15G30G25
  -1422861.96147  -1097523.11145  23206277.7114                   23206276.1374
  -9449978.74246  -7349437.63543  24392196.7344                   24392194.5704
  -7718505.01247  -6004255.97846  22226729.4774                   22226727.6914
 -18675996.26248 -14537492.65746  21990649.1094                   21990646.9494
 -23748915.45347 -18489837.82947  20714261.1724                   20714258.0044
 -24628754.65647 -19175279.46645  22001056.5314                   22001052.1844
   6383080.38347   5004711.67044  24097852.3524                   24097851.5124
 -12024518.37948  -9357466.88345  21932606.9694                   21932604.9574
 -14364130.87948 -11180430.18846  21764372.8674                   21764373.3364
 11  8 20  2 32 30.0000000  0  9G26G10G29G12G05G02G15G30G25
  -1545970.59847  -1193451.81944  23182850.6094                   23182849.4304
  -9374568.32846  -7290676.25043  24406547.2734                   24406544.9104
  -7829608.66047  -6090830.19646  22205587.5314                   22205584.9964
 -18634588.23048 -14505226.66146  21998529.0474                   21998526.6684
 -23739187.40647 -18482257.51647  20716112.0314                   20716109.5314
 -24620727.14847 -19169024.23945  22002584.5634                   22002580.1134
   6254287.19547   4904353.40344  24073344.2114                   24073343.2704
 -12022547.18448  -9355930.87545  21932981.7114                   21932980.3874
 -14378643.41448 -11191738.66046  21761611.4774                   21761611.8794
 11  8 20  2 33  0.0000000  0  9G26G10G29G12G05G02G15G30G25
  -1668893.26247  -1289235.64045  23159459.0084                   23159457.9184
  -9299084.92646  -7231857.97743  24420911.0864                   24420909.4614
  -7940570.86747  -6177294.19146  22184471.8754                   22184468.9964
 -18592835.26248 -14472691.88746  22006473.9304                   22006471.7814
 -23729004.11348 -18474322.48047  20718049.5634                   20718047.0204
 -24612615.60947 -19162703.53545  22004127.7734                   22004123.6094
   6125457.32447   4803966.57044  24048828.3284                   24048827.2234
 -12020055.03548  -9353988.95445  21933456.3054                   21933454.2774
 -14392606.21948 -11202618.75446  21758954.2034                   21758954.2774
 11  8 20  2 33 30.0000000  0  9G26G10G29G12G05G02G15G30G25
  -1791627.32847  -1384872.49145  23136103.2894                   23136102.0084
  -9223532.39146  -7172985.84943  24435287.9924                   24435286.2774
  -8051390.50047  -6263647.11446  22163383.5004                   22163381.3834
 -18550741.41047 -14439891.49946  22014484.8284                   22014481.8914
 -23718368.97747 -18466035.35647  20720073.8364                   20720071.0554
 -24604420.96147 -19156318.08045  22005687.6414                   22005683.1884
   5996592.14547   4703552.23944  24024306.3754                   24024305.1254
 -12017045.26248  -9351643.66946  21934029.2504                   21934026.6374
 -14406021.77048 -11213072.43146  21756401.3754                   21756401.6254
 11  8 20  2 34  0.0000000  0  9G26G10G29G12G05G02G15G30G25
  -1914169.80947  -1480360.05544  23112784.1724                   23112782.9454
  -9147913.47746  -7114062.01343  24449677.5784                   24449676.0704
  -8162066.27347  -6349887.91846  22142322.1174                   22142320.3444
 -18508309.70347 -14406827.84246  22022559.0864                   22022556.9264
 -23707285.15248 -18457398.60447  20722182.8834                   20722180.4774
 -24596143.79747 -19149868.32345  22007262.5314                   22007257.7074
   5867693.88347   4603112.12144  23999778.0554                   23999776.1994
 -12013520.56248  -9348897.15345  21934699.7664                   21934697.8444
 -14418892.03948 -11223101.21046  21753952.3444                   21753952.3284
 11  8 20  2 34 30.0000000  0  9G26G10G29G12G05G02G15G30G25
  -2036511.94147  -1575691.52744  23089503.0784                   23089502.4024
  -9072225.77746  -7055084.57043  24464080.7274                   24464078.8984
  -8272590.94947  -6436011.00146  22121290.0944                   22121288.3164
 -18465538.64147 -14373499.74346  22030697.8204                   22030695.6334
 -23695749.38748 -18448409.69147  20724377.9224                   20724375.3874
 -24587779.10247 -19143350.35145  22008854.1724                   22008849.7774
   5738770.39847   4502652.35844  23975244.5164                   23975242.9344
 -12009478.13748  -9345747.21645  21935469.1024                   21935467.2704
 -14431213.34448 -11232702.23346  21751607.6334                   21751607.9574
 11  8 20  2 35  0.0000000  0  9G26G10G29G12G05G02G15G30G25
  -2158655.91047  -1670868.53444  23066260.7584                   23066258.5864
  -8996477.28146  -6996059.63443  24478494.8134                   24478492.8834
  -8382968.10947  -6522019.14746  22100286.1174                   22100283.9104
 -18422436.47348 -14339913.66546  22038900.4224                   22038897.7194
 -23683769.48848 -18439074.70347  20726657.8284                   20726654.8754
 -24579332.47347 -19136768.53945  22010461.3674                   22010457.1884
   5609818.64147   4402170.59344  23950705.5474                   23950704.6994
 -12004925.72748  -9342199.87845  21936335.2974                   21936333.0514
 -14442992.68448 -11241880.93846  21749366.4454                   21749366.5784
 11  8 20  2 35 30.0000000  0  9G26G10G29G12G05G02G15G30G25
  -2280598.29347  -1765888.52444  23043055.3914                   23043054.1334
  -8920670.78946  -6936989.73143  24492919.9224                   24492918.9024
  -8493195.59847  -6607910.65846  22079310.5084                   22079307.9964
 -18379006.28148 -14306071.96346  22047164.5474                   22047162.5234
 -23671347.81648 -18429395.46747  20729021.3984                   20729018.6604
 -24570804.06247 -19130123.00245  22012084.5314                   22012079.8204
   5480841.43446   4301669.01944  23926162.1094                   23926160.5314
 -11999865.63748  -9338256.94445  21937298.2114                   21937296.2344
 -14454231.53948 -11250638.48846  21747227.1484                   21747227.6094
 11  8 20  2 36  0.0000000  0  9G26G10G29G12G05G02G15G30G25
  -2402336.27047  -1860749.21844  23019888.7734                   23019887.9924
  -8844809.43746  -6877876.93042  24507355.9924                   24507355.0744
  -8603272.45347  -6693684.78946  22058363.4774                   22058361.2894
 -18335252.23048 -14271977.91546  22055490.7034                   22055488.7114
 -23658487.77048 -18419374.64547  20731468.8754                   20731465.9304
 -24562194.73047 -19123414.40245  22013722.8134                   22013718.0984
   5351840.62546   4201149.02844  23901612.9774                   23901612.5314
 -11994301.20748  -9333921.03345  21938357.0234                   21938355.0984
 -14464932.45348 -11258976.86546  21745191.5394                   21745191.3094
 11  8 20  2 36 30.0000000  0  9G26G10G29G12G05G02G15G30G25
  -2523863.95747  -1955446.03945  22996762.9144                   22996761.3984
  -8768893.08245  -6818721.32842  24521802.2424                   24521800.9224
  -8713194.01247  -6779337.90846  22037446.0314                   22037443.5904
 -18291174.51648 -14237631.64646  22063878.4774                   22063876.3714
 -23645188.91848 -18409011.89146  20733999.4384                   20733996.3794
 -24553501.76647 -19116640.63545  22015376.9224                   22015372.4494
   5222821.23446   4100614.56044  23877061.4534                   23877061.2274
 -11988232.06248  -9329191.81645  21939512.1024                   21939510.1914
 -14475094.35248 -11266895.21746  21743257.5554                   21743257.5664
 11  8 20  2 37  0.0000000  0  9G26G10G29G12G05G02G15G30G25
  -2645177.30147  -2049975.84944  22973678.1334                   22973676.2894
  -8692924.21946  -6759524.74242  24536259.1254                   24536257.2504
  -8822958.18047  -6864868.38446  22016558.4694                   22016556.7734
 -18246776.12548 -14203035.49546  22072327.3914                   22072325.3594
 -23631453.44148 -18398308.90547  20736613.1954                   20736610.2704
 -24544725.22748 -19109801.73946  22017047.0314                   22017042.6954
   5093786.31346   4000068.01944  23852507.2504                   23852506.2154
 -11981660.57048  -9324071.17845  21940762.5634                   21940760.5234
 -14484718.69548 -11274394.70146  21741426.3754                   21741426.2664
 11  8 20  2 37 30.0000000  0  9G26G10G29G12G05G02G15G30G25
  -2766274.93047  -2144337.56844  22950633.6564                   22950632.0554
  -8616907.07046  -6700290.60242  24550725.0704                   24550722.6484
  -8932564.63347  -6950275.95746  21995700.8914                   21995699.0354
 -18202061.69547 -14168193.09246  22080836.1954                   22080834.0044
 -23617285.47348 -18387268.92047  20739309.4224                   20739306.4614
 -24535866.87147 -19102899.10145  22018732.8524                   22018727.9574
   4964736.86346   3899510.13344  23827949.3984                   23827948.5474
 -11974590.73048  -9318562.20445  21942107.7734                   21942105.7854
 -14493808.78948 -11281477.87546  21739696.0784                   21739696.3364
 11  8 20  2 38  0.0000000  0  9G26G10G29G12G05G02G15G30G25
  -2887149.85547  -2238525.80444  22927632.1644                   22927630.2154
  -8540840.89846  -6641018.23442  24565199.4064                   24565197.3714
  -9042008.19547  -7035556.60446  21974874.7344                   21974872.9224
 -18157031.22347 -14133104.42246  22089405.3834                   22089402.6884
 -23602684.07848 -18375891.20346  20742087.8444                   20742085.3554
 -24526923.58247 -19095930.27345  22020434.4224                   22020430.1414
   4835678.83246   3798945.57344  23803390.8444                   23803389.3054
 -11967021.85548  -9312664.37245  21943548.0004                   21943546.5904
 -14502363.10948 -11288143.57846  21738068.2974                   21738068.3794
 11  8 20  2 38 30.0000000  0 10G26G10G29G12G05G02G15G30G25G21
  -3007800.44147  -2332539.18444  22904672.3054                   22904671.3984
  -8464730.16846  -6581711.14143  24579683.0474                   24579680.6644
  -9151288.53147  -7120710.06446  21954079.3444                   21954077.6374
 -18111689.85547 -14097773.48946  22098033.1254                   22098030.9304
 -23587653.61348 -18364179.14846  20744948.0234                   20744944.9304
 -24517897.19147 -19088896.70145  22022151.8754                   22022147.9224
   4706612.96547   3698374.91344  23778830.4844                   23778829.0204
 -11958958.22748  -9306381.02445  21945082.6094                   21945080.6024
 -14510385.23448 -11294394.59146  21736541.6724                   21736542.3054
  10898899.55956   8500902.18253  25204962.6414                   25204961.4224
 11  8 20  2 39  0.0000000  0 10G26G10G29G12G05G02G15G30G25G21
  -3128231.74647  -2426381.69344  22881755.5004                   22881753.3134
  -8388585.66846  -6522377.74843  24594172.2504                   24594170.3794
  -9260412.24647  -7205741.48446  21933313.9064                   21933311.8054
 -18066048.86347 -14062209.09046  22106718.5864                   22106716.3484
 -23572204.88348 -18352141.16846  20747887.8834                   20747884.7384
 -24508795.77747 -19081804.67145  22023883.7274                   22023879.4884
   4577533.56647   3597793.70044  23754267.1564                   23754266.0274
 -11950410.68748  -9299720.60245  21946709.1724                   21946707.3714
 -14517885.23048 -11300238.74246  21735114.6414                   21735114.7074
  10810143.66846   8431741.84543  25188072.1254                   25188071.3954
 11  8 20  2 39 30.0000000  0  9G26G29G12G05G02G15G30G25G21
  -3248438.28547  -2520049.07345  22858880.6484                   22858878.6564
  -9369375.42647  -7290647.79846  21912578.5394                   21912576.7664
 -18020109.72748 -14026412.36146  22115460.6254                   22115458.4264
 -23556338.78948 -18339777.96147  20750906.9224                   20750904.1174
 -24499618.26248 -19074653.34145  22025630.1804                   22025626.0354
   4448445.05147   3497205.35144  23729703.1804                   23729701.1644
 -11941380.02347  -9292683.74345  21948427.5164                   21948425.7774
 -14524863.04748 -11305675.99246  21733786.7814                   21733787.1054
  10721389.14846   8362582.60343  25171183.0554                   25171181.6804
 11  8 20  2 40  0.0000000  0  9G26G29G12G05G02G15G30G25G21
  -3368415.73847  -2613537.93645  22836049.9454                   22836048.4844
  -9478174.84847  -7375426.53246  21891874.5864                   21891872.1524
 -17973874.51647 -13990384.92046  22124258.7974                   22124256.7384
 -23540056.02048 -18327090.08146  20754005.5864                   20754002.6334
 -24490363.23848 -19067441.63145  22027391.5944                   22027387.3094
   4319351.01247   3396612.71144  23705136.6724                   23705134.8444
 -11931867.61747  -9285271.46645  21950237.7274                   21950236.0434
 -14531319.41048 -11310706.92146  21732558.1954                   21732558.5234
  10632636.26646   8293424.54543  25154293.7734                   25154293.0434
 11  8 20  2 40 30.0000000  0  9G26G29G12G05G02G15G30G25G21
  -3488148.48047  -2706836.10045  22813265.3524                   22813263.8914
  -9586796.53147  -7460066.76446  21871204.5234                   21871202.5594
 -17927334.17648 -13954119.72346  22133115.3444                   22133113.0744
 -23523347.21148 -18314070.21946  20757185.0084                   20757182.1294
 -24481018.72348 -19060160.15745  22029169.5474                   22029165.1604
   4190266.57447   3296027.54644  23680572.9144                   23680571.0314
 -11921864.03547  -9277476.47045  21952141.5084                   21952139.5044
 -14537244.05548 -11315323.52646  21731430.7734                   21731430.9184
  10543896.42246   8224276.74443  25137408.3834                   25137404.9454
 11  8 20  2 41  0.0000000  0  9G26G29G12G05G02G15G30G25G21
  -3607634.30147  -2799941.89245  22790528.0394                   22790526.4064
  -9695239.79347  -7544567.95246  21850568.5474                   21850566.1524
 -17880493.24247 -13917620.28946  22142029.0004                   22142026.4224
 -23506216.53548 -18300721.61547  20760444.9844                   20760442.0984
 -24471586.24248 -19052810.14945  22030964.6804                   22030960.2934
   4061192.78547   3195450.65344  23656010.7734                   23656008.9964
 -11911373.22347  -9269301.82045  21954137.9454                   21954135.8714
 -14542640.20748 -11319528.31546  21730403.9534                   21730403.8444
  10455167.64846   8155137.47343  25120522.6334                   25120520.5044
 11  8 20  2 41 30.0000000  0  9G26G29G12G05G02G15G30G25G21
  -3726868.80547  -2892851.82345  22767838.1724                   22767836.2704
  -9803501.87148  -7628927.96946  21829967.0554                   21829964.8984
 -17833354.49647 -13880888.80046  22150998.9694                   22150997.1454
 -23488665.39548 -18287045.39846  20763784.7734                   20763782.1724
 -24462065.03948 -19045391.02645  22032776.3594                   22032771.6454
   3932133.22347   3094884.85644  23631451.8284                   23631449.4104
 -11900397.00847  -9260748.91845  21956226.3984                   21956224.8554
 -14547508.91048 -11323322.11546  21729477.3284                   21729477.1684
  10366449.52046   8086006.59543  25103640.3134                   25103639.4574
 11  8 20  2 42  0.0000000  0  9G26G29G12G05G02G15G30G25G21
  -3845849.85947  -2985564.27145  22745197.3914                   22745195.1994
  -9911581.85248  -7713146.08846  21809400.0004                   21809398.1094
 -17785921.98448 -13843928.40546  22160025.0634                   22160022.5164
 -23470697.49648 -18273044.42846  20767204.0864                   20767201.0514
 -24452456.32048 -19037903.71945  22034605.1024                   22034600.2624
   3803089.63347   2994331.51044  23606895.2504                   23606893.7624
 -11888939.01648  -9251820.62745  21958406.6804                   21958404.9574
 -14551853.12548 -11326707.20046  21728650.6094                   21728651.1414
  10277740.16046   8016882.48443  25086759.6094                   25086758.0704
 11  8 20  2 42 30.0000000  0  9G26G29G12G05G02G15G30G25G21
  -3964568.72747  -3078072.41145  22722605.7664                   22722603.9384
 -10019472.37148  -7797216.58346  21788869.3524                   21788866.8444
 -17738193.80148 -13806737.60646  22169107.6414                   22169104.9844
 -23452310.15248 -18258716.61946  20770702.9304                   20770699.9304
 -24442754.80548 -19030344.09045  22036451.0474                   22036446.7304
   3674069.66447   2893796.58044  23582343.2114                   23582341.9964
 -11876996.80548  -9242515.01045  21960679.1884                   21960677.2584
 -14555669.68748 -11329681.14246  21727924.6094                   21727924.8794
  10189044.02746   7947768.80043  25069880.3284                   25069879.3714
 11  8 20  2 43  0.0000000  0  9G26G29G12G05G02G15G30G25G21
  -4083031.06647  -3170380.66945  22700062.9454                   22700061.5124
 -10127180.53148  -7881144.97846  21768372.9304                   21768370.4064
 -17690181.82047 -13769325.69146  22178243.5944                   22178241.1524
 -23433514.90648 -18244070.96446  20774279.4144                   20774277.0314
 -24432969.44948 -19022719.13045  22038313.3134                   22038308.5984
   3545067.12947   2793275.21244  23557794.7894                   23557793.2854
 -11864581.99248  -9232841.12945  21963041.9064                   21963039.7854
 -14558969.35948 -11332252.31546  21727296.7114                   21727296.7664
  10100351.34846   7878657.66143  25053002.9534                   25053000.5124
 11  8 20  2 43 30.0000000  0  9G26G29G12G05G02G15G30G25G21
  -4201232.92247  -3262485.93145  22677570.0394                   22677567.9924
 -10234704.13748  -7964929.57646  21747911.8984                   21747909.5084
 -17641889.24247 -13731695.10045  22187433.2114                   22187431.5164
 -23414313.96148 -18229109.18746  20777933.1334                   20777930.4344
 -24423099.96948 -19015028.61845  22040191.3284                   22040187.1414
   3416085.08646   2692769.77944  23533250.0084                   23533248.4804
 -11851696.96547  -9222800.84545  21965493.9224                   21965492.2544
 -14561753.94548 -11334422.12146  21726766.7114                   21726766.6884
  10011661.75846   7809548.94043  25036126.1254                   25036124.5434
 11  8 20  2 44  0.0000000  0  9G26G29G12G05G02G15G30G25G21
  -4319169.53147  -3354384.50545  22655126.8834                   22655125.4264
 -10342039.27748  -8048567.32246  21727486.8134                   21727484.1564
 -17593317.93447 -13693847.33846  22196676.2274                   22196674.0704
 -23394708.39848 -18213832.10946  20781664.0394                   20781661.4574
 -24413145.06248 -19007271.55745  22042085.5084                   22042080.8364
   3287127.68846   2592283.56844  23508710.4694                   23508708.5784
 -11838343.06247  -9212395.20445  21968034.8674                   21968032.9734
 -14564023.98448 -11336190.97046  21726334.8284                   21726334.8714
   9922975.44146   7740442.76743  25019249.2734                   25019248.4654
 11  8 20  2 44 30.0000000  0  9G26G29G12G05G02G15G30G25G21
  -4436840.19547  -3446075.89045  22632734.6564                   22632733.1254
 -10449187.31648  -8132059.24946  21707096.9384                   21707094.5864
 -17544473.90247 -13655787.06446  22205970.7894                   22205968.4734
 -23374703.46948 -18198243.85246  20785470.8984                   20785468.2114
 -24403107.57448 -18999450.14445  22043995.6024                   22043991.1254
   3158194.63346   2491816.33244  23484175.0474                   23484173.6024
 -11824525.69947  -9201628.41345  21970664.4534                   21970662.1994
 -14565784.16848 -11337562.55146  21725999.8914                   21725999.2974
   9834289.33246   7671336.94543  25002372.8444                   25002371.6214
 11  8 20  2 45  0.0000000  0  9G26G29G12G05G02G15G30G25G21
  -4554234.54747  -3537551.95245  22610395.2894                   22610393.7774
 -10556139.08248  -8215398.26146  21686744.8674                   21686742.3284
 -17495353.30547 -13617511.27746  22215318.5004                   22215316.3484
 -23354294.87548 -18182341.04047  20789354.6954                   20789351.8324
 -24392980.86347 -18991559.19645  22045922.9924                   22045918.2664
   3029295.80946   2391375.77344  23459646.5784                   23459645.0664
 -11810240.76247  -9190497.29045  21973382.7734                   21973381.1374
 -14567029.73848 -11338533.10546  21725762.8364                   21725763.2194
   9745609.43446   7602235.69943  24985498.2584                   24985496.1914
 11  8 20  2 45 30.0000000  0  9G26G29G12G05G02G15G30G25G21
  -4671349.42647  -3628810.26145  22588109.5474                   22588107.9064
 -10662892.73048  -8298582.87546  21666430.1414                   21666427.9574
 -17445959.67247 -13579022.75346  22224718.2814                   22224715.0594
 -23333485.49648 -18166125.93846  20793314.4224                   20793311.4924
 -24382765.00048 -18983598.79245  22047866.7114                   22047862.0394
   2900433.55547   2290963.68245  23435125.1564                   23435123.5084
 -11795491.32447  -9179004.23445  21976189.4534                   21976187.6054
 -14567762.98448 -11339104.46446  21725623.0704                   21725623.3524
   9656934.36346   7533138.36743  24968623.2194                   24968621.5124
 11  8 20  2 46  0.0000000  0  9G26G29G12G05G02G15G30G25G21
  -4788191.96147  -3719856.32945  22565874.8524                   22565873.0904
 -10769456.65648  -8381619.68246  21646151.4924                   21646149.3204
 -17396306.88347 -13540332.26845  22234166.1484                   22234163.8094
 -23312288.47748 -18149608.77346  20797348.1954                   20797345.6374
 -24372470.22347 -18975576.89845  22049825.6724                   22049821.1414
   2771600.01247   2190574.00844  23410608.1804                   23410607.2154
 -11780290.63347  -9167159.51845  21979081.9614                   21979079.9414
 -14567996.50848 -11339286.43446  21725578.9064                   21725579.0314
   9568252.96546   7464036.04243  24951747.3524                   24951746.2344
 11  8 20  2 46 30.0000000  0  9G26G29G12G05G02G15G30G25G21
  -4904748.87547  -3810679.86945  22543694.5634                   22543692.9224
 -10875819.27348  -8464499.60546  21625911.5394                   21625909.0354
 -17346388.37547 -13501434.73145  22243665.2584                   22243663.1914
 -23290696.93748 -18132784.18346  20801456.8834                   20801454.1374
 -24362087.06247 -18967486.13945  22051801.7974                   22051796.7384
   2642807.95347   2090216.63945  23386100.6254                   23386098.6764
 -11764631.73847  -9154957.78445  21982061.8834                   21982060.3244
 -14567722.66848 -11339073.03946  21725630.8284                   21725631.0514
   9479574.12546   7394935.89643  24934873.0004                   24934870.7304
 11  8 20  2 47  0.0000000  0  9G26G29G12G05G02G15G30G25G21
  -5021021.07847  -3901281.54045  22521568.7894                   22521567.0164
 -10981982.76248  -8547224.36446  21605709.4064                   21605706.6884
 -17296211.83647 -13462336.16145  22253213.7114                   22253211.5314
 -23268717.00848 -18115656.96046  20805639.4064                   20805636.5904
 -24351619.98848 -18959329.98645  22053793.8524                   22053788.5784
   2514055.48846   1989890.11144  23361599.0944                   23361597.9614
 -11748521.87147  -9142404.62045  21985127.1564                   21985125.6134
 -14566947.90648 -11338469.31446  21725778.3984                   21725777.9104
   9390892.68045   7325833.52343  24917997.2664                   24917995.9384
 11  8 20  2 47 30.0000000  0  9G26G29G12G05G02G15G30G25G21
  -5137002.31647  -3991656.50145  22499498.4064                   22499496.5474
 -11087942.20748  -8629790.14446  21585545.3914                   21585543.6844
 -17245777.62947 -13423036.79545  22262811.1884                   22262809.0594
 -23246348.91448 -18098227.26046  20809896.1094                   20809893.2194
 -24341066.00048 -18951106.10645  22055801.5634                   22055797.0904
   2385348.12547   1889598.74045  23337107.7734                   23337105.4534
 -11731961.08648  -9129500.10745  21988278.7424                   21988276.6134
 -14565671.62948 -11337474.81046  21726021.2034                   21726021.2034
   9302210.64546   7256730.80543  24901121.5784                   24901119.7704
 11  8 20  2 48  0.0000000  0  9G26G29G12G05G02G15G30G25G21
  -5252688.27347  -4081801.36445  22477483.7194                   22477482.3834
 -11193694.34848  -8712194.36246  21565421.7894                   21565419.6054
 -17195087.83647 -13383538.25445  22272457.2974                   22272454.7424
 -23223594.00448 -18080496.14646  20814226.1804                   20814223.2974
 -24330423.84848 -18942813.53245  22057827.1254                   22057822.4414
   2256689.84447   1789345.59145  23312624.4304                   23312622.4264
 -11714950.96147  -9116245.44645  21991515.7344                   21991513.6764
 -14563894.85248 -11336090.30946  21726359.2034                   21726359.4304
   9213528.28546   7187627.81243  24884245.2814                   24884243.6054
 11  8 20  2 48 30.0000000  0  9G26G29G12G05G02G15G30G25G21
  -5368073.25047  -4171711.71345  22455526.7034                   22455525.0594
 -11299235.35948  -8794434.07046  21545337.8364                   21545335.4884
 -17144144.08247 -13343841.84045  22282151.5234                   22282149.2034
 -23200453.39548 -18062464.50246  20818629.8204                   20818626.7624
 -24319692.13748 -18934451.15845  22059869.3054                   22059864.7504
   2128085.27047   1689134.33944  23288151.6564                   23288149.9384
 -11697492.59447  -9102641.50845  21994837.8594                   21994835.9574
 -14561617.83248 -11334316.02446  21726792.4304                   21726792.6254
   9124846.72746   7118525.41043  24867368.8444                   24867368.5164
 11  8 20  2 49  0.0000000  0  9G26G29G12G05G02G15G30G25G21
  -5483156.95747  -4261387.28245  22433627.5314                   22433625.5664
 -11404566.20748  -8876510.02546  21525293.9534                   21525291.5904
 -17092952.37947 -13303952.21845  22291892.8914                   22291890.8164
 -23176932.72348 -18044136.69046  20823105.1334                   20823102.2074
 -24308873.54348 -18926021.09345  22061927.6724                   22061923.1094
   1999534.41847   1588964.92244  23263689.4224                   23263687.1764
 -11679591.87948  -9088692.89545  21998243.9454                   21998242.2934
 -14558845.84848 -11332156.00546  21727320.1024                   21727319.9454
   9036162.09846   7049420.55743  24850494.2504                   24850491.9734
 11  8 20  2 49 30.0000000  0  9G26G29G12G05G02G15G30G25G21
  -5597932.77047  -4350822.92245  22411785.7274                   22411784.3874
 -11509681.40248  -8958417.91146  21505291.0634                   21505289.0554
 -17041512.94947 -13263869.56045  22301681.7584                   22301679.1294
 -23153030.91848 -18025511.89546  20827653.9304                   20827650.9104
 -24297964.97748 -18917520.92445  22064003.9454                   22063999.2704
   1871043.12147   1488841.94144  23239237.7424                   23239236.0904
 -11661248.45748  -9074399.32345  22001734.8204                   22001733.2854
 -14555577.87148 -11329609.53546  21727941.7114                   21727941.8404
   8947476.80546   6980315.19942  24833616.2974                   24833615.1524
 11  8 20  2 50  0.0000000  0  9G26G29G12G05G02G15G30G25G21
  -5712399.55147  -4440017.77345  22390003.5634                   22390002.3634
 -11614581.25048  -9040158.01746  21485329.5394                   21485327.3984
 -16989831.16447 -13223598.03045  22311515.7344                   22311513.8874
 -23128752.85248 -18006593.91846  20832273.7194                   20832271.0084
 -24286968.43448 -18908952.18845  22066096.5864                   22066091.7114
   1742611.65647   1388765.55244  23214798.0784                   23214795.8324
 -11642467.34447  -9059764.68645  22005308.6564                   22005306.7384
 -14551818.32448 -11326680.02146  21728657.2584                   21728657.0984
   8858787.83646   6911207.01443  24816739.7584                   24816739.1374
 11  8 20  2 50 30.0000000  0  9G26G29G12G05G02G15G30G25G21
  -5826554.91447  -4528969.94545  22368280.6484                   22368279.0904
 -11719265.01648  -9121729.74246  21465408.8054                   21465406.5314
 -16937911.65247 -13183141.29745  22321396.2664                   22321393.7344
 -23104102.62948 -17987385.94346  20836964.6094                   20836961.7664
 -24275885.08248 -18900315.80045  22068205.9304                   22068201.1254
   1614241.86747   1288737.25744  23190370.0004                   23190368.3524
 -11623252.74647  -9044792.26445  22008964.9924                   22008963.1414
 -14547570.68448 -11323370.18246  21729465.6094                   21729465.6764
   8770093.30546   6842094.54843  24799862.6564                   24799860.4534
 11  8 20  2 51  0.0000000  0  9G26G29G12G05G02G15G30G25G21
  -5940395.34047  -4617676.73245  22346617.8134                   22346616.0784
 -11823730.41848  -9203131.31146  21445529.5084                   21445527.6094
 -16885757.48847 -13142501.69145  22331320.6954                   22331318.1954
 -23079082.82448 -17967889.98646  20841725.5474                   20841722.6724
 -24264714.90647 -18891611.77645  22070331.1724                   22070326.5474
   1485936.55947   1188759.17544  23165954.3914                   23165952.3364
 -11603607.62147  -9029484.37645  22012703.5474                   22012701.5124
 -14542837.23448 -11319681.78546  21730366.4224                   21730366.4534
   8681392.33246   6772976.92643  24782983.3594                   24782981.5164
 11  8 20  2 51 30.0000000  0  9G26G29G12G05G02G15G30G25G21
  -6053914.02047  -4706132.78045  22325015.9614                   22325013.2814
 -11927971.47748  -9284358.07546  21425693.0234                   21425691.2814
 -16833368.41047 -13101679.03345  22341289.8914                   22341287.9414
 -23053692.14848 -17948105.04346  20846557.0704                   20846554.2934
 -24253453.84048 -18882836.91345  22072474.4454                   22072469.3134
   1357702.25447   1088836.44944  23141551.8754                   23141549.6294
 -11583530.98847  -9013840.23345  22016523.6174                   22016521.7384
 -14537616.42248 -11315613.62746  21731359.8444                   21731359.7624
   8592688.18046   6703856.90743  24766103.2974                   24766101.8914
 11  8 20  2 52  0.0000000  0  9G26G29G12G05G02G15G30G25G21
  -6167110.69547  -4794337.91945  22303474.7504                   22303472.8954
 -12031989.75048  -9365411.24346  21405899.6954                   21405897.0044
 -16780751.07847 -13060678.52045  22351302.7274                   22351300.1024
 -23027936.79748 -17928035.93746  20851458.2664                   20851455.5204
 -24242105.95348 -18873994.39545  22074633.3524                   22074628.9574
   1229538.25446    988968.46744  23117162.7194                   23117161.4494
 -11563029.48047  -8997865.05345  22020425.1724                   22020423.2344
 -14531914.22348 -11311170.35346  21732444.8594                   21732444.4924
   8503976.33246   6634730.87743  24749221.6094                   24749219.9844
 11  8 20  2 52 30.0000000  0  9G26G29G12G05G02G15G30G25G21
  -6279979.66447  -4882287.72745  22281996.6724                   22281994.6214
 -12135780.55148  -9446287.15546  21386148.5394                   21386145.9454
 -16727906.14147 -13019500.64745  22361358.7194                   22361356.4384
 -23001816.80548 -17907682.69246  20856428.8364                   20856425.7734
 -24230668.39848 -18865082.01045  22076810.0314                   22076805.1994
   1101449.82047    889159.38845  23092789.1174                   23092786.7034
 -11542103.44947  -8981559.06745  22024407.1414                   22024405.2974
 -14525730.27348 -11306351.70346  21733622.0394                   21733621.8524
   8415258.71546   6565600.36043  24732339.0944                   24732338.0084
 11  8 20  2 53  0.0000000  0  9G26G29G12G05G02G15G30G25G21
  -4817095.19947  -3742377.68045  22560374.1334                   22560372.4144
 -10663919.68048  -8299382.55546  21666234.1094                   21666231.6684
 -15099420.45747 -11750550.75445  22671249.5084                   22671247.3484
 -21399917.52748 -16659449.49046  21161260.0634                   21161256.8404
 -22643722.89548 -17628501.09845  22378795.4534                   22378790.9694
   2548862.38747   2017013.42245  23368222.1804                   23368220.3874
  -9945338.27047  -7737326.45545  22328261.5864                   22328259.8014
 -12943648.87948 -10073561.02646  22034681.8284                   22034681.8134
   9901955.63746   7724065.56443  25015248.5314                   25015246.3284
 11  8 20  2 53 30.0000000  0  9G26G29G12G05G02G15G30G25G21
  -4929299.18747  -3829809.31545  22539022.2034                   22539021.0004
 -10767249.91848  -8379899.60946  21646571.1644                   21646568.7464
 -15046131.55147 -11709026.94845  22681390.0944                   22681387.3874
 -21373077.46548 -16638535.14446  21166367.6954                   21166364.7774
 -22632106.48847 -17619449.36245  22381006.0314                   22381001.3634
   2420932.47747   1917327.84845  23343877.9144                   23343876.0124
  -9923573.10947  -7720366.60345  22332403.3364                   22332401.6604
 -12936509.69548 -10067998.02246  22036040.4384                   22036040.5904
   9813222.81646   7654923.20543  24998362.5704                   24998360.8754
 11  8 20  2 54  0.0000000  0  9G26G29G12G05G02G15G30G25G21
  -5041161.34447  -3916974.57145  22517735.7894                   22517734.1644
 -10870342.92648  -8460231.78846  21626953.5474                   21626950.9024
 -14992621.36347 -11667330.69645  22691572.5704                   22691570.6524
 -21345877.07848 -16617340.03446  21171543.8054                   21171540.8204
 -22620396.54347 -17610324.71945  22383234.3204                   22383229.7544
   2293090.44147   1817710.77645  23319550.4774                   23319548.4494
  -9901388.78547  -7703080.12545  22336625.1334                   22336623.3554
 -12928892.28548 -10062062.40146  22037489.9384                   22037490.0434
   9724485.30146   7585777.21043  24981476.8834                   24981475.2464
 11  8 20  2 54 30.0000000  0  9G26G29G12G05G02G15G30G25G21
  -5152682.91047  -4003874.43045  22496513.7974                   22496512.1094
 -10973200.62948  -8540380.62446  21607380.1804                   21607377.6564
 -14938897.39847 -11625467.85945  22701796.0864                   22701793.6134
 -21318323.58648 -16595869.77646  21176787.2894                   21176784.3324
 -22608597.23047 -17601130.45445  22385479.8444                   22385475.8014
   2165334.52347   1718160.76545  23295239.4304                   23295237.1724
  -9878792.71547  -7685472.80545  22340924.8754                   22340923.3834
 -12920803.47748 -10055759.43946  22039029.0234                   22039029.1374
   9635738.16846   7516623.75443  24964588.2274                   24964586.5314
 11  8 20  2 55  0.0000000  0  9G26G29G12G05G02G15G30G25G21
  -5263860.27747  -4090506.08445  22475357.2114                   22475355.5314
 -11075820.84048  -8620344.39046  21587852.1644                   21587849.7274
 -14884963.05947 -11583441.10245  22712059.1254                   22712057.0514
 -21290419.76648 -16574126.53846  21182096.9614                   21182094.1174
 -22596708.72348 -17591866.67745  22387742.4924                   22387737.5274
   2037667.46947   1618680.02545  23270944.8524                   23270942.9774
  -9855787.97347  -7667547.04345  22345302.6254                   22345300.7344
 -12912245.68748 -10049091.04746  22040657.7034                   22040657.6524
   9546980.33646   7447462.04343  24947697.7894                   24947696.5164
 11  8 20  2 55 30.0000000  0  9G26G29G12G05G02G15G30G25G21
  -5374695.03947  -4176870.78245  22454266.7974                   22454264.4184
 -11178206.50048  -8700125.40746  21568368.6954                   21568366.3874
 -14830826.73447 -11541256.93945  22722361.1024                   22722358.5084
 -21262172.94148 -16552116.02346  21187472.2894                   21187469.1914
 -22584735.68047 -17582537.03145  22390020.4384                   22390016.2384
   1910087.23847   1519266.93345  23246667.2114                   23246664.6884
  -9832382.47347  -7649308.99245  22349756.4384                   22349754.6024
 -12903226.30148 -10042062.96746  22042374.1024                   22042374.1844
   9458206.39146   7378287.67543  24930804.5164                   24930803.3054
 11  8 20  2 56  0.0000000  0  9G26G29G12G05G02G15G30G25G21
  -5485178.31247  -4262961.58245  22433242.1884                   22433240.5904
 -11280350.17648  -8779717.85346  21548931.4384                   21548929.2544
 -14776485.87147 -11498913.40845  22732701.7974                   22732699.1134
 -21233580.25048 -16529835.99746  21192913.1094                   21192910.3054
 -22572672.49247 -17573137.14245  22392315.7664                   22392311.3484
   1782602.43847   1419928.17845  23222407.4384                   23222405.4774
  -9808573.78947  -7630756.79145  22354287.1804                   22354285.3984
 -12893742.28148 -10034672.84346  22044178.5394                   22044178.8284
   9369420.86746   7309104.31043  24913909.2194                   24913907.7384
 11  8 20  2 56 30.0000000  0  9G26G29G12G05G02G15G30G25G21
  -5595303.02347  -4348772.99645  22412285.8524                   22412284.0434
 -11382245.82448  -8859117.03746  21529541.0864                   21529538.7114
 -14721940.51247 -11456410.51745  22743081.1954                   22743079.1954
 -21204640.77048 -16507285.75846  21198419.8284                   21198417.1804
 -22560515.34847 -17563664.07045  22394629.2344                   22394624.6724
   1655219.39547   1320668.76645  23198167.1644                   23198165.3364
  -9784361.17247  -7611889.83245  22358894.7664                   22358892.7304
 -12883792.29348 -10026919.63246  22046072.3984                   22046072.4304
   9280626.77046   7239914.28343  24897012.0704                   24897010.4184
 11  8 20  2 57  0.0000000  0  9G26G29G12G05G02G15G30G25G21
  -5705069.45747  -4434305.20845  22391397.9694                   22391395.9924
 -11483895.16448  -8938324.28546  21510198.1954                   21510195.5944
 -14667197.43447 -11413753.56845  22753498.6414                   22753496.2504
 -21175360.62948 -16484470.03546  21203991.8054                   21203989.0394
 -22548267.96547 -17554120.66545  22396960.0634                   22396955.5944
   1527937.18847   1221487.87645  23173946.3674                   23173943.6684
  -9759751.48447  -7592713.45745  22363577.9924                   22363576.1414
 -12873382.62148 -10018808.20946  22048053.3204                   22048053.3134
   9191819.75446   7170714.23043  24880112.6954                   24880110.2664
 11  8 20  2 57 30.0000000  0  9G26G29G12G05G02G15G30G25G21
  -5814468.32847  -4519551.04045  22370579.6724                   22370577.9494
 -11585289.88748  -9017333.12746  21490903.0704                   21490900.6564
 -14612253.99247 -11370940.49345  22763953.9924                   22763951.7344
 -21145736.85948 -16461386.57246  21209628.9064                   21209626.1844
 -22535924.30947 -17544502.23445  22399308.8054                   22399304.1484
   1400764.61747   1122392.44545  23149746.0784                   23149743.6644
  -9734741.89847  -7573225.48545  22368336.9064                   22368335.2504
 -12862509.85948 -10010335.94746  22050121.8284                   22050122.3364
   9103004.82446   7101508.01343  24863211.6884                   24863209.7664
 11  8 20  2 58  0.0000000  0  9G26G29G12G05G02G15G30G25G21
  -5923500.12547  -4604510.83345  22349831.9924                   22349830.3714
 -11686431.32448  -9096144.61746  21471656.4534                   21471653.9414
 -14557117.23847 -11327976.79645  22774445.8674                   22774444.0044
 -21115775.63748 -16438040.16246  21215330.3594                   21215327.6724
 -22523488.05147 -17534811.65345  22401675.3054                   22401671.3444
   1273700.97347   1023381.85945  23125566.2034                   23125564.1994
  -9709339.25447  -7553431.23245  22373170.8984                   22373169.0514
 -12851180.21148 -10001507.66946  22052277.8594                   22052278.3594
   9014177.73846   7032292.25443  24846308.8204                   24846306.0234
 11  8 20  2 58 30.0000000  0  9G26G29G12G05G02G15G30G25G21
  -6032158.71147  -4689179.79745  22329155.3914                   22329152.8054
 -11787315.25848  -9174755.43846  21452459.0784                   21452456.4224
 -14501787.90247 -11284863.03545  22784974.8754                   22784972.4224
 -21085477.21548 -16414430.99946  21221096.2814                   21221093.2814
 -22510956.19547 -17525046.58845  22404060.3674                   22404056.0164
   1146751.37147    924460.16945  23101408.5864                   23101406.4144
  -9683544.02347  -7533331.07845  22378079.6564                   22378077.8984
 -12839393.62148  -9992323.32246  22054521.0394                   22054521.1214
   8925339.98846   6963068.20143  24829403.0634                   24829400.7734
 11  8 20  2 59  0.0000000  0  9G26G29G12G05G02G15G30G25G21
  -6140442.66047  -4773556.85345  22308549.3834                   22308547.1174
 -11887941.36748  -9253165.36746  21433310.2894                   21433308.4144
 -14446271.00047 -11241603.10545  22795539.4924                   22795537.3324
 -21054846.31248 -16390562.76146  21226925.0784                   21226922.1414
 -22498330.48447 -17515208.38745  22406463.3134                   22406458.3164
   1019917.10547    825628.34145  23077272.5944                   23077270.5514
  -9657361.27047  -7512928.94345  22383062.0474                   22383059.8524
 -12827154.62148  -9982786.45246  22056850.0314                   22056850.2114
   8836489.05546   6893833.89343  24812495.0314                   24812492.6094
 11  8 20  2 59 30.0000000  0  9G26G29G12G05G02G15G30G25G21
  -6248351.61747  -4857641.70645  22288014.4454                   22288012.8634
 -11988309.98848  -9331374.65546  21414210.7894                   21414208.5234
 -14390572.80147 -11198201.90645  22806138.5394                   22806136.2304
 -21023887.98848 -16366439.38346  21232816.3984                   21232813.3554
 -22485613.64547 -17505299.16645  22408882.9454                   22408878.2304
    893198.27347    726886.43445  23053158.6564                   23053156.9064
  -9630796.81647  -7492229.38545  22388117.3914                   22388115.3054
 -12814468.44548  -9972901.13146  22059264.2194                   22059264.3914
   8747621.51646   6824586.53543  24795584.2664                   24795580.6454
 11  8 20  3  0  0.0000000  0  9G26G29G12G05G02G15G30G25G21
  -6355879.82847  -4941429.88645  22267552.8984                   22267550.6374
 -12088416.99648  -9409380.07146  21395161.2034                   21395158.5944
 -14334694.39547 -11154660.27945  22816772.1334                   22816769.2464
 -20992602.95348 -16342061.42346  21238769.2814                   21238766.7344
 -22472803.70347 -17495317.40345  22411319.9614                   22411316.0394
    766599.63747    628238.21145  23029068.1564                   23029066.1214
  -9603851.73447  -7471233.21745  22393244.2584                   22393242.5434
 -12801335.66448  -9962667.80546  22061763.0234                   22061763.4804
   8658738.66446   6755327.33843  24778669.7424                   24778666.9064
 11  8 20  3  0 30.0000000  0 10G26G18G29G12G05G02G15G30G25G21
  -6463021.34047  -5024916.72645  22247164.3444                   22247162.5664
  12425117.60956   9693122.81453  24728879.7504                   24728878.3554
 -12188257.48848  -9487177.83246  21376161.9304                   21376159.6914
 -14278636.21547 -11110978.57845  22827439.3444                   22827437.1564
 -20960991.19148 -16317428.87646  21244784.7894                   21244782.0274
 -22459897.65247 -17485260.74545  22413776.5164                   22413771.8204
    640126.98447    529688.13145  23005001.2114                   23004998.6294
  -9576526.44147  -7449940.80445  22398444.3134                   22398442.8134
 -12787756.09448  -9952086.32046  22064347.6724                   22064347.5944
   8569842.51646   6686057.70343  24761753.6954                   24761750.1134
 11  8 20  3  1  0.0000000  0 10G26G18G29G12G05G02G15G30G25G21
  -6569785.45747  -5108109.49745  22226848.1174                   22226845.7344
  12302875.15646   9597869.14243  24705616.5234                   24705616.3834
 -12287841.93048  -9564776.06346  21357211.8284                   21357209.5124
 -14222414.56247 -11067169.51045  22838137.9064                   22838135.9304
 -20929068.14848 -16292553.77046  21250859.5944                   21250856.8914
 -22446907.72747 -17475138.73745  22416248.6954                   22416243.5354
    513770.67647    431228.73145  22980956.1414                   22980954.4144
  -9548836.67247  -7428364.37845  22403713.5944                   22403711.8054
 -12773745.02348  -9941168.61146  22067013.6334                   22067013.5354
   8480919.83246   6616767.40843  24744832.1254                   24744829.8014
 11  8 20  3  1 30.0000000  0 10G26G18G29G12G05G02G15G30G25G21
  -6676166.95347  -5191004.13545  22206604.2584                   22206601.9614
  12180788.92646   9502737.13943  24682385.0554                   24682383.5204
 -12387166.16448  -9642171.52646  21338311.2974                   21338308.8324
 -14166030.34447 -11023233.73445  22848867.9924                   22848865.1254
 -20896834.23848 -16267436.43146  21256994.0864                   21256990.6094
 -22433832.23047 -17464950.04745  22418736.4694                   22418731.8984
    387535.34447    332863.58945  22956934.7814                   22956932.5824
  -9520783.67647  -7406504.90745  22409051.7814                   22409049.7424
 -12759303.01248  -9929915.10546  22069761.8444                   22069761.9774
   8391971.91446   6547457.47043  24727906.0314                   24727903.3874
 11  8 20  3  2  0.0000000  0 10G26G18G29G12G05G02G15G30G25G21
  -6782159.93447  -5273596.01145  22186434.3754                   22186432.1024
  12058862.77746   9407729.91343  24659183.4614                   24659182.1454
 -12486225.61748  -9719360.66946  21319460.4064                   21319458.1684
 -14109484.36347 -10979171.91245  22859627.7034                   22859625.5394
 -20864289.93748 -16242077.23046  21263186.7814                   21263184.1604
 -22420668.27747 -17454692.41345  22421241.4534                   22421236.6884
    261426.50847    234597.01045  22932936.8364                   22932934.9884
  -9492368.10947  -7384362.91045  22414459.3674                   22414457.2624
 -12744430.38748  -9918326.04446  22072591.9694                   22072591.7704
   8303000.21546   6478128.93743  24710974.8754                   24710973.0234
 11  8 20  3  2 30.0000000  0 10G26G18G29G12G05G02G15G30G25G21
  -6887758.26647  -5355880.39445  22166339.4534                   22166337.3164
  11937100.76146   9312850.51643  24636012.5234                   24636011.2624
 -12585015.15248  -9796339.49746  21300661.7734                   21300659.1024
 -14052777.21947 -10934984.53245  22870418.9144                   22870417.1414
 -20831434.91848 -16216475.92446  21269438.7344                   21269436.3134
 -22407412.87547 -17444363.52245  22423763.8674                   22423759.5004
    135449.78147    136433.39445  22908964.4844                   22908962.5004
  -9463590.30947  -7361938.66145  22419935.3594                   22419933.4804
 -12729126.83648  -9906401.20246  22075503.9844                   22075504.5434
   8214007.05146   6408783.64243  24694040.0164                   24694037.0044
 11  8 20  3  3  0.0000000  0 10G26G18G29G12G05G02G15G30G25G21
  -6992952.65647  -5437850.01345  22146322.1254                   22146319.5514
  11815509.76646   9218104.43443  24612874.4924                   24612873.3014
 -12683526.65248  -9873101.67346  21281915.6414                   21281913.3794
 -13995906.16847 -10890669.40745  22881240.8204                   22881238.6804
 -20798265.83248 -16190629.87046  21275750.3914                   21275747.5394
 -22394060.03147 -17433958.69345  22426305.3594                   22426300.1524
      9614.17647     38379.73845  22885018.1174                   22885016.1174
  -9434447.51247  -7339230.00145  22425480.7194                   22425479.2274
 -12713389.10248  -9894138.01846  22078499.1414                   22078499.0164
   8124997.61346   6339425.80843  24677102.6564                   24677099.4184
 11  8 20  3  3 30.0000000  0 10G26G18G29G12G05G02G15G30G25G21
  -7097742.38347  -5519504.30145  22126380.5554                   22126378.8524
  11694088.55546   9123490.66743  24589768.8204                   24589767.0824
 -12781760.38348  -9949647.41146  21263222.2344                   21263219.5124
 -13938877.15647 -10846231.21645  22892093.2344                   22892091.0204
 -20764787.88748 -16164543.16046  21282121.3444                   21282118.3554
 -22380611.75447 -17423479.50945  22428864.4144                   22428859.1174
   -116079.87147    -59563.63045  22861099.2344                   22861097.6414
  -9404945.39847  -7316241.34145  22431095.0164                   22431093.2424
 -12697222.34848  -9881540.54646  22081575.5394                   22081575.5704
   8035968.63746   6270052.59143  24660160.3834                   24660157.9024
 11  8 20  3  4  0.0000000  0 10G26G18G29G12G05G02G15G30G25G21
  -7202123.88747  -5600840.50845  22106517.4774                   22106515.6954
  11572838.47346   9029010.16443  24566695.1094                   24566693.9384
 -12879714.18048 -10025975.00246  21244582.1804                   21244579.5514
 -13881692.97347 -10801672.10345  22902974.9304                   22902972.6804
 -20731003.69148 -16138217.82846  21288550.2274                   21288547.3324
 -22367067.72747 -17412925.71845  22431441.3594                   22431436.9184
   -241629.42247   -157394.38545  22837208.1484                   22837205.7464
  -9375087.00047  -7292975.05745  22436777.1174                   22436775.3244
 -12680629.11748  -9868610.75646  22084732.7814                   22084733.0434
   7946919.66446   6200663.91243  24643214.6954                   24643211.3404
 11  8 20  3  4 30.0000000  0 10G26G18G29G12G05G02G15G30G25G21
  -7306092.10247  -5681854.66645  22086733.2814                   22086730.9804
  11451762.34446   8934665.23843  24543655.6644                   24543653.4454
 -12977383.83648 -10102081.20246  21225996.2664                   21225993.7074
 -13824354.92647 -10756993.10245  22913885.8284                   22913883.8164
 -20696914.11748 -16111654.52246  21295037.2664                   21295034.3874
 -22353426.12147 -17402295.89845  22434037.5634                   22434032.7734
   -367029.75047   -255108.88445  22813344.9924                   22813343.4024
  -9344873.76247  -7269432.26945  22442526.7424                   22442524.5084
 -12663610.36748  -9855349.38746  22087971.4694                   22087971.2774
   7857852.10546   6131260.73243  24626265.1804                   24626262.6684
 11  8 20  3  5  0.0000000  0 10G26G18G29G12G05G02G15G30G25G21
  -7409646.82847  -5762546.62845  22067027.5554                   22067025.4144
  11330858.06646   8840454.45743  24520647.9924                   24520645.6454
 -13074770.28148 -10177966.70946  21207464.2894                   21207461.9414
 -13766870.02347 -10712199.65745  22924825.0314                   22924822.7504
 -20662524.76248 -16084857.62446  21301581.4844                   21301578.6094
 -22339690.10547 -17391592.51345  22436650.8984                   22436646.3794
   -492280.96947   -352707.15045  22789510.5704                   22789508.1804
  -9314311.92247  -7245617.85545  22448342.2344                   22448340.2304
 -12646171.87548  -9841760.94346  22091289.8284                   22091290.4534
   7768762.01246   6061839.90843  24609312.7424                   24609310.1414
 11  8 20  3  5 30.0000000  0 10G26G18G29G12G05G02G15G30G25G21
  -7512782.29347  -5842911.89945  22047401.0704                   22047399.2424
  11210129.23045   8746380.11342  24497673.2034                   24497671.6914
 -13171868.72748 -10253627.81846  21188987.0634                   21188984.3404
 -13709238.64847 -10667292.09945  22935791.5554                   22935789.4224
 -20627835.96148 -16057827.38346  21308182.3984                   21308179.1914
 -22325856.52047 -17380813.08045  22439283.4614                   22439279.2304
   -617377.75847   -450185.10345  22765705.3754                   22765703.4454
  -9283402.18047  -7221532.32645  22454224.1644                   22454222.4224
 -12628313.84048  -9827845.57746  22094688.3054                   22094688.2194
   7679650.93446   5992402.84743  24592355.3674                   24592352.7074
 11  8 20  3  6  0.0000000  0 10G26G18G29G12G05G02G15G30G25G21
  -7615494.30147  -5922947.18445  22027855.7274                   22027853.7624
  11089578.17646   8652444.41843  24474733.6174                   24474731.8754
 -13268676.05148 -10329062.07446  21170565.3524                   21170562.2154
 -13651462.91847 -10622272.03445  22946786.7584                   22946783.6844
 -20592849.30148 -16030565.06846  21314839.9454                   21314837.2424
 -22311924.17647 -17369956.69645  22441935.0944                   22441930.5274
   -742315.91847   -547539.45845  22741930.6174                   22741928.2584
  -9252146.68447  -7197177.40645  22460171.6644                   22460170.1884
 -12610037.90648  -9813604.58846  22098166.2584                   22098166.1024
   7590519.68846   5922949.95243  24575394.6484                   24575391.5164
 11  8 20  3  6 30.0000000  0 10G26G18G29G12G05G02G15G30G25G21
  -7717780.89847  -6002650.99345  22008391.2274                   22008389.1884
  10969204.10546   8558646.61843  24451827.8134                   24451825.3014
 -13365191.79748 -10404269.13346  21152198.9614                   21152196.1994
 -13593547.65247 -10577143.26145  22957807.5634                   22957805.1994
 -20557568.60248 -16003073.63146  21321553.7034                   21321551.0744
 -22297894.52347 -17359024.50345  22444604.2504                   22444599.7854
   -867094.10247   -644769.15245  22718186.1484                   22718183.5514
  -9220550.26247  -7172556.81545  22466184.6174                   22466182.5164
 -12591348.42247  -9799041.34146  22101722.5784                   22101722.8054
   7501365.87946   5853479.57643  24558428.4534                   24558425.9414
 11  8 20  3  7  0.0000000  0 10G26G18G29G12G05G02G15G30G25G21
  -7819636.62947  -6082019.06945  21989008.5314                   21989006.6914
  10849010.69146   8464989.55743  24428954.5554                   24428952.9414
 -13461410.90648 -10479245.04446  21133889.1484                   21133886.4884
 -13535493.62947 -10531906.33945  22968854.8364                   22968852.1374
 -20521994.02048 -15975353.18546  21328323.5084                   21328320.6804
 -22283764.80147 -17348014.32445  22447293.0004                   22447289.0944
   -991706.71147   -741869.85845  22694472.6804                   22694470.3874
  -9188613.68047  -7147671.15645  22472261.9384                   22472259.7304
 -12572245.68048  -9784156.08946  22105357.6564                   22105357.1804
   7412191.27046   5783993.01043  24541459.1094                   24541456.6604
 11  8 20  3  7 30.0000000  0 10G26G18G29G12G05G02G15G30G25G21
  -7921061.78947  -6161051.62345  21969708.0554                   21969706.0164
  10728995.42646   8371471.31843  24406117.3134                   24406114.4224
 -13557334.97348 -10553991.04046  21115634.8054                   21115632.2544
 -13477307.95747 -10486566.84345  22979927.0234                   22979924.6564
 -20486132.67648 -15947409.29446  21335148.0704                   21335145.0354
 -22269538.71947 -17336929.06045  22450000.2034                   22449995.9454
  -1116155.02347   -838842.51345  22670791.3284                   22670788.3714
  -9156343.94547  -7122525.89745  22478402.5784                   22478400.0124
 -12552736.33248  -9768953.99146  22109070.0944                   22109070.3834
   7322991.44546   5714486.72743  24524484.4844                   24524482.5704
 11  8 20  3  8  0.0000000  0 10G26G18G29G12G05G02G15G30G25G21
  -8022047.73047  -6239741.92845  21950490.9614                   21950488.9574
  10609164.42246   8278096.68043  24383313.8834                   24383312.0514
 -13652956.62548 -10628501.41846  21097438.6804                   21097436.2464
 -13418988.45747 -10441123.05945  22991024.6414                   22991022.5594
 -20449981.17648 -15919239.29146  21342027.0084                   21342024.3204
 -22255210.35947 -17325764.11545  22452727.0164                   22452722.6134
  -1240430.36347   -935680.39645  22647142.3984                   22647139.9804
  -9123738.75847  -7097119.27545  22484607.0314                   22484605.4144
 -12532817.47348  -9753432.78146  22112860.5004                   22112860.3594
   7233771.42646   5644964.73643  24507506.8914                   24507504.0314
 11  8 20  3  8 30.0000000  0 10G26G18G29G12G05G02G15G30G25G21
  -8122593.35547  -6318089.14745  21931357.7344                   21931355.8094
  10489516.82446   8184864.92043  24360545.1174                   24360542.9804
 -13748275.55548 -10702775.87546  21079300.2894                   21079297.9144
 -13360540.18447 -10395578.95045  23002146.8914                   23002144.3094
 -20413544.27348 -15890846.90746  21348960.9924                   21348957.8524
 -22240781.62947 -17314520.96445  22455472.6484                   22455468.0704
  -1364532.02347  -1032382.95445  22623526.6954                   22623524.1134
  -9090803.34047  -7071455.26945  22490875.0704                   22490872.6054
 -12512494.04747  -9737596.36446  22116727.7114                   22116727.8324
   7144528.31646   5575424.72343  24490524.5314                   24490522.0744
 11  8 20  3  9  0.0000000  0 10G26G18G29G12G05G02G15G30G25G21
  -8222698.53147  -6396093.15045  21912308.4064                   21912306.0784
  10370050.74647   8091774.63743  24337811.7504                   24337809.4654
 -13843292.49648 -10776815.04746  21061219.1024                   21061216.8554
 -13301969.48447 -10349939.45845  23013293.1564                   23013290.6254
 -20376827.89548 -15862236.74746  21355947.6174                   21355944.7344
 -22226255.22347 -17303201.70145  22458236.7424                   22458233.1414
  -1488459.88747  -1128950.09945  22599944.2424                   22599941.5704
  -9057544.14847  -7045539.02145  22497203.7974                   22497201.5784
 -12491771.91047  -9721449.24046  22120671.4304                   22120671.3554
   7055258.48446   5505863.90243  24473536.4064                   24473534.7034
 11  8 20  3  9 30.0000000  0 10G26G18G29G12G05G02G15G30G25G21
  -8322355.71947  -6473748.06245  21893344.5314                   21893342.1804
  10250771.58246   7998829.97443  24315113.3674                   24315111.6644
 -13938001.08648 -10850613.92646  21043196.5164                   21043194.2154
 -13243275.20747 -10304203.61845  23024461.4534                   23024459.5634
 -20339830.22748 -15833407.40346  21362988.1484                   21362985.2074
 -22211626.52347 -17291802.70245  22461020.4534                   22461016.5594
  -1612206.55547  -1225376.02545  22576395.7114                   22576393.0164
  -9023960.08647  -7019369.60645  22503594.5234                   22503592.1024
 -12470649.64848  -9704990.34546  22124690.7274                   22124690.9414
   6965965.73846   5436285.23443  24456544.8444                   24456542.6644
 11  8 20  3 10  0.0000000  0 10G26G18G29G12G05G02G15G30G25G21
  -8421562.19547  -6551051.76545  21874465.6884                   21874463.3714
  10131679.55946   7906031.21543  24292451.1254                   24292448.3594
 -14032399.66048 -10924171.24046  21025233.0634                   21025230.7544
 -13184461.32447 -10258374.60445  23035654.0164                   23035651.5784
 -20302554.57848 -15804361.43846  21370081.6334                   21370078.6134
 -22196896.11347 -17280324.47445  22463823.7114                   22463819.4614
  -1735769.84847  -1321659.08045  22552882.0234                   22552879.6954
  -8990055.01247  -6992950.05745  22510046.2034                   22510044.2624
 -12449130.65648  -9688222.31046  22128785.7664                   22128785.9414
   6876648.69946   5366687.64843  24439547.6804                   24439545.4694
 11  8 20  3 10 30.0000000  0 10G26G18G29G12G05G02G15G30G25G21
  -8520317.50847  -6628003.93645  21855673.2974                   21855671.5044
  10012773.06646   7813376.96143  24269823.5944                   24269821.6454
 -14126488.63748 -10997487.31246  21007328.7344                   21007326.1524
 -13125533.75847 -10212457.00045  23046867.4774                   23046865.2034
 -20265006.10948 -15775102.90246  21377226.5784                   21377223.7464
 -22182066.46947 -17268768.90545  22466645.9534                   22466641.2584
  -1859149.65647  -1417799.14245  22529403.6954                   22529401.7344
  -8955834.93047  -6966285.03245  22516558.0084                   22516555.9614
 -12427220.50447  -9671149.45546  22132955.0784                   22132955.4414
   6787304.16846   5297068.62943  24422545.6724                   24422544.2114
 11  8 20  3 11  0.0000000  0 10G26G18G29G12G05G02G15G30G25G21
  -8618616.44147  -6704600.44545  21836967.4774                   21836965.2154
   9894055.32046   7720869.83943  24247231.3204                   24247230.1484
 -14220263.27347 -11070558.43246  20989483.5164                   20989481.4844
 -13066493.40647 -10166451.52045  23058102.0784                   23058098.9734
 -20227185.30948 -15745632.15746  21384423.5164                   21384420.8874
 -22167135.02347 -17257134.02245  22469487.1334                   22469482.5084
  -1982340.42647  -1513791.89845  22505961.3364                   22505958.7234
  -8921300.80947  -6939375.30245  22523129.7194                   22523128.1994
 -12404919.71548  -9653772.22346  22137198.8444                   22137198.9224
   6697933.59446   5227429.26543  24405539.7344                   24405537.5044
 11  8 20  3 11 30.0000000  0 10G26G18G29G12G05G02G15G30G25G21
  -8716452.90647  -6780836.63445  21818350.4304                   21818347.5944
   9775530.25846   7628512.84143  24224677.2274                   24224675.5594
 -14313718.89848 -11143380.99046  20971699.8444                   20971697.3404
 -13007340.50447 -10120358.33545  23069359.3284                   23069356.5434
 -20189091.76648 -15715948.87746  21391672.5704                   21391670.0704
 -22152098.68047 -17245417.42145  22472348.7424                   22472344.5864
  -2105336.43747  -1609632.90145  22482555.7424                   22482553.8244
  -8886453.02347  -6912221.19245  22529761.1334                   22529758.8444
 -12382228.27048  -9636090.58646  22141516.6644                   22141516.3954
   6608539.39846   5157771.57343  24388529.0004                   24388525.5004
 11  8 20  3 12  0.0000000  0 10G26G18G29G12G05G02G15G30G25G21
  -8813823.05547  -6856709.43245  21799821.3204                   21799818.9184
   9657199.88746   7536307.47443  24202159.8364                   24202157.4454
 -14406852.71548 -11215952.77446  20953977.3524                   20953974.6134
 -12948077.64147 -10074179.47145  23080636.1484                   23080633.4104
 -20150727.77348 -15686054.85546  21398973.1334                   21398970.0984
 -22136956.25047 -17233618.11445  22475230.7814                   22475225.7664
  -2228134.21947  -1705319.42745  22459188.1564                   22459186.1254
  -8851294.33647  -6884824.78045  22536451.2194                   22536449.1914
 -12359148.50048  -9618106.35146  22145908.5554                   22145908.6484
   6519121.57046   5088095.45443  24371512.8914                   24371509.7544
 11  8 20  3 12 30.0000000  0 10G26G18G29G12G05G02G15G30G25G21
  -8910729.10947  -6932220.61445  21781380.1254                   21781378.4184
   9539059.18046   7444250.01543  24179677.8594                   24179676.3834
 -14499667.58247 -11288276.03846  20936314.9384                   20936312.3364
 -12888713.50847 -10027921.67645  23091932.8284                   23091930.6294
 -20112101.14548 -15655956.18846  21406323.3204                   21406320.6884
 -22121712.89147 -17221740.18445  22478131.3754                   22478126.1094
  -2350736.02747  -1800853.27245  22435857.8914                   22435855.6914
  -8815833.28947  -6857192.80245  22543199.8284                   22543197.5474
 -12335688.62148  -9599825.92446  22150373.1954                   22150372.9844
   6429674.18846   5018396.27043  24354490.8524                   24354488.9734
 11  8 20  3 13  0.0000000  0 10G26G18G29G12G05G02G15G30G25G21
  -9007165.45347  -7007365.78545  21763028.7664                   21763026.6484
   9421111.62546   7352342.96243  24157232.8594                   24157231.2854
 -14592159.08648 -11360347.32146  20918714.0784                   20918711.9494
 -12829248.80547  -9981585.54345  23103248.1254                   23103245.7774
 -20073211.97748 -15625652.95746  21413724.2814                   21413720.6254
 -22106366.37547 -17209781.85045  22481051.5084                   22481046.7424
  -2473136.85247  -1896230.50345  22412566.1414                   22412563.4224
  -8780070.77047  -6829325.89345  22550004.8834                   22550003.3324
 -12311849.07048  -9581249.65446  22154909.5474                   22154910.0044
   6340199.36746   4948675.77043  24337464.9774                   24337462.2854
 11  8 20  3 13 30.0000000  0 10G26G18G29G12G05G02G15G30G25G21
  -9103125.80947  -7082140.05845  21744768.3754                   21744766.4454
   9303361.72346   7260589.88343  24134826.8754                   24134823.5234
 -14684321.58248 -11432162.22846  20901176.2424                   20901174.0394
 -12769683.41447  -9935170.92345  23114583.1804                   23114581.0044
 -20034059.78948 -15595144.75946  21421174.3754                   21421171.3984
 -22090912.52047 -17197739.87345  22483992.2974                   22483987.1914
  -2595329.95747  -1991445.85845  22389312.6804                   22389310.9924
  -8744006.81247  -6801224.10945  22556867.6414                   22556865.3524
 -12287629.51648  -9562377.28646  22159518.5314                   22159518.3594
   6250699.30146   4878935.55144  24320433.6174                   24320430.9534
 11  8 20  3 14  0.0000000  0 10G26G18G29G12G05G02G15G30G25G21
  -9198609.57847  -7156542.96145  21726598.2034                   21726596.2894
   9185807.98846   7168989.67943  24112456.2814                   24112453.6884
 -14776155.57848 -11503721.17746  20883701.1644                   20883698.4184
 -12710022.92247  -9888682.20545  23125936.3444                   23125933.9224
 -19994649.56248 -15564435.50346  21428673.8914                   21428671.1254
 -22075353.73447 -17185616.14245  22486953.0004                   22486947.8134
  -2717314.97347  -2086499.07945  22366100.2114                   22366097.9414
  -8707647.17647  -6772891.91345  22563786.5704                   22563784.7974
 -12263035.32848  -9543212.99046  22164198.7034                   22164198.6374
   6161171.13346   4809173.47543  24303396.6174                   24303394.4104
 11  8 20  3 14 30.0000000  0 10G26G18G29G12G05G02G15G30G25G21
  -9293611.57847  -7230570.45445  21708519.9614                   21708517.5944
   9068453.42246   7077544.66143  24090124.1644                   24090121.5474
 -14867656.25847 -11575020.39446  20866289.0164                   20866286.4304
 -12650268.39147  -9842120.24245  23137306.9384                   23137304.7974
 -19954981.92648 -15533525.65046  21436222.4144                   21436218.8674
 -22059687.72347 -17173408.88545  22489933.6644                   22489929.2774
  -2839086.83247  -2181386.20945  22342927.2894                   22342925.5204
  -8670993.12947  -6744330.32545  22570761.2814                   22570760.1884
 -12238067.39848  -9523757.44246  22168949.3594                   22168949.6094
   6071616.36347   4739390.58444  24286355.4304                   24286352.0824
 11  8 20  3 15  0.0000000  0 10G26G18G29G12G05G02G15G30G25G21
  -9388129.78147  -7304220.97545  21690533.7734                   21690531.7464
   8951297.89846   6986254.82043  24067830.3594                   24067828.2584
 -14958822.85247 -11646059.27746  20848940.8284                   20848937.5904
 -12590424.53547  -9795488.64345  23148695.0394                   23148693.2464
 -19915060.49248 -15502418.04346  21443819.2584                   21443816.2814
 -22043915.43447 -17161118.79545  22492935.8284                   22492930.9384
  -2960643.55147  -2276105.69245  22319796.0944                   22319793.7344
  -8634049.03147  -6715542.70245  22577791.5394                   22577790.5084
 -12212729.71947  -9504013.79946  22173771.2814                   22173770.9574
   5982033.46546   4669585.87844  24269308.1094                   24269305.3364
 11  8 20  3 15 30.0000000  0 10G26G18G29G12G05G02G15G30G25G21
  -9482165.09047  -7377495.20845  21672639.6644                   21672637.0004
   8834338.43046   6895117.64543  24045574.0474                   24045571.0514
 -15049657.18048 -11716839.24446  20831655.3594                   20831652.7034
 -12530497.80146  -9748792.46145  23160098.3204                   23160096.9344
 -19874891.63348 -15471117.64346  21451463.1254                   21451460.0554
 -22028040.37547 -17148748.65645  22495956.3054                   22495951.2114
  -3081986.34847  -2370658.47645  22296705.3204                   22296702.9884
  -8596822.02047  -6686534.64345  22584875.8204                   22584873.8714
 -12187029.12547  -9483987.36946  22178661.3674                   22178662.1414
   5892417.89146   4599755.67743  24252254.0864                   24252251.3794
 11  8 20  3 16  0.0000000  0 10G26G18G29G12G05G02G15G30G25G21
  -9575712.27747  -7450389.08945  21654837.8914                   21654835.7274
   8717578.30547   6804135.91343  24023354.9224                   24023351.5474
 -15140154.55148 -11787356.65146  20814434.3054                   20814431.6524
 -12470489.25047  -9702032.53645  23171518.1724                   23171515.8364
 -19834475.82848 -15439624.79046  21459154.0634                   21459151.1604
 -22012059.69947 -17136296.17245  22498997.4614                   22498992.4184
  -3203110.04747  -2465040.54345  22273656.4064                   22273653.9924
  -8559313.27047  -6657307.03645  22592013.7034                   22592011.4844
 -12160966.32847  -9463678.68646  22183621.7194                   22183621.9384
   5802771.21946   4529901.25943  24235194.7114                   24235192.8674
 11  8 20  3 16 30.0000000  0 10G26G18G29G12G05G02G15G30G25G21
  -9668763.79347  -7522896.72345  21637130.8444                   21637128.3714
   8601022.69147   6713313.41743  24001175.5554                   24001171.4344
 -15230308.41048 -11857606.40246  20797278.4534                   20797275.7384
 -12410397.87547  -9655208.06945  23182953.0704                   23182950.8204
 -19793811.04348 -15407937.96146  21466891.9694                   21466889.0594
 -21995968.83647 -17123757.84145  22502059.4694                   22502054.2424
  -3324006.66447  -2559245.65145  22250650.3594                   22250647.8754
  -8521521.45347  -6627858.86645  22599204.8754                   22599203.1844
 -12134539.73047  -9443086.54146  22188650.4384                   22188650.0784
   5713097.52746   4460025.76543  24218130.8284                   24218127.1054
